[[[{"header":{"parameterUnit":"kt","parameterCategory":2,"dx":1,"dy":1,"la1":29.587661999999998,"la2":31.0,"lo1":-88.76705300000003,"lo2":-86.6583820000003,"nx":115,"ny":88,"refTime":"2022-10-15T06:00:00:Z","depth":0,"parameterNumber":1,"parameterNumberName":"U-component_of_WINDS"},"data":[21.1915,21.6097,21.9622,22.2239,22.4194,22.577,22.6438,22.6438,22.6363,22.6438,22.6288,22.6363,22.6438,22.6363,22.6438,22.5989,22.4942,22.4718,22.3521,22.2693,22.3211,22.2912,22.2597,22.2565,22.131,22.0738,22.0461,22.0071,21.9093,21.8864,21.8415,21.7438,21.7288,21.7139,21.7064,21.7203,21.7278,21.6765,21.6765,21.6765,21.5793,21.4003,21.2144,21.0419,20.8545,20.7344,20.682,20.682,20.682,20.682,20.682,20.682,20.682,20.682,20.682,20.682,20.682,20.682,20.682,20.682,20.682,20.682,20.682,20.682,20.682,20.682,20.682,20.682,20.682,20.682,20.682,20.682,20.682,20.682,20.682,20.682,20.682,20.6825,20.7284,20.8051,20.851,20.8111,20.7653,20.8276,20.9198,20.9772,20.9767,21.0649,21.1791,21.2294,21.2781,21.3748,21.471,21.5687,21.6455,21.6685,21.6765,21.6765,21.6765,21.6765,21.6765,21.6765,21.6765,21.6765,21.6765,21.6765,21.6765,21.6765,21.6765,21.6765,21.6765,21.6765,21.6765,21.6765,21.6765,21.0644,21.2892,21.7443,22.1187,22.4114,22.5839,22.6438,22.6438,22.6438,22.6438,22.6438,22.6438,22.6438,22.6438,22.6438,22.6288,22.6144,22.5765,22.5914,22.5466,22.546,22.5011,22.4691,22.437,22.3713,22.3137,22.225,22.1272,22.0365,21.9761,21.9312,21.8944,21.8495,21.8116,21.7507,21.7716,21.8084,21.7358,21.6765,21.6765,21.5419,21.3555,21.2219,21.0574,20.8774,20.7044,20.682,20.682,20.682,20.682,20.682,20.682,20.682,20.682,20.682,20.682,20.682,20.682,20.682,20.682,20.682,20.682,20.682,20.682,20.682,20.682,20.682,20.682,20.682,20.682,20.682,20.682,20.682,20.682,20.682,20.682,20.69,20.69,20.7897,20.9123,20.9183,20.9009,20.9088,20.9492,21.0225,21.1082,21.173,21.2606,21.3343,21.3967,21.4351,21.5094,21.5607,21.5991,21.661,21.6765,21.6765,21.6765,21.6765,21.6765,21.6765,21.6765,21.6765,21.6765,21.6765,21.6765,21.6765,21.6765,21.6765,21.6765,21.6765,21.6765,21.6765,21.6765,21.6765,21.1626,21.3645,21.8426,22.194,22.4194,22.577,22.6438,22.6438,22.6438,22.6438,22.6438,22.6438,22.6438,22.6438,22.6438,22.6363,22.6363,22.6438,22.6438,22.6438,22.6213,22.6438,22.6283,22.5668,22.538,22.5017,22.3751,22.2474,22.1422,22.0669,22.0439,22.029,21.9392,21.9168,21.9761,21.8976,21.8672,21.7966,21.7139,21.6845,21.6396,21.3784,21.1845,21.0724,20.8999,20.7199,20.682,20.682,20.682,20.682,20.682,20.682,20.682,20.682,20.682,20.682,20.682,20.682,20.682,20.682,20.682,20.682,20.682,20.682,20.682,20.682,20.682,20.682,20.682,20.682,20.682,20.682,20.682,20.682,20.682,20.682,20.6825,20.7503,20.8949,21.0235,21.0873,21.0783,21.0973,21.1367,21.2129,21.298,21.3049,21.3776,21.4854,21.5702,21.5927,21.6301,21.6375,21.661,21.6765,21.6765,21.6765,21.6765,21.6765,21.6765,21.6765,21.6765,21.6765,21.6765,21.6765,21.6765,21.6765,21.6765,21.6765,21.6765,21.6765,21.6765,21.6765,21.6765,21.6765,21.3266,21.5215,21.8874,22.1641,22.3591,22.5241,22.6069,22.6438,22.6438,22.6438,22.6438,22.6438,22.6438,22.6438,22.6438,22.6438,22.6438,22.6438,22.6438,22.6438,22.6438,22.6438,22.6363,22.6208,22.6288,22.6,22.5407,22.413,22.3297,22.2619,22.2164,22.2015,22.1417,22.0744,22.1038,22.1219,22.0018,21.8789,21.8436,21.8532,21.7758,21.4986,21.2144,21.1247,20.8849,20.7049,20.682,20.682,20.682,20.682,20.682,20.682,20.682,20.682,20.682,20.682,20.682,20.682,20.682,20.682,20.682,20.682,20.682,20.682,20.682,20.682,20.682,20.682,20.682,20.682,20.682,20.682,20.682,20.682,20.682,20.682,20.682,20.841,21.0151,21.1471,21.2776,21.3096,21.3147,21.3575,21.4331,21.4604,21.4684,21.4993,21.6071,21.6455,21.6535,21.661,21.6765,21.6765,21.6765,21.6765,21.6765,21.6765,21.6765,21.6765,21.6765,21.6765,21.6765,21.6765,21.6765,21.6765,21.6765,21.6765,21.6765,21.6765,21.6765,21.6765,21.6765,21.6685,21.6685,21.4986,21.6546,21.6994,21.9088,22.1865,22.3665,22.5166,22.6368,22.6438,22.6438,22.6438,22.6438,22.6438,22.6438,22.6438,22.6438,22.6438,22.6438,22.6438,22.6438,22.6438,22.6438,22.6438,22.6438,22.6438,22.6438,22.6139,22.5546,22.5396,22.4419,22.3516,22.3895,22.3366,22.2987,22.2533,22.272,22.1897,22.0514,22.0562,22.0583,21.9488,21.693,21.3869,21.3196,21.0045,20.697,20.6975,20.682,20.682,20.682,20.682,20.682,20.682,20.682,20.682,20.682,20.682,20.682,20.682,20.682,20.682,20.682,20.682,20.682,20.682,20.682,20.682,20.682,20.682,20.682,20.682,20.682,20.682,20.682,20.682,20.682,20.7199,20.84,21.027,21.2093,21.3343,21.4437,21.4553,21.4617,21.5148,21.6071,21.6301,21.6226,21.6685,21.6685,21.6685,21.6685,21.6765,21.6765,21.6765,21.6765,21.6765,21.6765,21.6765,21.6765,21.6765,21.6765,21.6765,21.6765,21.6765,21.6765,21.6765,21.6765,21.6765,21.6765,21.6765,21.6765,21.6685,21.653,21.6375,21.521,21.669,21.6765,21.7966,22.0365,22.2923,22.5017,22.6288,22.6438,22.6438,22.6438,22.6438,22.6438,22.6438,22.6438,22.6438,22.6438,22.6438,22.6438,22.6438,22.6438,22.6438,22.6438,22.6438,22.6438,22.6438,22.6438,22.6438,22.592,22.5092,22.4787,22.5241,22.4419,22.4344,22.4328,22.4082,22.3329,22.2848,22.2512,22.2287,22.0546,21.7822,21.6252,21.4826,21.0868,20.8999,20.8326,20.7119,20.6895,20.682,20.682,20.682,20.682,20.682,20.682,20.682,20.682,20.682,20.682,20.682,20.682,20.682,20.682,20.682,20.682,20.682,20.682,20.682,20.682,20.682,20.682,20.682,20.682,20.682,20.682,20.682,20.7573,20.8475,21.0309,21.2356,21.3936,21.5184,21.5713,21.5777,21.6071,21.653,21.6765,21.6765,21.6765,21.6765,21.6765,21.6765,21.6765,21.6765,21.6765,21.6765,21.6765,21.6765,21.6765,21.6765,21.6765,21.6765,21.6765,21.6765,21.6765,21.6765,21.6765,21.6765,21.6765,21.6765,21.6765,21.661,21.6455,21.5916,21.5223,21.5654,21.677,21.6765,21.7363,21.8794,22.1497,22.389,22.5765,22.6294,22.6438,22.6438,22.6438,22.6438,22.6438,22.6438,22.6438,22.6438,22.6438,22.6438,22.6438,22.6438,22.6438,22.6438,22.6438,22.6438,22.6438,22.6438,22.6438,22.6144,22.5615,22.5615,22.6213,22.5396,22.5621,22.5535,22.5358,22.4995,22.4718,22.467,22.4291,22.2699,21.9392,21.7966,21.5798,21.2064,20.9597,20.8699,20.7648,20.6895,20.682,20.682,20.682,20.682,20.682,20.682,20.682,20.682,20.682,20.682,20.682,20.682,20.682,20.682,20.682,20.682,20.682,20.682,20.682,20.682,20.682,20.682,20.682,20.682,20.682,20.682,20.697,20.7349,20.855,21.0514,21.2642,21.4939,21.6022,21.6391,21.6455,21.6301,21.661,21.6765,21.6765,21.6765,21.6765,21.6765,21.6765,21.6765,21.6765,21.6765,21.6765,21.6765,21.6765,21.6765,21.6765,21.6765,21.6765,21.6765,21.6765,21.6765,21.6765,21.6765,21.6765,21.6765,21.6765,21.6455,21.6301,21.5916,21.4454,21.3456,21.6695,21.6765,21.6765,21.684,21.7139,21.8864,22.1337,22.4194,22.5765,22.6438,22.6438,22.6438,22.6438,22.6438,22.6438,22.6438,22.6438,22.6438,22.6438,22.6438,22.6438,22.6438,22.6438,22.6438,22.6438,22.6438,22.6438,22.6438,22.6438,22.5989,22.6064,22.6288,22.6069,22.6219,22.6288,22.6128,22.6058,22.5909,22.5925,22.5695,22.4568,22.1417,21.9462,21.7299,21.3715,21.0718,20.9223,20.8176,20.7274,20.682,20.682,20.682,20.682,20.682,20.682,20.682,20.682,20.682,20.682,20.682,20.682,20.682,20.682,20.682,20.682,20.682,20.682,20.682,20.682,20.682,20.682,20.682,20.682,20.69,20.69,20.7354,20.7653,20.9019,21.0908,21.2828,21.5125,21.6247,21.6535,21.6765,21.661,21.6765,21.6765,21.6765,21.6765,21.6765,21.6765,21.6765,21.6765,21.6765,21.6765,21.6765,21.6765,21.6765,21.6765,21.6765,21.6765,21.6765,21.6765,21.6765,21.6765,21.6765,21.6765,21.6765,21.6685,21.6301,21.5836,21.5473,21.4328,21.2921,21.1704,21.6765,21.6765,21.6765,21.6765,21.6989,21.8415,22.029,22.2619,22.5236,22.6438,22.6438,22.6438,22.6438,22.6438,22.6438,22.6438,22.6438,22.6438,22.6438,22.6438,22.6438,22.6438,22.6438,22.6438,22.6438,22.6438,22.6438,22.6438,22.6438,22.6438,22.6438,22.6438,22.6438,22.6438,22.6438,22.6438,22.6438,22.6438,22.6438,22.6438,22.5316,22.3292,22.0738,21.9019,21.5883,21.1925,21.0724,20.9372,20.8027,20.7124,20.682,20.682,20.682,20.682,20.682,20.682,20.682,20.682,20.682,20.682,20.682,20.682,20.682,20.682,20.682,20.682,20.682,20.682,20.682,20.682,20.682,20.682,20.69,20.7284,20.7593,20.8435,20.9039,21.0181,21.1916,21.3091,21.4918,21.5767,21.6375,21.6535,21.6765,21.6765,21.6765,21.6765,21.6765,21.6765,21.6765,21.6765,21.6765,21.6765,21.6765,21.6765,21.6765,21.6765,21.6765,21.6765,21.6765,21.6765,21.6765,21.6765,21.6765,21.6765,21.6765,21.661,21.6455,21.6071,21.5014,21.3709,21.2719,21.1512,21.0295,21.6765,21.6765,21.6765,21.6765,21.6914,21.7897,21.9238,22.1112,22.3516,22.5466,22.6213,22.6438,22.6438,22.6438,22.6438,22.6438,22.6438,22.6438,22.6438,22.6438,22.6438,22.6438,22.6438,22.6438,22.6438,22.6438,22.6438,22.6438,22.6438,22.6438,22.6438,22.6438,22.6438,22.6438,22.6438,22.6438,22.6438,22.6438,22.6438,22.6363,22.6139,22.3965,22.209,22.1267,21.7304,21.4238,21.2598,21.0948,20.9437,20.8071,20.7857,20.7488,20.6895,20.682,20.682,20.682,20.682,20.682,20.682,20.682,20.682,20.682,20.682,20.682,20.682,20.682,20.682,20.682,20.682,20.682,20.6825,20.69,20.7518,20.7822,20.8495,20.9418,21.0524,21.1746,21.2729,21.3903,21.4988,21.6071,21.6455,21.6685,21.6765,21.6765,21.6765,21.6765,21.6765,21.6765,21.6765,21.6765,21.6765,21.6765,21.6765,21.6765,21.6765,21.6765,21.6765,21.6765,21.6765,21.6765,21.6765,21.6765,21.6765,21.6765,21.6765,21.6685,21.6375,21.488,21.2727,21.1187,21.0769,20.9956,20.9213,21.6765,21.6765,21.6765,21.6765,21.6765,21.6765,21.7737,21.9542,22.1118,22.3372,22.5989,22.6438,22.6438,22.6438,22.6438,22.6438,22.6438,22.6438,22.6438,22.6438,22.6438,22.6438,22.6438,22.6438,22.6438,22.6438,22.6438,22.6438,22.6438,22.6438,22.6438,22.6438,22.6438,22.6438,22.6438,22.6438,22.6438,22.6438,22.6438,22.6438,22.5989,22.4493,22.2693,22.1192,21.8121,21.5509,21.3869,21.2374,21.0992,20.9546,20.9183,20.839,20.7349,20.7054,20.682,20.682,20.682,20.682,20.682,20.682,20.682,20.682,20.7284,20.7054,20.69,20.697,20.7189,20.682,20.682,20.682,20.7054,20.7129,20.8211,20.8969,20.9777,21.0664,21.2023,21.3209,21.3918,21.4854,21.5916,21.6685,21.6685,21.6765,21.6765,21.6765,21.6765,21.6765,21.6765,21.6765,21.6765,21.6765,21.6765,21.6765,21.6765,21.6765,21.6765,21.6765,21.6765,21.6765,21.6765,21.6765,21.6765,21.6765,21.661,21.6375,21.653,21.6535,21.4586,21.2712,21.0569,20.9622,20.9034,20.875,20.9213,21.6765,21.6765,21.6765,21.6765,21.6765,21.6765,21.7587,21.9013,21.9692,22.1716,22.4867,22.5989,22.6438,22.6438,22.6438,22.6438,22.6438,22.6438,22.6438,22.6438,22.6438,22.6438,22.6438,22.6438,22.6438,22.6438,22.6438,22.6438,22.6438,22.6438,22.6438,22.6438,22.6438,22.6438,22.6438,22.6438,22.6438,22.6438,22.6438,22.6438,22.6064,22.4039,22.202,22.1342,21.8565,21.6177,21.4692,21.3789,21.2627,21.1325,21.0144,20.9303,20.8346,20.7593,20.6975,20.682,20.682,20.682,20.682,20.682,20.682,20.7054,20.7668,20.7747,20.7498,20.7917,20.7782,20.7189,20.6975,20.7364,20.8595,20.865,20.9333,21.0684,21.1492,21.2278,21.3562,21.4449,21.5217,21.5682,21.6146,21.6685,21.6765,21.6765,21.6765,21.6765,21.6765,21.6765,21.6765,21.6765,21.6765,21.6765,21.6765,21.6765,21.6765,21.6765,21.6765,21.6765,21.6765,21.6765,21.6765,21.6765,21.6765,21.6381,21.6146,21.5991,21.5473,21.473,21.2787,21.0618,20.9906,20.9188,20.8745,20.8789,20.9183,21.6765,21.6765,21.6765,21.6765,21.6765,21.6765,21.7288,21.8191,21.8789,22.037,22.2314,22.4568,22.5839,22.6363,22.6438,22.6438,22.6438,22.6438,22.6438,22.6438,22.6438,22.6438,22.6438,22.6438,22.6438,22.6438,22.6438,22.6438,22.6438,22.6438,22.6438,22.6438,22.6438,22.6438,22.6438,22.6438,22.6438,22.6438,22.6438,22.6438,22.5914,22.389,22.2239,22.1566,21.8789,21.6925,21.5435,21.521,21.4186,21.2954,21.1879,21.0584,20.9348,20.848,20.7643,20.697,20.682,20.682,20.682,20.682,20.682,20.7209,20.8281,20.9248,20.9222,20.8933,20.8584,20.8326,20.7902,20.8211,20.9418,20.9991,21.0878,21.2379,21.341,21.4192,21.5068,21.5762,21.6301,21.6221,21.653,21.6765,21.6765,21.6765,21.6765,21.6765,21.6765,21.6765,21.6765,21.6765,21.6765,21.6765,21.6765,21.6765,21.6765,21.6765,21.6765,21.6765,21.6765,21.6765,21.6765,21.6685,21.6146,21.5836,21.5452,21.4576,21.3758,21.2931,21.1361,20.9203,20.841,20.844,20.8789,20.8899,21.0324,21.6765,21.6765,21.6765,21.6765,21.6765,21.6765,21.6765,21.7064,21.8266,21.9013,21.9985,22.2239,22.4488,22.5834,22.6213,22.6438,22.6438,22.6438,22.6438,22.6438,22.6438,22.6438,22.6438,22.6438,22.6438,22.6438,22.6438,22.6438,22.6438,22.6438,22.6438,22.6438,22.6438,22.6438,22.6438,22.6438,22.6438,22.6438,22.6438,22.6438,22.5615,22.4413,22.2763,22.1267,21.9692,21.8266,21.684,21.6541,21.5692,21.4539,21.3764,21.2618,21.0819,20.9896,20.8699,20.7802,20.7433,20.7653,20.7877,20.7952,20.7428,20.7668,20.8735,21.0145,21.0681,21.0093,20.9721,20.9577,20.9443,20.9742,21.035,21.0972,21.2591,21.3807,21.473,21.5452,21.5991,21.6685,21.6685,21.6765,21.6765,21.6765,21.6765,21.6765,21.6765,21.6765,21.6765,21.6765,21.6765,21.6765,21.6765,21.6765,21.6765,21.6765,21.6765,21.6765,21.6765,21.6765,21.6765,21.6765,21.6455,21.5991,21.5377,21.4844,21.3882,21.2936,21.1985,21.0783,20.9357,20.7568,20.69,20.7364,20.7717,20.861,21.0623,21.6765,21.6765,21.6765,21.6765,21.6765,21.6765,21.6765,21.6765,21.7219,21.8041,21.9088,22.0065,22.209,22.4344,22.5759,22.6288,22.6363,22.6438,22.6438,22.6438,22.6438,22.6438,22.6438,22.6438,22.6438,22.6438,22.6438,22.6438,22.6438,22.6438,22.6438,22.6438,22.6438,22.6438,22.6438,22.6438,22.6438,22.6438,22.6438,22.5839,22.4718,22.3137,22.1417,21.9841,21.834,21.7144,21.684,21.6765,21.6765,21.5777,21.5055,21.3998,21.2717,21.1606,21.0355,20.9098,20.8939,20.9303,20.9746,21.0045,21.046,21.0575,21.1123,21.1337,21.1871,21.2773,21.2707,21.1193,21.1123,21.1811,21.2717,21.3189,21.4374,21.5223,21.5916,21.6301,21.6685,21.6685,21.6765,21.6765,21.6765,21.6765,21.6765,21.6765,21.6765,21.6765,21.6765,21.6765,21.6765,21.6765,21.6765,21.6765,21.6765,21.6765,21.6765,21.6765,21.6765,21.6765,21.6765,21.6455,21.5388,21.4769,21.4112,21.3284,21.2387,21.1366,21.028,20.871,20.7284,20.7209,20.7054,20.6975,20.7433,20.849,21.0285,21.6765,21.6765,21.6765,21.6765,21.6765,21.6765,21.6765,21.6765,21.6765,21.7213,21.8041,21.8714,22.0065,22.2095,22.4488,22.5391,22.5615,22.6139,22.6438,22.6438,22.6438,22.6438,22.6438,22.6438,22.6438,22.6438,22.6438,22.6438,22.6438,22.6438,22.6438,22.6438,22.6438,22.6438,22.6438,22.6438,22.6438,22.6438,22.6288,22.5615,22.389,22.1865,22.0065,21.9093,21.7593,21.6914,21.6765,21.6765,21.6765,21.6546,21.6028,21.503,21.4106,21.331,21.208,21.0679,21.0963,21.1456,21.1724,21.1549,21.149,21.1685,21.2299,21.2732,21.2954,21.3536,21.3534,21.2839,21.2734,21.3122,21.3872,21.4838,21.5762,21.6301,21.6455,21.6685,21.6685,21.6765,21.6765,21.6765,21.6765,21.6765,21.6765,21.6765,21.6765,21.6765,21.6765,21.6765,21.6765,21.6765,21.6765,21.6765,21.6765,21.6765,21.6765,21.653,21.6455,21.6455,21.6455,21.5169,21.4171,21.315,21.2214,21.1402,21.0858,20.9816,20.849,20.7593,20.7129,20.7209,20.7364,20.7902,20.844,20.9423,21.1138,21.6765,21.6765,21.6765,21.6765,21.6765,21.6765,21.6765,21.6765,21.6765,21.6765,21.7064,21.8111,21.8864,21.9916,22.2389,22.3521,22.4119,22.4862,22.5466,22.5839,22.5914,22.6064,22.6438,22.6438,22.6438,22.6438,22.6438,22.6438,22.6438,22.6438,22.6438,22.6438,22.6438,22.6438,22.6438,22.6438,22.6438,22.6438,22.6213,22.546,22.381,22.0963,21.9318,21.842,21.7518,21.6765,21.6765,21.6765,21.6765,21.6695,21.6695,21.5922,21.4844,21.4517,21.3635,21.3271,21.3336,21.3828,21.2933,21.2853,21.2864,21.3253,21.3787,21.4379,21.4529,21.4689,21.4725,21.4444,21.4532,21.4694,21.5003,21.5916,21.6455,21.6765,21.6765,21.6765,21.6765,21.6765,21.6765,21.6765,21.6765,21.6765,21.6765,21.6765,21.6765,21.6765,21.6765,21.6765,21.6765,21.6765,21.6765,21.6765,21.6765,21.6765,21.6765,21.6146,21.6066,21.5991,21.5019,21.3663,21.2712,21.1706,21.0619,20.9787,20.9338,20.851,20.7747,20.7284,20.6975,20.6975,20.7209,20.8131,20.9278,21.1018,21.2445,21.6765,21.6765,21.6765,21.6765,21.6765,21.6765,21.6765,21.6765,21.6765,21.6765,21.684,21.7144,21.7966,21.9013,21.9911,22.0888,22.217,22.2389,22.3516,22.4344,22.4568,22.5316,22.6064,22.6438,22.6213,22.6064,22.6139,22.6438,22.6064,22.5989,22.6288,22.6064,22.6288,22.6438,22.6213,22.5914,22.6438,22.6064,22.5316,22.4547,22.3409,22.0947,21.8565,21.7219,21.6914,21.6765,21.6765,21.6765,21.6765,21.6765,21.6685,21.653,21.6306,21.6241,21.6097,21.5878,21.6022,21.6092,21.5612,21.5527,21.5223,21.5143,21.5916,21.6146,21.6146,21.5996,21.6087,21.6252,21.6156,21.6071,21.5991,21.6455,21.6685,21.6765,21.6765,21.6765,21.6765,21.6765,21.6765,21.6765,21.6765,21.6765,21.6765,21.6765,21.6765,21.6765,21.6765,21.6765,21.6765,21.6765,21.6765,21.6765,21.6765,21.6765,21.6151,21.5607,21.4844,21.4576,21.3405,21.2204,21.1192,21.0245,20.9103,20.8036,20.7747,20.7827,20.7364,20.682,20.682,20.69,20.7129,20.8027,20.9577,21.1312,21.3292,21.6765,21.6765,21.6765,21.6765,21.6765,21.6765,21.6765,21.6765,21.6765,21.6765,21.6765,21.6765,21.7213,21.7742,21.7966,21.8864,22.0365,22.1112,22.209,22.2619,22.2918,22.3441,22.389,22.4039,22.4568,22.4942,22.4419,22.397,22.4119,22.4194,22.397,22.4119,22.4119,22.4114,22.4114,22.4264,22.4045,22.3906,22.3227,22.2544,22.1422,22.0204,21.834,21.7219,21.6765,21.6765,21.6765,21.6765,21.6765,21.6765,21.6765,21.6765,21.669,21.669,21.669,21.669,21.669,21.669,21.6765,21.6765,21.6765,21.6765,21.6685,21.6765,21.6765,21.6765,21.669,21.669,21.6765,21.6765,21.6765,21.6765,21.6765,21.6765,21.6765,21.6765,21.6765,21.6765,21.6765,21.6765,21.6765,21.6765,21.6765,21.6765,21.6765,21.6765,21.6765,21.6765,21.6765,21.6765,21.6765,21.6765,21.6765,21.6301,21.5228,21.408,21.3008,21.2657,21.1816,21.0684,20.9722,20.8804,20.7663,20.6975,20.69,20.7129,20.682,20.682,20.682,20.682,20.8131,20.9413,21.0453,21.1828,21.3962,21.6765,21.6765,21.6765,21.6765,21.6765,21.6765,21.6765,21.6765,21.6765,21.6765,21.6765,21.6765,21.6765,21.684,21.6765,21.7443,21.8714,21.9686,22.0664,22.1118,22.1192,22.1572,22.202,22.2245,22.2389,22.2688,22.209,22.1641,22.1791,22.1561,22.2164,22.1791,22.1865,22.194,22.1935,22.1641,22.21,22.2191,22.1502,22.0685,21.9723,21.881,21.7817,21.6989,21.6765,21.6765,21.6765,21.6765,21.6765,21.6765,21.6765,21.6765,21.6765,21.6765,21.6765,21.6765,21.6765,21.6765,21.6765,21.6765,21.6765,21.6765,21.6765,21.6765,21.6765,21.6765,21.6765,21.6765,21.6765,21.6765,21.6765,21.6765,21.6765,21.6765,21.6765,21.6765,21.6765,21.6765,21.6765,21.6765,21.6765,21.6765,21.6765,21.6765,21.6765,21.6765,21.6765,21.6765,21.6765,21.6765,21.6455,21.6301,21.6386,21.5318,21.4101,21.2505,21.1389,21.0988,21.0176,20.9044,20.843,20.7359,20.7054,20.69,20.682,20.69,20.6825,20.682,20.6825,20.6975,20.8974,21.1128,21.1775,21.2495,21.4614,21.6765,21.6765,21.6765,21.6765,21.6765,21.6765,21.6765,21.6765,21.6765,21.6765,21.6765,21.6765,21.6765,21.6765,21.6765,21.684,21.7213,21.7737,21.8639,21.9387,21.9462,22.0076,22.0909,22.0973,22.0883,21.9815,21.9531,22.0215,22.0968,22.1561,22.0963,22.1417,22.1411,22.1043,22.1342,22.1497,22.1203,22.0914,21.9996,21.9184,21.8836,21.7758,21.7288,21.6765,21.6765,21.6765,21.6765,21.6765,21.6765,21.6765,21.6765,21.6765,21.6765,21.6765,21.6765,21.661,21.6316,21.6167,21.6092,21.6316,21.6466,21.6765,21.6685,21.6685,21.6685,21.6685,21.6615,21.669,21.6765,21.6765,21.6765,21.6765,21.6765,21.6765,21.6765,21.6765,21.6765,21.6765,21.6765,21.6765,21.6765,21.6765,21.6765,21.6765,21.6765,21.6765,21.6765,21.6765,21.6765,21.6535,21.5527,21.5068,21.4736,21.3833,21.2428,21.0997,21.012,20.9502,20.8505,20.7742,20.7279,20.69,20.69,20.682,20.6825,20.6975,20.698,20.7284,20.7364,20.7129,20.873,21.1223,21.2593,21.3413,21.4849,21.6765,21.6765,21.6765,21.6765,21.6765,21.6765,21.6765,21.6765,21.6765,21.6765,21.6765,21.6765,21.6765,21.6765,21.6765,21.6765,21.6765,21.6765,21.7213,21.7662,21.7892,21.8271,21.8949,21.8869,21.8714,21.8031,21.7892,21.8196,21.8789,21.8939,21.9163,21.9019,21.8944,21.9243,21.9024,21.8944,21.9173,21.888,21.8196,21.7822,21.7768,21.7069,21.6765,21.6765,21.6765,21.6765,21.6765,21.6765,21.6765,21.653,21.5916,21.5377,21.5297,21.4604,21.4139,21.4075,21.4042,21.4009,21.4083,21.4083,21.4447,21.5233,21.5377,21.5452,21.5527,21.6301,21.6327,21.5829,21.6187,21.6765,21.6765,21.6765,21.6765,21.6765,21.6765,21.6765,21.6765,21.6765,21.6765,21.6765,21.6765,21.6765,21.6765,21.6765,21.661,21.5537,21.5537,21.495,21.5099,21.4635,21.3781,21.3348,21.3016,21.2304,21.0829,20.9787,20.8824,20.8131,20.7438,20.7054,20.682,20.682,20.682,20.682,20.682,20.6975,20.7747,20.8211,20.844,20.9039,21.0225,21.1696,21.3171,21.4411,21.5692,21.6765,21.6765,21.6765,21.6765,21.6765,21.6765,21.6765,21.6765,21.6765,21.6765,21.6765,21.6765,21.6765,21.6765,21.6765,21.6765,21.6765,21.6765,21.6765,21.6765,21.6765,21.6765,21.684,21.6989,21.684,21.684,21.6765,21.684,21.684,21.7139,21.684,21.692,21.7213,21.684,21.6994,21.7213,21.6765,21.6765,21.684,21.684,21.684,21.6765,21.6765,21.6765,21.6765,21.6765,21.6765,21.6765,21.6535,21.5991,21.4993,21.4181,21.3604,21.2591,21.2041,21.2057,21.1889,21.1786,21.1721,21.203,21.2379,21.3544,21.3653,21.383,21.4219,21.5184,21.5092,21.5391,21.5514,21.6226,21.6685,21.6765,21.6765,21.6765,21.6765,21.6765,21.6765,21.6765,21.6765,21.6765,21.6765,21.6765,21.6765,21.653,21.5532,21.4534,21.3787,21.3124,21.2671,21.2212,21.1773,21.1425,21.1092,21.0604,20.9343,20.8425,20.7827,20.7364,20.7054,20.682,20.682,20.682,20.682,20.682,20.682,20.7747,20.8675,20.9128,20.9522,21.1218,21.2659,21.3196,21.3903,21.5489,21.6685,21.6765,21.6765,21.6765,21.6765,21.6765,21.6765,21.6765,21.6765,21.6765,21.6765,21.6765,21.6765,21.6765,21.6765,21.6765,21.6765,21.6765,21.6765,21.6765,21.6765,21.6765,21.6765,21.6765,21.6765,21.6765,21.6765,21.6765,21.6765,21.6765,21.6765,21.6765,21.6765,21.6765,21.6765,21.6765,21.6765,21.6765,21.6765,21.6765,21.6765,21.6765,21.6765,21.6765,21.6765,21.6765,21.6765,21.6765,21.6685,21.6071,21.4604,21.4369,21.3245,21.2076,21.1866,21.1451,21.1376,21.1172,21.1218,21.1487,21.1188,21.1642,21.1836,21.1928,21.2528,21.3413,21.3351,21.3771,21.5375,21.5163,21.5687,21.6455,21.6765,21.6765,21.6765,21.6765,21.6765,21.6765,21.6765,21.6765,21.6765,21.6685,21.6765,21.6375,21.5527,21.4305,21.3055,21.2369,21.1631,21.0948,21.0464,21.001,20.9651,20.9233,20.8904,20.8131,20.7284,20.7129,20.6975,20.6825,20.682,20.682,20.682,20.682,20.682,20.682,20.7593,20.8974,20.9906,21.0358,21.1724,21.373,21.4212,21.4545,21.6076,21.6685,21.6765,21.6765,21.6765,21.6765,21.6765,21.6765,21.6765,21.6765,21.6765,21.6765,21.6765,21.6765,21.6765,21.6765,21.6765,21.6765,21.6765,21.6765,21.6765,21.6765,21.6765,21.6765,21.6765,21.6765,21.6765,21.6765,21.6765,21.6765,21.6765,21.6765,21.6765,21.6765,21.6765,21.6765,21.6765,21.6765,21.6765,21.6765,21.6765,21.6765,21.6765,21.6765,21.6765,21.6765,21.6765,21.6765,21.6765,21.6765,21.5996,21.4246,21.2413,21.1123,21.0355,20.9482,20.8844,20.8849,20.8854,20.8869,20.8899,20.8904,20.9288,21.0116,21.0305,21.0783,21.1317,21.2732,21.2773,21.4243,21.5184,21.5922,21.661,21.6765,21.6765,21.6765,21.6765,21.6765,21.6765,21.661,21.6765,21.6455,21.5916,21.5297,21.5223,21.3755,21.2505,21.1531,21.0859,21.0036,20.9363,20.8874,20.847,20.8016,20.7663,20.7747,20.7284,20.7054,20.69,20.69,20.682,20.682,20.682,20.682,20.682,20.682,20.682,20.7354,20.8954,21.0295,21.1111,21.2575,21.4475,21.5532,21.5767,21.6685,21.6765,21.6765,21.6765,21.6765,21.6765,21.6765,21.6765,21.6765,21.6765,21.6765,21.6765,21.6765,21.6765,21.6765,21.6765,21.6765,21.6765,21.6765,21.6765,21.6765,21.6765,21.6765,21.6765,21.6765,21.6765,21.6765,21.6765,21.6765,21.6765,21.6765,21.6765,21.6765,21.6765,21.6765,21.6765,21.6765,21.6765,21.6765,21.6765,21.6765,21.6765,21.6765,21.6765,21.6765,21.6765,21.6765,21.6765,21.6765,21.6765,21.5932,21.4186,21.1118,20.9213,20.867,20.7668,20.7119,20.7124,20.6975,20.69,20.69,20.6975,20.7438,20.852,20.8655,20.8894,20.9328,21.16,21.2508,21.3191,21.4372,21.6146,21.661,21.6765,21.6765,21.6685,21.6221,21.5762,21.5372,21.5377,21.5398,21.5339,21.424,21.3632,21.3194,21.2147,21.0753,20.9777,20.9049,20.8366,20.7822,20.7349,20.7573,20.6975,20.6825,20.682,20.682,20.682,20.682,20.682,20.682,20.682,20.682,20.682,20.682,20.682,20.682,20.7364,20.8954,21.0624,21.2273,21.3547,21.4918,21.5607,21.6146,21.6381,21.6306,21.6765,21.6765,21.6765,21.6765,21.6765,21.6765,21.6765,21.6765,21.6765,21.6765,21.6765,21.6765,21.6765,21.6765,21.6765,21.6765,21.6765,21.6765,21.6765,21.6765,21.6765,21.6765,21.6765,21.6765,21.6765,21.6765,21.6765,21.6765,21.6765,21.6765,21.6765,21.6765,21.6765,21.6765,21.6765,21.6765,21.6765,21.6765,21.6765,21.6765,21.6765,21.6765,21.6765,21.6765,21.6765,21.6765,21.669,21.6541,21.5803,21.4024,21.1058,20.8675,20.7364,20.69,20.6745,20.6591,20.6745,20.6591,20.6671,20.6287,20.6516,20.69,20.7049,20.7558,20.8899,20.9836,21.0983,21.2977,21.4117,21.5073,21.6236,21.669,21.6685,21.653,21.5223,21.3771,21.2294,21.2235,21.2521,21.2343,21.1987,21.1797,21.175,21.0435,20.9557,20.8979,20.7982,20.7364,20.682,20.682,20.682,20.682,20.682,20.682,20.682,20.682,20.682,20.682,20.682,20.682,20.682,20.682,20.682,20.682,20.69,20.7747,20.8969,21.058,21.22,21.3673,21.4534,21.5148,21.5457,21.5537,21.5612,21.6765,21.6765,21.6765,21.6765,21.6765,21.6765,21.6765,21.6765,21.6765,21.6765,21.6765,21.6765,21.6765,21.6765,21.6765,21.6765,21.6765,21.6765,21.6765,21.6765,21.6765,21.6765,21.6765,21.6765,21.6765,21.6765,21.6765,21.6765,21.6765,21.6765,21.6765,21.6765,21.6765,21.6765,21.6765,21.6765,21.6765,21.6765,21.6765,21.6765,21.6765,21.6765,21.6765,21.6765,21.6765,21.6765,21.6695,21.5654,21.4388,21.2523,21.054,20.8595,20.7054,20.6745,20.6282,20.5589,20.5205,20.4777,20.3909,20.3934,20.4124,20.5051,20.528,20.5958,20.7563,20.8879,20.9647,21.1322,21.2985,21.447,21.52,21.6022,21.6151,21.5297,21.3611,21.2426,21.193,21.1641,21.1587,21.1287,21.0739,21.036,20.9921,20.8814,20.7822,20.7747,20.7209,20.682,20.682,20.682,20.682,20.682,20.682,20.682,20.682,20.682,20.682,20.682,20.682,20.682,20.682,20.682,20.682,20.682,20.682,20.7518,20.8056,20.9901,21.1697,21.3196,21.4449,21.5259,21.593,21.568,21.5457,21.5948,21.5873,21.5424,21.52,21.5125,21.5125,21.52,21.5125,21.513,21.513,21.5125,21.513,21.513,21.5125,21.52,21.5424,21.5873,21.5429,21.5429,21.5873,21.5953,21.6172,21.6615,21.6765,21.6765,21.6765,21.6765,21.6765,21.6765,21.6765,21.6765,21.6765,21.6765,21.6765,21.6765,21.6765,21.6765,21.6765,21.6765,21.6765,21.6765,21.6765,21.6765,21.6765,21.6765,21.6471,21.5953,21.4313,21.2678,21.1038,20.8949,20.7054,20.5664,20.528,20.4742,20.3735,20.3541,20.3002,20.2148,20.2035,20.2608,20.3286,20.3541,20.4204,20.528,20.7209,20.8505,20.8849,21.151,21.3743,21.4158,21.4911,21.4532,21.3475,21.2008,21.0917,21.0714,21.036,21.0216,21.0061,20.9213,20.867,20.8366,20.7822,20.6975,20.6975,20.69,20.682,20.682,20.682,20.682,20.682,20.682,20.682,20.682,20.682,20.682,20.682,20.682,20.682,20.682,20.682,20.682,20.682,20.682,20.7054,20.7438,20.8715,21.0559,21.2152,21.3621,21.4901,21.6231,21.636,21.5953,21.4174,21.4024,21.2448,21.207,21.2144,21.2139,21.1845,21.207,21.2064,21.2294,21.2369,21.1995,21.2214,21.1995,21.2294,21.2748,21.357,21.2598,21.2817,21.4393,21.4468,21.521,21.6695,21.6765,21.6765,21.6765,21.6765,21.6765,21.6765,21.6765,21.6765,21.6765,21.6765,21.6765,21.6765,21.6765,21.6765,21.6765,21.6765,21.6765,21.6765,21.6765,21.6765,21.6765,21.6765,21.6022,21.4393,21.2668,21.0963,20.9268,20.6212,20.3665,20.2684,20.2445,20.2126,20.2081,20.201,20.1958,20.1711,20.1557,20.1463,20.1987,20.2001,20.2146,20.2913,20.4996,20.6611,20.6975,20.9512,21.2149,21.3127,21.2085,21.1048,21.1423,21.0026,20.9173,20.9054,20.7977,20.69,20.7209,20.7209,20.6975,20.69,20.6825,20.682,20.682,20.682,20.682,20.682,20.682,20.682,20.682,20.682,20.682,20.682,20.682,20.682,20.682,20.682,20.682,20.682,20.682,20.682,20.682,20.682,20.682,20.7209,20.8889,21.0494,21.1585,21.242,21.3781,21.5135,21.6224,21.6081,21.1551,21.2299,21.1925,21.1696,21.1696,21.1696,21.1696,21.1696,21.1696,21.1696,21.1696,21.1696,21.1696,21.1696,21.1696,21.1471,21.0873,21.0424,21.1551,21.4099,21.4243,21.5141,21.6546,21.6765,21.6765,21.6765,21.6765,21.6765,21.6765,21.6765,21.6765,21.6765,21.6765,21.6765,21.6765,21.6765,21.6765,21.6765,21.6765,21.6765,21.6765,21.6765,21.6765,21.6765,21.6765,21.5953,21.4243,21.1551,20.9303,20.7513,20.4507,20.2493,20.2008,20.1965,20.1487,20.0464,20.0245,19.9811,19.8788,19.8568,19.9106,20.0107,20.0274,20.0834,20.1936,20.2906,20.3444,20.4218,20.6486,20.8525,20.8385,20.5782,20.4855,20.7608,20.69,20.6362,20.7438,20.7129,20.6745,20.6671,20.6671,20.675,20.682,20.682,20.682,20.682,20.682,20.682,20.682,20.682,20.682,20.682,20.682,20.682,20.682,20.682,20.682,20.682,20.682,20.682,20.682,20.682,20.682,20.682,20.682,20.682,20.7673,20.9443,21.0644,21.1597,21.2487,21.3526,21.4913,21.5991,21.6301,20.8106,20.8934,20.841,20.8186,20.8181,20.8186,20.8186,20.8181,20.8181,20.8181,20.8256,20.8784,20.9009,20.9009,20.8405,20.7663,20.676,20.669,20.8111,21.0504,21.1252,21.2443,21.4083,21.5355,21.5803,21.5953,21.6396,21.6765,21.6765,21.6765,21.6765,21.6765,21.6765,21.6765,21.6765,21.6765,21.6765,21.6765,21.6765,21.6765,21.6765,21.6765,21.6765,21.6765,21.6172,21.4762,21.2523,20.9896,20.7368,20.5159,20.2532,20.1055,20.1024,20.0447,19.9591,19.8713,19.8535,19.8062,19.7095,19.6871,19.7413,19.8414,19.8493,19.8773,19.9278,19.9769,19.9868,19.9886,20.1817,20.3137,20.2768,20.166,20.1678,20.4332,20.4169,20.3969,20.4742,20.5051,20.528,20.5748,20.5938,20.6242,20.6531,20.682,20.682,20.682,20.682,20.682,20.682,20.682,20.682,20.682,20.682,20.682,20.682,20.682,20.682,20.682,20.682,20.682,20.682,20.682,20.682,20.682,20.682,20.682,20.69,20.859,20.9293,21.0474,21.2237,21.3531,21.5687,21.6071,21.6455,20.4078,20.3929,20.2652,20.2353,20.2054,20.2278,20.2129,20.2652,20.2278,20.2204,20.2652,20.3779,20.4228,20.4153,20.3181,20.2134,20.2129,20.2353,20.3325,20.4971,20.6381,20.7872,20.9452,21.2598,21.4099,21.4243,21.5579,21.6471,21.6471,21.6695,21.6765,21.6765,21.6765,21.6765,21.6765,21.6765,21.6765,21.6765,21.6765,21.6765,21.6765,21.6546,21.6316,21.6097,21.4911,21.2598,20.9602,20.7648,20.5219,20.195,20.0256,19.934,19.9185,19.7871,19.702,19.6796,19.6726,19.6651,19.6661,19.6661,19.681,19.6955,19.695,19.6254,19.5547,19.6207,19.6161,19.466,19.5762,19.6478,19.6922,19.8377,20.0434,20.1472,20.1706,20.1777,20.2066,20.2465,20.2744,20.386,20.4233,20.4691,20.6142,20.6591,20.6531,20.675,20.682,20.682,20.682,20.682,20.682,20.682,20.682,20.682,20.682,20.682,20.682,20.682,20.682,20.682,20.682,20.682,20.682,20.682,20.682,20.682,20.6825,20.7408,20.843,20.9995,21.1918,21.3547,21.5388,21.6076,21.653,20.0778,20.0928,20.168,20.1979,20.1979,20.1979,20.1979,20.1979,20.1979,20.1979,20.2054,20.2358,20.1979,20.1002,20.168,20.1979,20.1979,20.1979,20.2802,20.4372,20.6082,20.7727,20.9452,21.1471,21.2374,21.2593,21.4088,21.4911,21.5061,21.6102,21.6765,21.6765,21.6765,21.6765,21.6765,21.6765,21.6765,21.6765,21.6765,21.6765,21.6391,21.4382,21.3111,21.3036,21.2593,21.0873,20.7648,20.5858,20.3494,20.0261,19.8493,19.7642,19.7642,19.7179,19.6408,19.5263,19.4099,19.3917,19.5146,19.5226,19.5731,19.6656,19.5791,19.5019,19.4506,19.3852,19.322,19.2421,18.9806,18.9409,19.1005,19.2408,19.4576,19.7811,19.8306,19.9413,20.148,20.197,20.2035,20.2477,20.2616,20.2867,20.3322,20.4343,20.5444,20.6376,20.6671,20.682,20.682,20.6745,20.6745,20.682,20.6745,20.6745,20.682,20.6516,20.682,20.682,20.6596,20.6521,20.682,20.6745,20.6745,20.5898,20.6591,20.6671,20.6222,20.7678,20.9103,21.0993,21.3203,21.5243,21.503,21.6151,21.661,19.6441,19.652,19.7497,19.7941,19.7871,19.7946,19.832,19.8923,19.8923,19.9287,19.9726,19.847,19.7418,19.6516,19.7418,19.7941,19.7941,19.8619,19.9442,20.0414,20.2722,20.4736,20.6461,20.8555,21.0125,21.0798,21.2374,21.3196,21.3346,21.4158,21.4676,21.4682,21.4682,21.4682,21.4682,21.4682,21.4682,21.4682,21.4635,21.471,21.4447,21.2743,21.1696,21.1621,21.1097,20.9148,20.6008,20.4223,20.1531,19.7782,19.6487,19.5636,19.5019,19.4945,19.4557,19.3566,19.2585,19.251,19.3476,19.2907,19.2913,19.3805,19.2473,19.1207,19.0521,18.9632,18.8696,18.7973,18.6027,18.535,18.7309,18.8159,18.9954,19.3085,19.4529,19.5945,19.8643,19.9442,20.0209,20.0869,20.0985,20.1147,20.1921,20.2787,20.3719,20.4517,20.4762,20.5051,20.5664,20.5818,20.6053,20.6446,20.5554,20.4961,20.4731,20.4856,20.4822,20.4822,20.4851,20.4851,20.4682,20.4817,20.4891,20.4742,20.4587,20.4597,20.5175,20.5883,20.6825,20.8065,21.0688,21.2144,21.3488,21.4225,21.4656,19.2108,19.2038,19.2263,19.2038,19.2258,19.2263,19.316,19.4361,19.4441,19.5095,19.5908,19.3305,19.2258,19.2038,19.2263,19.2412,19.2487,19.3688,19.4511,19.4885,19.7567,19.9811,20.1456,20.4362,20.69,20.855,21.013,21.0953,21.1471,21.177,21.177,21.1696,21.1696,21.177,21.177,21.1781,21.1706,21.1691,21.1374,21.1294,21.1242,21.1247,21.1247,21.1252,20.9677,20.7284,20.3929,20.2353,19.9259,19.4875,19.4347,19.3585,19.2127,19.1814,19.1735,19.1356,19.131,19.1323,19.1017,18.9879,18.918,18.9152,18.8008,18.6538,18.513,18.4247,18.313,18.2453,18.3133,18.3841,18.4468,18.5717,18.7293,18.9119,19.0413,19.2113,19.3954,19.5403,19.6871,19.8568,19.8657,19.9475,20.0549,20.1292,20.168,20.1984,20.2309,20.2953,20.3874,20.4084,20.4587,20.524,20.3998,20.2368,20.2288,20.2051,20.24,20.2245,20.2085,20.2334,20.2599,20.2559,20.2295,20.3645,20.2918,20.3416,20.3166,20.2742,20.3805,20.6366,20.6878,20.6636,20.8933,21.1034,21.1245,19.2038,19.2038,19.2038,19.2038,19.2038,19.2038,19.2258,19.2637,19.2562,19.2108,19.1351,19.188,19.2038,19.2038,19.2038,19.2038,19.2113,19.2487,19.2637,19.2861,19.473,19.5857,19.645,19.8156,20.0773,20.355,20.5195,20.7289,20.9751,21.1097,21.1696,21.1696,21.1696,21.1696,21.1696,21.1692,21.1687,21.1476,20.9193,20.7922,20.7942,20.7952,20.7952,20.7797,20.6317,20.3849,20.0703,19.8904,19.6357,19.2913,19.2627,19.1893,19.0248,19.0103,18.894,18.6634,18.6319,18.5766,18.4591,18.5194,18.6281,18.7548,18.6175,18.5044,18.4344,18.0052,17.7282,17.8245,17.8887,18.0131,18.2162,18.3037,18.3956,18.5545,18.614,18.7578,19.0123,19.0931,19.1856,19.3487,19.4875,19.581,19.6553,19.8402,19.9782,19.9989,20.1215,20.1972,20.2337,20.2519,20.2554,20.2847,20.2486,20.1702,20.1926,20.1774,20.175,20.1967,20.1837,20.1598,20.1818,20.2889,20.3567,20.3335,20.4407,20.4725,20.5512,20.6295,20.6898,20.7023,20.7737,20.9442,21.02,21.0824,21.0166,18.7547,18.7551,18.7547,18.7472,18.7477,18.7547,18.7925,18.8603,18.7846,18.6949,18.6276,18.7103,18.7547,18.7547,18.7551,18.7551,18.7622,18.9113,18.9865,19.001,19.2258,19.3838,19.4665,19.5403,19.7184,19.9577,20.1302,20.3021,20.4886,20.7214,20.8336,20.841,20.9078,20.9452,20.9452,20.9492,20.9497,20.9372,20.695,20.5679,20.5639,20.4961,20.4592,20.4587,20.2947,20.0853,19.8376,19.5988,19.3221,18.9931,18.9135,18.7925,18.6315,18.61,18.5357,18.3693,18.3509,18.3153,18.2163,18.2976,18.3635,18.3762,18.2222,18.0943,18.0215,17.7537,17.6292,17.7157,17.7255,17.7704,17.8591,17.8753,17.9443,18.114,18.1973,18.3786,18.6759,18.8493,18.9843,19.0808,19.2359,19.3426,19.3421,19.4981,19.6066,19.6235,19.7568,19.9237,20.0575,19.9015,19.7423,19.7486,19.8124,19.8489,19.8569,19.9106,19.9606,19.9639,19.9644,19.9648,19.9723,20.0182,20.0766,20.0998,20.1516,20.2209,20.2134,20.3135,20.3902,20.453,20.5653,20.6376,20.7054,20.7209,20.5395,18.2163,18.2088,18.2088,18.2088,18.2088,18.2088,18.299,18.4116,18.2321,18.1565,18.1793,18.2018,18.2088,18.2088,18.2088,18.2088,18.2312,18.5154,18.6487,18.6636,18.9337,19.1445,19.2795,19.2866,19.3903,19.5908,19.7329,19.8376,19.9353,20.19,20.3405,20.3779,20.5035,20.5928,20.6152,20.6381,20.6237,20.5773,20.4363,20.3621,20.3629,20.2059,20.1227,20.1157,19.9661,19.7857,19.5908,19.2926,18.987,18.6654,18.5088,18.3399,18.1586,18.1212,18.0732,18.0118,18.0073,18.017,18.0298,18.0599,18.0405,17.9452,17.8133,17.6208,17.4047,17.5668,17.6791,17.6572,17.6646,17.6362,17.5365,17.5382,17.6093,17.7336,17.862,18.052,18.3199,18.5761,18.7411,18.7753,18.9794,19.0906,19.1175,19.1894,19.2469,19.2487,19.3902,19.5244,19.6918,19.466,19.2361,19.2211,19.3296,19.4122,19.4716,19.5483,19.6104,19.6179,19.6198,19.6287,19.6268,19.6642,19.6996,19.6751,19.7353,19.7443,19.7337,19.6859,19.8144,19.9371,19.974,20.0094,20.1339,20.099,19.9664,18.2088,18.2088,18.2088,18.2088,18.2088,18.2088,18.2317,18.2387,0.0,0.0,0.0,18.1565,18.2088,18.2088,18.2088,18.2088,18.2163,18.2761,18.3065,18.306,18.3658,18.4037,18.434,18.434,18.665,19.0753,19.1132,19.337,19.7254,19.7927,19.8904,20.018,20.0629,20.1451,20.2802,20.4107,20.3434,20.0848,20.0487,20.0258,20.025,19.868,19.7857,19.7777,19.6296,19.3978,19.0982,18.9038,18.6527,18.324,18.273,18.1257,17.8315,17.6841,17.4239,17.0338,16.995,17.0572,17.1993,17.3351,17.5159,17.761,17.7443,17.482,16.9109,17.266,17.4679,17.3387,17.4451,17.5668,17.6749,17.6834,17.6996,17.7224,17.7545,17.7905,17.8516,17.9177,18.0447,18.1537,18.4362,18.6461,18.7961,19.0156,19.2043,19.2046,19.2069,19.2855,19.309,19.2389,19.1458,19.1557,19.1996,19.2504,19.2585,19.2945,19.2865,19.3188,19.3109,19.2894,19.3127,19.4094,19.4907,19.4994,19.6114,19.6654,19.6871,19.6675,19.703,19.731,19.7361,19.744,19.7529,19.5717,19.3748,17.9686,17.9686,17.9691,17.9167,0.0,17.9313,17.8723,17.7161,17.6322,17.6463,17.7364,17.8939,17.9695,17.9691,17.9691,17.9691,17.9766,18.0592,18.0966,18.1041,18.1789,18.2088,18.2088,18.2088,18.3434,18.5752,18.6654,18.829,19.0683,19.2398,19.4043,19.5698,19.6591,19.7787,19.9353,20.0199,19.9381,19.6969,19.6934,19.7009,19.689,19.5315,19.4417,19.4422,19.2852,0.0,0.0,0.0,0.0,0.0,0.0,0.0,0.0,0.0,0.0,16.6425,16.3837,16.2118,16.1307,16.2719,16.4688,16.7129,16.8883,16.8001,16.3945,16.8944,17.2304,17.2452,17.3121,17.3607,17.3521,17.3572,17.3908,17.4664,17.4813,17.5514,17.7052,17.802,17.8924,17.9861,18.1246,18.2827,18.443,18.5551,18.6441,18.7997,18.8979,18.9818,19.0431,18.8641,18.7454,18.8184,18.9523,19.0765,19.0869,19.1399,19.2039,19.2015,19.2066,19.1996,19.2024,19.2716,19.3305,19.3366,19.3889,19.4469,19.4463,19.4495,19.4402,19.4426,19.4487,19.3795,19.1025,18.9478,18.8551,17.7285,17.7285,17.7285,17.6317,17.4818,17.5869,17.4303,17.1174,17.3027,17.3468,17.3102,17.4668,17.542,17.542,17.5723,17.5877,17.5943,17.7601,17.8573,17.8943,18.0139,18.0892,18.1195,18.1191,18.134,18.1789,18.3065,18.3892,18.4265,18.6874,18.8963,19.0688,19.2038,19.3604,19.538,0.0,0.0,0.0,19.2875,19.273,19.2641,19.1066,19.0164,19.0169,18.8818,0.0,18.5818,18.3131,18.083,17.8977,17.783,0.0,0.0,0.0,0.0,0.0,0.0,0.0,0.0,0.0,0.0,0.0,15.7143,15.8235,15.8353,16.4161,16.872,17.0418,17.1157,17.093,16.9649,16.9515,17.0065,17.1361,17.1842,17.283,17.5087,17.6858,17.8131,17.8372,17.8617,17.9567,18.1389,18.0939,18.1423,18.401,18.5396,18.672,18.7904,18.4753,18.2818,18.4031,18.6324,18.8014,18.812,18.9038,18.9539,19.0153,19.018,18.996,18.9779,18.9929,19.0056,18.9992,19.0132,19.0085,19.0105,19.0203,18.996,19.0092,19.0087,18.8947,18.5052,18.4256,18.4616,17.7285,17.7285,17.7285,17.6317,17.466,17.3559,17.0348,16.6152,16.9143,16.8919,16.6372,16.7939,16.862,16.8694,17.019,17.0792,17.0942,17.2591,17.4082,17.5341,17.5561,17.6463,17.7892,17.7896,17.8719,18.0069,18.0289,18.1116,18.2471,18.2836,18.3966,18.5537,18.5845,18.7402,19.0309,18.9108,18.836,18.8136,18.6661,18.5918,18.5911,18.4265,18.3438,18.3438,18.321,18.2312,18.0817,18.0368,17.8622,17.5668,17.6595,17.5282,17.0969,16.4738,15.7852,0.0,14.2598,0.0,0.0,0.0,0.0,0.0,0.0,0.0,0.0,15.7484,16.2035,16.3808,16.6488,16.8231,16.821,16.8171,16.8185,16.8199,16.9459,16.9849,16.8866,17.0116,17.174,17.3222,17.4598,17.6626,17.9571,18.1182,18.1842,18.2382,18.2585,18.269,18.2989,18.2399,18.1912,18.2383,18.2831,18.3569,18.3575,18.3513,18.3758,18.3626,18.3931,18.3416,18.3794,18.3701,18.3617,18.3604,18.3903,18.371,18.3438,18.3606,18.3579,18.3877,18.3864,18.3451,18.273,18.2515,18.2544,17.5349,17.461,17.461,17.3031,17.063,17.0942,16.8777,16.5251,16.7498,16.7199,16.5018,16.577,16.6526,16.7344,16.727,16.7652,16.847,16.8403,16.9671,17.1985,17.2063,17.2961,17.4606,17.5495,17.6238,17.699,17.7967,17.8266,17.8037,17.8041,17.9396,18.1943,18.1943,18.1785,18.1406,18.2453,18.3966,18.5713,18.507,18.4234,18.3289,18.2541,18.2088,18.2088,18.2088,18.1419,17.9845,17.8939,17.7272,17.4899,17.4655,17.188,16.6038,15.8704,14.9723,0.0,0.0,0.0,0.0,0.0,0.0,0.0,0.0,0.0,0.0,0.0,15.5418,15.703,16.177,16.4198,16.2837,16.2427,16.2334,16.2317,16.2174,16.216,16.2203,16.443,16.6195,16.7024,16.9256,17.208,17.5311,17.6434,17.7806,18.0516,17.868,17.7419,17.8349,17.8366,17.8956,18.0791,18.0914,18.112,18.2065,18.2158,18.2106,18.2158,18.2132,18.2145,18.2097,18.2088,18.215,18.2101,18.2088,18.2119,18.2136,18.2091,18.2149,18.1947,18.1164,18.0579,18.1048,18.1151,18.1393,17.2284,17.1025,16.8632,16.6459,16.4578,16.5857,16.5404,16.3905,16.4727,16.4133,16.2704,16.3082,16.3086,16.2638,16.1441,16.2039,16.3834,16.383,16.5633,16.8698,16.9525,17.0576,17.1847,17.3031,17.3621,17.37,17.527,17.527,17.3696,17.3999,17.5349,17.7298,17.6255,17.4755,17.3177,17.6322,17.9422,18.2241,18.3095,18.2691,18.1037,18.0966,18.0962,18.0966,18.0966,18.0443,17.9242,17.7971,17.6305,17.4248,17.1968,16.7442,16.0469,15.0892,0.0,0.0,0.0,0.0,0.0,0.0,0.0,0.0,0.0,11.9838,12.4448,0.0,14.6636,0.0,15.5526,15.9538,15.8677,15.7226,0.0,0.0,15.3694,15.2747,15.3843,15.6424,15.8608,15.9882,16.318,16.6743,17.0489,17.1652,17.3637,17.7478,17.5231,17.3605,17.4906,17.5194,17.6201,17.8005,17.8293,17.8646,17.9572,18.0218,18.0526,18.1061,18.0986,18.1061,18.1065,18.114,18.1123,18.1138,18.1199,18.1305,18.1207,18.1294,18.0996,17.9904,17.8523,17.7603,17.8431,17.9066,17.9597,16.7872,16.6971,15.7938,15.4865,15.6054,15.6199,15.7852,16.0256,15.8974,15.7474,15.6054,15.7553,15.4939,14.9331,14.9185,0.0,15.3978,15.8391,16.2114,16.5475,16.8549,16.997,17.0049,17.0198,17.0273,17.0348,17.2001,17.1918,17.0422,17.1852,17.1997,17.0568,16.6164,16.5263,16.8017,17.1245,17.3817,17.5583,17.8599,17.9396,17.7742,17.7668,17.7672,17.7668,17.7663,17.7668,17.7518,17.7294,17.5873,17.2666,16.8096,16.1901,15.3605,0.0,0.0,0.0,0.0,0.0,0.0,0.0,0.0,0.0,0.0,0.0,0.0,0.0,0.0,0.0,14.6499,0.0,15.8682,15.4876,0.0,0.0,0.0,14.2448,14.2312,14.3866,14.6753,15.1266,0.0,0.0,16.5551,16.8765,17.1307,17.3099,17.3375,17.3403,17.3554,17.4863,17.5544,17.4369,17.3947,17.3876,17.4402,17.5163,17.6347,17.7764,17.7905,17.7794,17.8093,17.8138,17.8221,17.8152,17.8608,17.8879,17.8928,17.8738,17.77,17.4091,17.3454,17.3543,17.3897,17.5211,17.6426,15.5609,14.6258,14.237,14.1099,14.1993,14.4919,14.806,15.1118,15.2546,15.1653,14.9174,14.8872,14.5062,13.8777,13.7744,0.0,0.0,0.0,15.0535,15.756,15.9871,16.2567,16.5491,16.7431,16.7872,16.7124,16.9675,16.9006,16.5412,16.7132,16.2118,15.083,0.0,0.0,15.4109,16.1299,16.718,17.1816,17.6073,17.8503,17.8753,17.7826,17.6841,17.579,17.6766,17.6762,17.579,17.4826,17.1914,16.6641,16.0757,15.1519,0.0,0.0,0.0,0.0,0.0,0.0,0.0,0.0,0.0,0.0,0.0,9.8382,10.1787,0.0,0.0,0.0,13.0934,13.8606,14.6728,14.6396,0.0,0.0,0.0,0.0,0.0,0.0,0.0,13.8773,14.7099,15.4761,16.0437,16.3573,16.5941,16.7422,16.7795,16.8262,16.938,0.0,17.2349,17.3566,17.2753,17.2319,17.3163,17.2913,17.2795,17.353,17.4101,17.4637,17.4778,17.4667,17.46,17.4496,17.389,17.3673,17.4705,17.4108,17.2844,17.1402,17.1132,17.1532,17.2201,17.2093,17.2525,13.9756,0.0,0.0,0.0,0.0,13.1085,13.527,13.9678,14.1629,14.1105,13.8777,13.7652,0.0,0.0,0.0,0.0,0.0,0.0,14.0963,14.7843,15.3814,15.7635,15.9737,16.2043,16.2567,16.1516,16.2342,16.0776,15.6891,15.4259,14.5735,13.1761,0.0,0.0,0.0,0.0,15.9708,16.6321,17.2645,17.6712,17.8321,17.7161,17.5943,17.4813,17.5939,17.6018,17.4813,17.1839,16.7222,16.0573,15.1352,0.0,0.0,0.0,0.0,0.0,0.0,0.0,0.0,0.0,0.0,0.0,0.0,0.0,0.0,0.0,0.0,0.0,0.0,0.0,13.3943,13.736,13.7647,0.0,0.0,0.0,0.0,0.0,0.0,0.0,0.0,0.0,15.0942,15.5473,15.9518,0.0,0.0,16.488,16.6196,16.7642,16.9297,17.1026,17.0096,0.0,17.0144,16.949,16.9031,16.9484,17.0793,17.1585,17.1118,17.0053,16.9169,16.8605,16.8425,16.7344,16.5081,16.323,16.258,16.3185,16.3723,16.4442,16.5226,16.4999,16.515,0.0,0.0,0.0,0.0,0.0,0.0,0.0,0.0,12.4571,12.3895,0.0,12.3521,0.0,0.0,0.0,0.0,11.7021,12.9213,0.0,0.0,15.1873,15.7265,15.2931,15.2857,15.2931,15.2711,14.8206,14.5058,14.2513,13.0474,0.0,0.0,0.0,0.0,0.0,0.0,15.1415,15.8188,16.7728,17.3351,17.4922,17.4901,17.4813,17.4739,17.4813,17.4743,17.444,16.8387,16.2141,15.5389,13.9776,0.0,0.0,0.0,0.0,0.0,0.0,0.0,0.0,0.0,0.0,0.0,0.0,0.0,0.0,0.0,0.0,0.0,0.0,0.0,0.0,12.8855,0.0,0.0,0.0,0.0,0.0,0.0,0.0,0.0,0.0,0.0,13.5467,14.3921,15.253,15.8445,0.0,0.0,0.0,0.0,16.6822,16.5298,16.4884,16.4291,16.2708,16.346,16.4755,16.6216,0.0,0.0,16.7009,16.3959,16.1103,15.9719,16.1984,16.0635,14.7187,14.4854,14.5332,14.6851,14.8749,14.9888,15.0116,15.1711,15.3457,0.0,0.0,0.0,0.0,0.0,0.0,0.0,0.0,0.0,10.9614,0.0,10.6326,0.0,0.0,0.0,0.0,0.0,0.0,0.0,0.0,13.2279,13.7303,13.9755,13.9784,13.9186,0.0,13.538,12.6527,0.0,0.0,0.0,0.0,0.0,0.0,0.0,0.0,14.5617,15.4336,16.5216,17.2068,17.4602,17.3783,17.3704,17.4664,17.3779,17.1241,16.6908,15.9426,15.0353,0.0,0.0,0.0,0.0,0.0,0.0,0.0,0.0,0.0,0.0,0.0,0.0,0.0,0.0,0.0,0.0,0.0,0.0,0.0,0.0,0.0,0.0,0.0,12.5585,0.0,0.0,0.0,0.0,0.0,0.0,0.0,0.0,0.0,12.4973,13.4711,14.3813,14.927,15.39,15.7545,15.9671,0.0,0.0,0.0,0.0,0.0,0.0,0.0,16.0747,15.9041,15.9412,15.8845,15.5785,15.1406,14.8045,14.7473,0.0,0.0,13.2055,13.1588,13.3639,13.5309,13.6221,13.7056,13.8195,13.8954,14.0321,0.0,0.0,0.0,0.0,0.0,0.0,0.0,0.0,0.0,9.2038,9.0767,0.0,0.0,0.0,0.0,0.0,0.0,0.0,0.0,0.0,0.0,0.0,12.5425,12.5553,0.0,0.0,0.0,0.0,0.0,0.0,0.0,0.0,0.0,0.0,0.0,0.0,13.9987,14.9488,16.2346,17.0414,17.3023,17.2666,17.289,17.3925,17.2969,16.901,16.1831,0.0,0.0,0.0,0.0,0.0,0.0,0.0,0.0,0.0,0.0,0.0,0.0,0.0,0.0,0.0,0.0,0.0,0.0,0.0,0.0,0.0,0.0,0.0,0.0,0.0,11.716,0.0,0.0,0.0,0.0,0.0,0.0,0.0,0.0,0.0,0.0,0.0,13.3867,14.0017,14.6092,15.1103,15.452,15.7844,16.0944,0.0,0.0,0.0,0.0,0.0,0.0,0.0,0.0,0.0,0.0,0.0,0.0,0.0,0.0,12.2833,11.6153,11.7238,11.944,12.0579,0.0,0.0,0.0,0.0,0.0,0.0,0.0,0.0,0.0,0.0,0.0,0.0,0.0,0.0,0.0,7.0954,0.0,0.0,6.6261,0.0,0.0,0.0,0.0,0.0,0.0,0.0,0.0,0.0,0.0,0.0,0.0,0.0,0.0,0.0,0.0,0.0,0.0,0.0,0.0,0.0,0.0,13.4603,14.3111,15.919,16.825,17.0049,17.1478,17.2304,17.2375,17.223,16.8187,15.9725,0.0,0.0,0.0,0.0,0.0,0.0,0.0,0.0,0.0,0.0,0.0,0.0,0.0,0.0,0.0,0.0,0.0,0.0,0.0,0.0,0.0,0.0,0.0,0.0,0.0,0.0,11.4504,11.944,11.9739,0.0,0.0,0.0,0.0,0.0,0.0,0.0,0.0,0.0,13.1133,13.9486,14.6016,14.9433,15.2774,15.5507,15.7254,15.5963,15.49,15.5052,15.3533,15.1787,0.0,0.0,0.0,0.0,0.0,0.0,0.0,0.0,0.0,0.0,0.0,0.0,0.0,0.0,0.0,0.0,0.0,0.0,0.0,0.0,0.0,0.0,0.0,0.0,0.0,0.0,0.0,0.0,0.0,0.0,0.0,0.0,0.0,0.0,0.0,0.0,0.0,0.0,0.0,0.0,0.0,0.0,0.0,0.0,0.0,0.0,0.0,0.0,0.0,0.0,0.0,0.0,0.0,0.0,13.4005,14.4457,15.8521,16.7648,17.1548,16.982,16.9446,17.0501,16.7294,16.0481,0.0,0.0,0.0,0.0,0.0,0.0,0.0,0.0,0.0,0.0,0.0,0.0,0.0,0.0,0.0,0.0,0.0,0.0,0.0,0.0,0.0,0.0,0.0,0.0,0.0,0.0,0.0,0.0,11.8073,11.9816,11.3243,0.0,0.0,0.0,0.0,0.0,0.0,0.0,0.0,0.0,0.0,13.8347,14.3966,14.8597,15.209,15.3837,15.2622,15.1938,15.3077,15.1862,14.8977,14.3814,0.0,0.0,0.0,0.0,0.0,0.0,0.0,0.0,0.0,0.0,0.0,0.0,0.0,0.0,0.0,0.0,0.0,0.0,0.0,0.0,0.0,0.0,0.0,0.0,0.0,0.0,0.0,0.0,0.0,0.0,0.0,0.0,0.0,0.0,0.0,0.0,0.0,0.0,0.0,0.0,0.0,0.0,0.0,0.0,0.0,0.0,0.0,0.0,0.0,0.0,0.0,0.0,0.0,13.1472,14.2373,15.7306,16.6506,16.9376,16.8773,16.8549,16.8927,16.3543,15.4865,0.0,0.0,0.0,0.0,0.0,0.0,0.0,0.0,0.0,0.0,0.0,0.0,0.0,0.0,0.0,0.0,0.0,0.0,0.0,0.0,0.0,0.0,0.0,0.0,0.0,0.0,0.0,0.0,11.0708,11.4883,11.274,0.0,0.0,0.0,0.0,0.0,0.0,0.0,0.0,0.0,0.0,13.2804,13.8802,14.4421,0.0,0.0,14.8218,14.799,15.0268,14.9205,14.5788,13.9182,13.2804,0.0,0.0,0.0,0.0,0.0,0.0,0.0,0.0,0.0,0.0,0.0,0.0,0.0,0.0,0.0,0.0,0.0,0.0,0.0,0.0,0.0,0.0,0.0,0.0,0.0,0.0,0.0,0.0,0.0,0.0,0.0,0.0,0.0,0.0,0.0,0.0,0.0,0.0,0.0,0.0,0.0,0.0,0.0,0.0,0.0,0.0,0.0,0.0,0.0,0.0,0.0,0.0,0.0,13.7825,15.5642,16.4904,16.5172,16.8021,16.8773,16.6971,16.041,15.0617,0.0,0.0,0.0,0.0,0.0,0.0,0.0,0.0,0.0,0.0,0.0,0.0,0.0,0.0,0.0,0.0,0.0,0.0,0.0,0.0,0.0,0.0,0.0,0.0,0.0,0.0,0.0,0.0,0.0,0.0,0.0,0.0,0.0,0.0,0.0,0.0,0.0,0.0,0.0,0.0,0.0,12.8779,13.3715,14.0093,14.4345,0.0,14.3054,14.313,14.6395,14.556,14.2219,13.5461,0.0,0.0,0.0,0.0,0.0,0.0,0.0,0.0,0.0,0.0,0.0,0.0,0.0,0.0,0.0,0.0,0.0,0.0,0.0,0.0,0.0,0.0,0.0,0.0,0.0,0.0,0.0,0.0,0.0,0.0,0.0,0.0,0.0,0.0,0.0,0.0,0.0,0.0,0.0,0.0,0.0,0.0,0.0,0.0,0.0,0.0,0.0,0.0,0.0,0.0,0.0,0.0,0.0,0.0,13.614,15.3896,16.372,16.5026,16.5849,16.5479,16.3621,15.3838,0.0,0.0,0.0,0.0,0.0,0.0,0.0,0.0,0.0,0.0,0.0,0.0,0.0,0.0,0.0,0.0,0.0,0.0,0.0,0.0,0.0,0.0,0.0,0.0,0.0,0.0,0.0,7.2135,0.0,0.0,0.0,0.0,0.0,0.0,0.0,0.0,0.0,0.0,0.0,0.0,0.0,0.0,12.3692,12.8628,13.4095,13.7967,0.0,0.0,13.7511,13.9638,13.9562,13.6676,0.0,0.0,0.0,0.0,0.0,0.0,0.0,0.0,0.0,0.0,0.0,0.0,0.0,0.0,0.0,0.0,0.0,0.0,0.0,0.0,0.0,0.0,0.0,0.0,0.0,0.0,0.0,0.0,0.0,0.0,0.0,0.0,0.0,0.0,0.0,0.0,0.0,0.0,0.0,0.0,0.0,0.0,0.0,0.0,0.0,0.0,0.0,0.0,0.0,0.0,0.0,0.0,0.0,0.0,12.3329,13.4814,15.0314,16.0253,16.4042,16.4188,16.3374,16.1669,15.1311,13.9886,0.0,0.0,0.0,0.0,0.0,0.0,0.0,0.0,0.0,0.0,0.0,0.0,0.0,0.0,0.0,0.0,0.0,0.0,0.0,0.0,0.0,0.0,0.0,0.0,0.0,0.0,0.0,0.0,0.0,0.0,0.0,0.0,0.0,0.0,0.0,0.0,0.0,0.0,0.0,0.0,0.0,0.0,12.4679,12.9007,0.0,0.0,0.0,13.2272,13.4019,0.0,0.0,0.0,0.0,0.0,0.0,0.0,0.0,0.0,0.0,0.0,0.0,0.0,0.0,0.0,0.0,0.0,0.0,0.0,0.0,0.0,0.0,0.0,0.0,0.0,0.0,0.0,0.0,0.0,0.0,0.0,0.0,0.0,0.0,0.0,0.0,0.0,0.0,0.0,0.0,0.0,0.0,0.0,0.0,0.0,0.0,0.0,0.0,0.0,0.0,0.0,0.0,0.0,0.0,0.0,0.0,0.0,13.2481,14.5742,15.5692,16.191,16.2291,16.1559,15.9946,15.0553,13.934,0.0,0.0,0.0,0.0,0.0,0.0,0.0,0.0,0.0,0.0,0.0,0.0,0.0,0.0,0.0,0.0,0.0,0.0,0.0,0.0,0.0,0.0,0.0,0.0,0.0,0.0,0.0,0.0,0.0,0.0,0.0,0.0,0.0,0.0,0.0,0.0,0.0,0.0,0.0,0.0,0.0,11.6023,12.0883,12.3996,12.4831,0.0,0.0,12.6805,12.8855,12.8855,0.0,0.0,0.0,0.0,0.0,0.0,0.0,0.0,0.0,0.0,0.0,0.0,0.0,0.0,0.0,0.0,0.0,0.0,0.0,0.0,0.0,0.0,0.0,0.0,0.0,0.0,0.0,0.0,0.0,0.0,0.0,0.0,0.0,0.0,0.0,0.0,0.0,0.0,0.0,0.0,0.0,0.0,0.0,0.0,0.0,0.0,0.0,0.0,0.0,0.0,0.0,0.0,0.0,0.0,0.0,0.0,12.5976,14.1517,15.2158,15.7395,15.7635,15.7319,15.654,14.7244,13.6386,0.0,0.0,0.0,0.0,0.0,0.0,0.0,0.0,0.0,0.0,0.0,0.0,0.0,0.0,0.0,0.0,0.0,0.0,0.0,0.0,0.0,0.0,0.0,0.0,0.0,0.0,0.0,0.0,0.0,0.0,0.0,0.0,0.0,0.0,0.0,0.0,0.0,0.0,0.0,0.0,0.0,11.086,11.5795,11.5947,0.0,0.0,0.0,0.0,12.3312,12.1718,0.0,0.0,0.0,0.0,0.0,0.0,0.0,0.0,0.0,0.0,0.0,0.0,0.0,0.0,0.0,0.0,0.0,0.0,0.0,0.0,0.0,0.0,0.0,0.0,0.0,0.0,0.0,0.0,0.0,0.0,0.0,0.0,0.0,0.0,0.0,0.0,0.0,0.0,0.0,0.0,0.0,0.0,0.0,0.0,0.0,0.0,0.0,0.0,0.0,0.0,0.0,0.0,0.0,0.0,0.0,0.0,12.3865,13.6534,14.7113,15.558,15.4684,15.3771,15.3371,14.5652,13.5571,0.0,0.0,0.0,0.0,0.0,0.0,0.0,0.0,0.0,0.0,0.0,0.0,0.0,0.0,0.0,0.0,0.0,0.0,0.0,0.0,0.0,0.0,0.0,0.0,0.0,0.0,0.0,0.0,0.0,0.0,0.0,0.0,0.0,0.0,0.0,0.0,0.0,0.0,0.0,0.0,9.6509,10.1824,10.6076,0.0,0.0,0.0,0.0,0.0,0.0,11.534,11.2075,0.0,0.0,0.0,0.0,0.0,0.0,0.0,0.0,0.0,0.0,0.0,0.0,0.0,0.0,0.0,0.0,0.0,0.0,0.0,0.0,0.0,0.0,0.0,0.0,0.0,0.0,0.0,0.0,0.0,0.0,0.0,0.0,0.0,0.0,0.0,0.0,0.0,0.0,0.0,0.0,0.0,0.0,0.0,0.0,0.0,0.0,0.0,0.0,0.0,0.0,0.0,0.0,0.0,0.0,0.0,12.1659,13.0882,14.1369,15.3103,15.1709,15.0714,15.037,14.4276,13.4682,12.1479,0.0,0.0,0.0,0.0,0.0,0.0,0.0,0.0,0.0,0.0,0.0,0.0,0.0,0.0,0.0,0.0,0.0,0.0,0.0,0.0,0.0,0.0,0.0,0.0,0.0,0.0,0.0,0.0,0.0,0.0,0.0,0.0,0.0,0.0,0.0,0.0,0.0,0.0,0.0,8.8384,9.2105,0.0,0.0,0.0,0.0,0.0,0.0,0.0,0.0,10.4785,0.0,0.0,0.0,0.0,0.0,0.0,0.0,0.0,0.0,0.0,0.0,0.0,0.0,0.0,0.0,0.0,0.0,0.0,0.0,0.0,0.0,0.0,0.0,0.0,0.0,0.0,0.0,0.0,0.0,0.0,0.0,0.0,0.0,0.0,0.0,0.0,0.0,0.0,0.0,0.0,0.0,0.0,0.0,0.0,0.0,0.0,0.0,0.0,0.0,0.0,0.0,0.0,0.0,0.0,0.0,0.0,12.4502,13.5302,14.4144,14.6882,14.7944,14.7568,14.1242,13.091,11.6517,0.0,0.0,0.0,0.0,0.0,0.0,0.0,0.0,0.0,0.0,0.0,0.0,0.0,0.0,0.0,0.0,0.0,0.0,0.0,0.0,0.0,0.0,0.0,0.0,0.0,0.0,0.0,0.0,0.0,0.0,0.0,0.0,0.0,0.0,0.0,0.0,0.0,0.0,7.3805,8.0107,0.0,0.0,0.0,0.0,0.0,0.0,0.0,0.0,9.7192,0.0,0.0,0.0,0.0,0.0,0.0,0.0,0.0,0.0,0.0,0.0,0.0,0.0,0.0,0.0,0.0,0.0,0.0,0.0,0.0,0.0,0.0,0.0,0.0,0.0,0.0,0.0,0.0,0.0,0.0,0.0,0.0,0.0,0.0,0.0,0.0,0.0,0.0,0.0,0.0,0.0,0.0,0.0,0.0,0.0,0.0,0.0,0.0,0.0,0.0,0.0,0.0,0.0,0.0,0.0,0.0,0.0,0.0,13.021,13.8942,14.271,14.404,14.2723,13.4061,12.3957,0.0,0.0,0.0,0.0,0.0,0.0,0.0,0.0,0.0,0.0,0.0,0.0,0.0,0.0,0.0,0.0,0.0,0.0,0.0,0.0,0.0,0.0,0.0,0.0,0.0,0.0,0.0,0.0,0.0,0.0,0.0,0.0,0.0,0.0,0.0,0.0,0.0,0.0,0.0,0.0,0.0,0.0,0.0,0.0,0.0,0.0,0.0,0.0,0.0,0.0,0.0,0.0,0.0,0.0,0.0,0.0,0.0,0.0,0.0,0.0,0.0,0.0,0.0,0.0,0.0,0.0,0.0,0.0,0.0,0.0,0.0,0.0,0.0,0.0,0.0,0.0,0.0,0.0,0.0,0.0,0.0,0.0,0.0,0.0,0.0,0.0,0.0,0.0,0.0,0.0,0.0,0.0,0.0,0.0,0.0,0.0,0.0,0.0,0.0,0.0,0.0,0.0,0.0,0.0,0.0,0.0,0.0,0.0,12.4857,13.3094,13.8328,14.0172,13.8422,12.7014,11.666,0.0,0.0,0.0,0.0,0.0,0.0,0.0,0.0,0.0,0.0,0.0,0.0,0.0,0.0,0.0,0.0,0.0,0.0,0.0,0.0,0.0,0.0,0.0,0.0,0.0,0.0,0.0,0.0,0.0,0.0,0.0,0.0,0.0,0.0,0.0,0.0,0.0,0.0,0.0,0.0,0.0,0.0,0.0,0.0,0.0,0.0,0.0,0.0,8.4815,0.0,0.0,0.0,0.0,0.0,0.0,0.0,0.0,0.0,0.0,0.0,0.0,0.0,0.0,0.0,0.0,0.0,0.0,0.0,0.0,0.0,0.0,0.0,0.0,0.0,0.0,0.0,0.0,0.0,0.0,0.0,0.0,0.0,0.0,0.0,0.0,0.0,0.0,0.0,0.0,0.0,0.0,0.0,0.0,0.0,0.0,0.0,0.0,0.0,0.0,0.0,0.0,0.0,0.0,0.0,0.0,0.0,0.0,0.0,11.8377,12.3844,13.3014,13.7056,13.5082,12.2705,11.0549,0.0,0.0,0.0,0.0,0.0,0.0,0.0,0.0,0.0,0.0,0.0,0.0,0.0,0.0,0.0,0.0,0.0,0.0,0.0,0.0,0.0,0.0,0.0,0.0,0.0,0.0,0.0,0.0,0.0,0.0,0.0,0.0,0.0,0.0,0.0,0.0,0.0,0.0,0.0,0.0,0.0,0.0,0.0,0.0,0.0,0.0,0.0,0.0,0.0,0.0,0.0,0.0,0.0,0.0,0.0,0.0,0.0,0.0,0.0,0.0,0.0,0.0,0.0,0.0,0.0,0.0,0.0,0.0,0.0,0.0,0.0,0.0,0.0,0.0,0.0,0.0,0.0,0.0,0.0,0.0,0.0,0.0,0.0,0.0,0.0,0.0,0.0,0.0,0.0,0.0,0.0,0.0,0.0,0.0,0.0,0.0,0.0,0.0,0.0,0.0,0.0,0.0,0.0,0.0,0.0,0.0,0.0,0.0,11.01,11.8073,12.6046,12.6653,11.9212,10.9873,10.076,0.0,0.0,0.0,0.0,0.0,0.0,0.0,0.0,0.0,0.0,0.0,0.0,0.0,0.0,0.0,0.0,0.0,0.0,0.0,0.0,0.0,0.0,0.0,0.0,0.0,0.0,0.0,0.0,0.0,0.0,0.0,0.0,0.0,0.0,0.0,0.0,0.0,0.0,0.0,0.0,0.0,0.0,0.0,0.0,0.0,0.0,0.0,0.0,0.0,0.0,0.0,0.0,0.0,0.0,0.0,0.0,0.0,0.0,0.0,0.0,0.0,0.0,0.0,0.0,0.0,0.0,0.0,0.0,0.0,0.0,0.0,0.0,0.0,0.0,0.0,0.0,0.0,0.0,0.0,0.0,0.0,0.0,0.0,0.0,0.0,0.0,0.0,0.0,0.0,0.0,0.0,0.0,0.0,0.0,0.0,0.0,0.0,0.0,0.0,0.0,0.0,0.0,0.0,0.0,0.0,0.0,0.0,0.0,0.0,11.0784,11.4201,11.1695,10.3191,9.7268,9.1117,0.0,0.0,0.0,0.0,0.0,0.0,0.0,0.0,0.0,0.0,0.0,0.0,0.0,0.0,0.0,0.0,0.0,0.0,0.0,0.0,0.0,0.0,0.0,0.0,0.0,0.0,0.0,0.0,0.0,0.0,0.0,0.0,0.0,0.0,0.0,0.0,0.0,0.0,0.0,0.0,0.0,0.0,0.0,0.0,0.0,0.0,0.0,0.0,0.0,0.0,0.0,0.0,0.0,0.0,0.0,0.0,0.0,0.0,0.0,0.0,0.0,0.0,0.0,0.0,0.0,0.0,0.0,0.0,0.0,0.0,0.0,0.0,0.0,0.0,0.0,0.0,0.0,0.0,0.0,0.0,0.0,0.0,0.0,0.0,0.0,0.0,0.0,0.0,0.0,0.0,0.0,0.0,0.0,0.0,0.0,0.0,0.0,0.0,0.0,0.0,0.0,0.0,0.0,0.0,0.0,0.0,0.0,0.0,0.0,10.0609,9.499,9.1725,9.089,8.7473,8.2537,0.0,0.0,0.0,0.0,0.0,0.0,0.0,0.0,0.0,0.0,0.0,0.0,0.0,0.0,0.0,0.0,0.0,0.0,0.0,0.0,0.0,0.0,0.0,0.0,0.0,0.0,0.0,0.0,0.0,0.0,0.0,0.0,0.0,0.0,0.0,0.0,0.0,0.0,0.0,0.0,0.0,0.0,0.0,0.0,0.0,0.0,0.0,0.0,0.0,0.0,0.0,0.0,0.0,0.0,0.0,0.0,0.0,0.0,0.0,0.0,0.0,0.0,0.0,0.0,0.0,0.0,0.0,0.0,0.0,0.0,0.0,0.0,0.0,0.0,0.0,0.0,0.0,0.0,0.0,0.0,0.0,0.0,0.0,0.0,0.0,0.0,0.0,0.0,0.0,0.0,0.0,0.0,0.0,0.0,0.0,0.0,0.0,0.0,0.0,0.0,0.0,0.0,0.0,0.0,0.0,0.0,0.0,0.0,0.0,8.2537,8.0259,7.9044,7.9044,7.6766,7.2894,6.7427,0.0,0.0,0.0,0.0,0.0,0.0,0.0,0.0,0.0,0.0,0.0,0.0,0.0,0.0,0.0,0.0,0.0,0.0,0.0,0.0,0.0,0.0,0.0,0.0,0.0,0.0,0.0,0.0,0.0,0.0,0.0,0.0,0.0,0.0,0.0,0.0,0.0,0.0,0.0,0.0,0.0,0.0,0.0,0.0,0.0,0.0,0.0,0.0,0.0,0.0,0.0,0.0,0.0,0.0,0.0,0.0,0.0,0.0,0.0,0.0,0.0,0.0,0.0,0.0,0.0,0.0,0.0,0.0,0.0,0.0,0.0,0.0,0.0,0.0,0.0,0.0,0.0,0.0,0.0,0.0,0.0,0.0,0.0,0.0,0.0,0.0,0.0,0.0,0.0,0.0,0.0,0.0,0.0,0.0,0.0,0.0,0.0,0.0,0.0,0.0,0.0,0.0,0.0,0.0,0.0,0.0,0.0,0.0,7.016,7.016,7.016,7.0085,6.8034,6.5301,0.0,0.0,0.0,0.0,0.0,0.0,0.0,0.0,0.0,0.0,0.0,0.0,0.0,0.0,0.0,0.0,0.0,0.0,0.0,0.0,0.0,0.0,0.0,0.0,0.0,0.0,0.0,0.0,0.0,0.0,0.0,0.0,0.0,0.0,0.0,0.0,0.0,0.0,0.0,0.0,0.0,0.0,0.0,0.0,0.0,0.0,0.0,0.0,0.0,0.0,0.0,0.0,0.0,0.0,0.0,0.0,0.0,0.0,0.0,0.0,0.0,0.0,0.0,0.0,0.0,0.0,0.0,0.0,0.0,0.0,0.0,0.0,0.0,0.0,0.0,0.0,0.0,0.0,0.0,0.0,0.0,0.0,0.0,0.0,0.0,0.0,0.0,0.0,0.0,0.0,0.0,0.0,0.0,0.0,0.0,0.0,0.0,0.0,0.0,0.0,0.0,0.0,0.0,0.0,0.0,0.0,0.0,0.0,6.1884,6.4845,6.4997,6.4997,6.4845,6.196,6.0138,0.0,0.0,0.0,0.0,0.0,0.0,0.0,0.0,0.0,0.0,0.0,0.0,0.0,0.0,0.0,0.0,0.0,0.0,0.0,0.0,0.0,0.0,0.0,0.0,0.0,0.0,0.0,0.0,0.0,0.0,0.0,0.0,0.0,0.0,0.0,0.0,0.0,0.0,0.0,0.0,0.0,0.0,0.0,0.0,0.0,0.0,0.0,0.0,0.0,0.0,0.0,0.0,0.0,0.0,0.0,0.0,0.0,0.0,0.0,0.0,0.0,0.0,0.0,0.0,0.0,0.0,0.0,0.0,0.0,0.0,0.0,0.0,0.0,0.0,0.0,0.0,0.0,0.0,0.0,0.0,0.0,0.0,0.0,0.0,0.0,0.0,0.0,0.0,0.0,0.0,0.0,0.0,0.0,0.0,0.0,0.0,0.0,0.0,0.0,0.0,0.0,0.0,0.0,0.0,0.0,0.0,0.0,0.0,0.0,5.9834,0.0,5.9986,0.0,5.7784,5.6113,0.0,0.0,0.0,0.0,0.0,0.0,0.0,0.0,0.0,0.0,0.0,0.0,0.0,0.0,0.0,0.0,0.0,0.0,0.0,0.0,0.0,0.0,0.0,0.0,0.0,0.0,0.0,0.0,0.0,0.0,0.0,0.0,0.0,0.0,0.0,0.0,0.0,0.0,0.0,0.0,0.0,0.0,0.0,0.0,0.0,0.0,0.0,0.0,0.0,0.0,0.0,0.0,0.0,0.0,0.0,0.0,0.0,0.0,0.0,0.0,0.0,0.0,0.0,0.0,0.0,0.0,0.0,0.0,0.0,0.0,0.0,0.0,0.0,0.0,0.0,0.0,0.0,0.0,0.0,0.0,0.0,0.0,0.0,0.0,0.0,0.0,0.0,0.0,0.0,0.0,0.0,0.0,0.0,0.0,0.0,0.0,0.0,0.0,0.0,0.0,0.0,0.0,0.0,0.0,0.0,0.0,0.0,0.0,0.0,5.6569,5.6645,5.6645,5.6569,5.4974,5.3607,0.0,0.0,0.0,0.0,0.0,0.0,0.0,0.0,0.0,0.0,0.0,0.0,0.0,0.0,0.0,0.0,0.0,0.0,0.0,0.0,0.0,0.0,0.0,0.0,0.0,0.0,0.0,0.0,0.0,0.0,0.0,0.0,0.0,0.0,0.0,0.0,0.0,0.0,0.0,0.0,0.0,0.0,0.0,0.0,0.0,0.0,0.0,0.0,0.0,0.0,0.0,0.0,0.0,0.0,0.0,0.0,0.0,0.0,0.0,0.0,0.0,0.0,0.0,0.0,0.0,0.0,0.0,0.0,0.0,0.0,0.0,0.0,0.0,0.0,0.0,0.0,0.0,0.0,0.0,0.0,0.0,0.0,0.0,0.0,0.0,0.0,0.0,0.0,0.0,0.0,0.0,0.0,0.0,0.0,0.0,0.0,0.0,0.0,0.0,0.0,0.0,0.0,0.0,0.0,0.0,0.0,0.0,0.0,0.0,0.0,5.4898,5.4898,5.4822,5.3228,5.2393,0.0,0.0,0.0,0.0,0.0,0.0,0.0,0.0,0.0,0.0,0.0,0.0,0.0,0.0,0.0,0.0,0.0,0.0,0.0,0.0,0.0,0.0,0.0,0.0,0.0,0.0,0.0,0.0,0.0,0.0,0.0,0.0,0.0,0.0,0.0,0.0,0.0,0.0,0.0,0.0,0.0,0.0,0.0,0.0,0.0,0.0,0.0,0.0,0.0,0.0,0.0,0.0,0.0,0.0,0.0,0.0,0.0,0.0,0.0,0.0,0.0,0.0,0.0,0.0,0.0,0.0,0.0,0.0,0.0,0.0,0.0,0.0,0.0,0.0,0.0,0.0,0.0,0.0,0.0,0.0,0.0,0.0,0.0,0.0,0.0,0.0,0.0,0.0,0.0,0.0,0.0,0.0,0.0,0.0,0.0,0.0,0.0,0.0,0.0,0.0,0.0,0.0,0.0,0.0,0.0,0.0,0.0,0.0,0.0,0.0,5.3152,0.0,5.3076,5.1557,5.0646,5.0646,0.0,0.0,0.0,0.0,0.0,0.0,0.0,0.0,0.0,0.0,0.0,0.0,0.0,0.0,0.0,0.0,0.0,0.0,0.0,0.0,0.0,0.0,0.0,0.0,0.0,0.0,0.0,0.0,0.0,0.0,0.0,0.0,0.0,0.0,0.0,0.0,0.0,0.0,0.0,0.0,0.0,0.0,0.0,0.0,0.0,0.0,0.0,0.0,0.0,0.0,0.0,0.0,0.0,0.0,0.0,0.0,0.0,0.0,0.0,0.0,0.0,0.0,0.0,0.0,0.0,0.0,0.0,0.0,0.0,0.0,0.0,0.0,0.0,0.0,0.0,0.0,0.0,0.0,0.0,0.0,0.0,0.0,0.0,0.0,0.0,0.0,0.0,0.0,0.0,0.0,0.0,0.0,0.0,0.0,0.0,0.0,0.0,0.0,0.0,0.0,0.0,0.0,0.0,0.0,0.0,0.0,0.0,0.0,0.0,0.0,0.0,5.1481,5.0494,4.9963,0.0,0.0,0.0,0.0,0.0,0.0,0.0,0.0,0.0,0.0,0.0,0.0,0.0,0.0,0.0,0.0,0.0,0.0,0.0,0.0,0.0,0.0,0.0,0.0,0.0,0.0,0.0,0.0,0.0,0.0,0.0,0.0,0.0,0.0,0.0,0.0,0.0,0.0,0.0,0.0,0.0,0.0,0.0,0.0,0.0,0.0,0.0,0.0,0.0,0.0,0.0,0.0,0.0,0.0,0.0,0.0,0.0,0.0,0.0,0.0,0.0,0.0,0.0,0.0,0.0,0.0,0.0,0.0,0.0,0.0,0.0,0.0,0.0,0.0,0.0,0.0,0.0,0.0,0.0,0.0,0.0,0.0,0.0,0.0,0.0,0.0,0.0,0.0,0.0,0.0,0.0,0.0,0.0,0.0,0.0,0.0,0.0,0.0,0.0,0.0,0.0,0.0,0.0,0.0,0.0,0.0,0.0,0.0,0.0,0.0,0.0,4.9963,4.9963,4.9963,0.0,4.9963,0.0,0.0,0.0,0.0,0.0,0.0,0.0,0.0,0.0,0.0,0.0,0.0,0.0,0.0,0.0,0.0,0.0,0.0,0.0,0.0,0.0,0.0,0.0,0.0,0.0,0.0,0.0,0.0,0.0,0.0,0.0,0.0,0.0,0.0,0.0,0.0,0.0,0.0,0.0,0.0,0.0,0.0,0.0,0.0,0.0,0.0,0.0,0.0,0.0,0.0,0.0,0.0,0.0,0.0,0.0,0.0,0.0,0.0,0.0,0.0,0.0,0.0,0.0,0.0,0.0,0.0,0.0,0.0,0.0,0.0,0.0,0.0,0.0,0.0,0.0,0.0,0.0,0.0,0.0,0.0,0.0,0.0,0.0,0.0,0.0,0.0,0.0,0.0,0.0,0.0,0.0,0.0,0.0,0.0,0.0,0.0,0.0,0.0,0.0,0.0,0.0,0.0,0.0,0.0,0.0,0.0,0.0,0.0,0.0,0.0,0.0,0.0,4.9963,4.9963,4.9963,0.0,0.0,0.0,0.0,0.0,0.0,0.0,0.0,0.0,0.0,0.0,0.0,0.0,0.0,0.0,0.0,0.0,0.0,0.0,0.0,0.0,0.0,0.0,0.0,0.0,0.0,0.0,0.0,0.0,0.0,0.0,0.0,0.0,0.0,0.0,0.0,0.0,0.0,0.0,0.0,0.0,0.0,0.0,0.0,0.0,0.0,0.0,0.0,0.0,0.0,0.0,0.0,0.0,0.0,0.0,0.0,0.0,0.0,0.0,0.0,0.0,0.0,0.0,0.0,0.0,0.0,0.0,0.0,0.0,0.0,0.0,0.0,0.0,0.0,0.0,0.0,0.0,0.0,0.0,0.0,0.0,0.0,0.0,0.0,0.0,0.0,0.0,0.0,0.0,0.0,0.0,0.0,0.0,0.0,0.0,0.0,0.0,0.0,0.0,0.0,0.0,0.0,0.0,0.0,0.0,0.0,0.0,0.0,0.0,0.0,4.9963,4.9963,4.9963,4.9963,4.9963,0.0,0.0,0.0,0.0,0.0,0.0,0.0,0.0,0.0,0.0,0.0,0.0,0.0,0.0,0.0,0.0,0.0,0.0,0.0,0.0,0.0,0.0,0.0,0.0,0.0,0.0,0.0,0.0,0.0,0.0,0.0,0.0,0.0,0.0,0.0,0.0,0.0,0.0,0.0,0.0,0.0,0.0,0.0,0.0,0.0,0.0,0.0,0.0,0.0,0.0,0.0,0.0,0.0,0.0,0.0,0.0,0.0,0.0,0.0,0.0,0.0,0.0,0.0,0.0,0.0,0.0,0.0,0.0,0.0,0.0,0.0,0.0,0.0,0.0,0.0,0.0,0.0,0.0,0.0,0.0,0.0,0.0,0.0,0.0,0.0,0.0,0.0,0.0,0.0,0.0,0.0,0.0,0.0,0.0,0.0,0.0,0.0,0.0,0.0,0.0,0.0,0.0,0.0,0.0,0.0,0.0,0.0,0.0,0.0,0.0,0.0,0.0,0.0,0.0,4.9963,0.0,0.0,0.0,0.0,0.0,0.0,0.0,0.0,0.0,0.0,0.0,0.0,0.0,0.0,0.0,0.0,0.0,0.0,0.0,0.0,0.0,0.0,0.0,0.0,0.0,0.0,0.0,0.0,0.0,0.0,0.0,0.0,0.0,0.0,0.0,0.0,0.0,0.0,0.0,0.0,0.0,0.0,0.0,0.0,0.0,0.0,0.0,0.0,0.0,0.0,0.0,0.0,0.0,0.0,0.0,0.0,0.0,0.0,0.0,0.0,0.0,0.0,0.0,0.0,0.0,0.0,0.0,0.0,0.0,0.0,0.0,0.0,0.0,0.0,0.0,0.0,0.0,0.0,0.0,0.0,0.0,0.0,0.0,0.0,0.0,0.0,0.0,0.0,0.0,0.0,0.0,0.0,0.0,0.0,0.0,0.0,0.0,0.0,0.0,0.0,0.0,0.0,0.0,0.0,0.0,0.0,0.0,0.0,0.0,0.0,0.0,0.0,0.0,0.0,0.0,0.0,0.0,0.0,0.0,0.0,0.0,0.0,0.0,0.0,0.0,0.0,0.0,0.0,0.0,0.0,0.0,0.0,0.0,0.0,0.0,0.0,0.0,0.0,0.0,0.0,0.0,0.0,0.0,0.0,0.0,0.0,0.0,0.0,0.0,0.0,0.0,0.0,0.0,0.0,0.0,0.0,0.0,0.0,0.0,0.0,0.0,0.0,0.0,0.0,0.0,0.0,0.0,0.0,0.0,0.0,0.0,0.0,0.0,0.0,0.0,0.0,0.0,0.0,0.0,0.0,0.0,0.0,0.0,0.0,0.0,0.0,0.0,0.0,0.0,0.0,0.0,0.0,0.0,0.0,0.0,0.0,0.0,0.0,0.0,0.0,0.0,0.0,0.0,0.0,0.0,0.0,0.0,0.0,0.0,0.0,0.0,0.0,0.0,0.0,0.0,0.0,0.0,0.0,0.0,0.0,0.0,0.0,0.0,0.0,0.0,0.0,0.0,0.0,0.0,0.0,0.0,0.0,0.0,0.0,0.0,0.0,0.0,0.0,0.0,0.0,0.0,0.0,0.0,0.0,0.0,0.0,0.0,0.0,0.0,0.0,0.0,0.0,0.0,0.0,0.0,0.0,0.0,0.0,0.0,0.0,0.0,0.0,0.0,0.0,0.0,0.0,0.0,0.0,0.0,0.0,0.0,0.0,0.0,0.0,0.0,0.0,0.0,0.0,0.0,0.0,0.0,0.0,0.0,0.0,0.0,0.0,0.0,0.0,0.0,0.0,0.0,0.0,0.0,0.0,0.0,0.0,0.0,0.0,0.0,0.0,0.0,0.0,0.0,0.0,0.0,0.0,0.0,0.0,0.0,0.0,0.0,0.0,0.0,0.0,0.0,0.0,0.0,0.0,0.0,0.0,0.0,0.0,0.0,0.0,0.0,0.0,0.0,0.0,0.0,0.0,0.0,0.0,0.0,0.0,0.0,0.0,0.0,0.0,0.0,0.0,0.0,0.0,0.0,0.0,0.0,0.0,0.0,0.0,0.0,0.0,0.0,0.0,0.0,0.0,0.0,0.0,0.0,0.0,0.0,0.0,0.0,0.0,0.0,0.0,0.0,0.0,0.0,0.0,0.0,0.0,0.0,0.0,0.0,0.0,0.0,0.0,0.0,0.0,0.0,0.0,0.0,0.0,0.0,0.0,0.0,0.0,0.0,0.0,0.0,0.0,0.0,0.0,0.0,0.0,0.0,0.0,0.0,0.0,0.0,0.0,0.0,0.0,0.0,0.0,0.0,0.0,0.0,0.0,0.0,0.0,0.0,0.0,0.0,0.0,0.0,0.0,0.0,0.0,0.0,0.0,0.0,0.0,0.0,0.0,0.0,0.0,0.0,0.0,0.0,0.0,0.0,0.0,0.0,0.0,0.0,0.0,0.0,0.0,0.0,0.0,0.0,0.0,0.0,0.0,0.0,0.0,0.0,0.0,0.0,0.0,0.0,0.0,0.0,0.0,0.0,0.0,0.0,0.0,0.0,0.0,0.0,0.0,0.0,0.0,0.0,0.0,0.0,0.0,0.0,0.0,0.0,0.0,0.0,0.0,0.0,0.0,0.0,0.0,0.0,0.0,0.0,0.0,0.0,0.0,0.0,0.0,0.0,0.0,0.0,0.0,0.0,0.0,0.0,0.0,0.0,0.0,0.0,0.0,0.0,0.0,0.0,0.0,0.0,0.0,0.0,0.0,0.0,0.0,0.0,0.0,0.0,0.0,0.0,0.0,0.0,0.0,0.0,0.0,0.0,0.0,0.0,0.0,0.0,0.0,0.0,0.0,0.0,0.0,0.0,0.0,0.0,0.0,0.0,0.0,0.0,0.0,0.0,0.0,0.0,0.0,0.0,0.0,0.0,0.0,0.0,0.0,0.0,0.0,0.0,0.0,0.0,0.0,0.0,0.0,0.0,0.0,0.0,0.0,0.0,0.0,0.0,0.0,0.0,0.0,0.0,0.0,0.0,0.0,0.0,0.0,0.0,0.0,0.0,0.0,0.0,0.0,0.0,0.0,0.0,0.0,0.0,0.0,0.0,0.0,0.0,0.0,0.0,0.0,0.0,0.0,0.0,0.0,0.0,0.0,0.0,0.0,0.0,0.0,0.0,0.0,0.0,0.0,0.0,0.0,0.0,0.0,0.0,0.0,0.0,0.0,0.0,0.0,0.0,0.0,0.0,0.0,0.0,0.0,0.0,0.0,0.0,0.0,0.0,0.0,0.0,0.0,0.0,0.0,0.0,0.0,0.0,0.0,0.0,0.0,0.0,0.0,0.0,0.0,0.0,0.0,0.0,0.0,0.0,0.0,0.0,0.0,0.0,0.0,0.0,0.0,0.0,0.0,0.0,0.0,0.0,0.0,0.0,0.0,0.0,0.0,0.0,0.0,0.0,0.0,0.0,0.0,0.0,0.0,0.0,0.0,0.0,0.0,0.0,0.0,0.0,0.0,0.0,0.0,0.0,0.0,0.0,0.0,0.0,0.0,0.0,0.0,0.0,0.0,0.0,0.0,0.0,0.0,0.0,0.0,0.0,0.0,0.0,0.0,0.0,0.0,0.0,0.0,0.0,0.0,0.0,0.0,0.0,0.0,0.0,0.0,0.0,0.0,0.0,0.0,0.0,0.0,0.0,0.0,0.0,0.0,0.0,0.0,0.0,0.0,0.0,0.0,0.0,0.0,0.0,0.0,0.0,0.0,0.0,0.0,0.0,0.0,0.0,0.0,0.0,0.0,0.0,0.0,0.0,0.0,0.0,0.0,0.0,0.0,0.0,0.0,0.0,0.0,0.0,0.0,0.0,0.0,0.0,0.0,0.0,0.0,0.0,0.0,0.0,0.0,0.0,0.0,0.0,0.0,0.0,0.0,0.0,0.0,0.0,0.0,0.0,0.0,0.0,0.0,0.0,0.0,0.0,0.0,0.0,0.0,0.0,0.0,0.0,0.0,0.0,0.0,0.0,0.0,0.0,0.0,0.0,0.0,0.0,0.0,0.0,0.0,0.0,0.0,0.0,0.0,0.0,0.0,0.0,0.0,0.0,0.0,0.0,0.0,0.0,0.0,0.0,0.0,0.0,0.0,0.0,0.0,0.0,0.0,0.0,0.0,0.0,0.0,0.0,0.0,0.0,0.0,0.0,0.0,0.0,0.0,0.0,0.0,0.0,0.0,0.0,0.0,0.0,0.0,0.0,0.0,0.0,0.0,0.0,0.0,0.0,0.0,0.0,0.0,0.0,0.0,0.0,0.0,0.0,0.0,0.0,0.0,0.0,0.0,0.0,0.0,0.0,0.0,0.0,0.0,0.0,0.0,0.0,0.0,0.0,0.0,0.0,0.0,0.0,0.0,0.0,0.0,0.0,0.0,0.0,0.0,0.0,0.0,0.0,0.0,0.0,0.0,0.0,0.0,0.0,0.0,0.0,0.0,0.0,0.0,0.0,0.0,0.0,0.0,0.0,0.0,0.0,0.0,0.0,0.0,0.0,0.0,0.0,0.0,0.0,0.0,0.0,0.0,0.0,0.0,0.0,0.0,0.0,0.0,0.0,0.0,0.0,0.0,0.0,0.0,0.0,0.0,0.0,0.0,0.0,0.0,0.0,0.0,0.0,0.0,0.0,0.0,0.0,0.0,0.0,0.0,0.0,0.0,0.0,0.0,0.0,0.0,0.0,0.0,0.0,0.0,0.0,0.0,0.0,0.0,0.0,0.0,0.0,0.0,0.0,0.0,0.0,0.0,0.0,0.0,0.0,0.0,0.0,0.0,0.0,0.0,0.0,0.0,0.0,0.0,0.0,0.0,0.0,0.0,0.0,0.0,0.0,0.0,0.0,0.0]}],[{"header":{"parameterUnit":"kt","parameterCategory":2,"dx":1,"dy":1,"la1":29.587661999999998,"la2":31.0,"lo1":-88.76705300000003,"lo2":-86.6583820000003,"nx":115,"ny":88,"refTime":"2022-10-15T06:00:00:Z","depth":0,"parameterNumber":2,"parameterNumberName":"V-component_of_WINDS"},"data":[3.7396,3.8165,3.8725,3.9187,3.9468,3.9714,3.9863,3.9863,3.985,3.9863,3.9837,3.985,3.9863,3.985,3.9863,3.9784,3.96,3.9561,3.935,3.9236,3.9358,3.9305,3.9344,3.9526,3.921,3.8953,3.878,3.8804,3.8663,3.8653,3.8574,3.8432,3.8405,3.8379,3.8366,3.8451,3.8465,3.8313,3.8313,3.8313,3.8141,3.7795,3.7407,3.7132,3.6831,3.6648,3.6555,3.6555,3.6555,3.6555,3.6555,3.6555,3.6555,3.6555,3.6555,3.6555,3.6555,3.6555,3.6555,3.6555,3.6555,3.6555,3.6555,3.6555,3.6555,3.6555,3.6555,3.6555,3.6555,3.6555,3.6555,3.6555,3.6555,3.6555,3.6555,3.6555,3.6555,3.6527,3.655,3.6568,3.659,3.6666,3.6644,3.6608,3.6623,3.687,3.6899,3.7143,3.7225,3.7433,3.7729,3.793,3.8161,3.8304,3.8319,3.8329,3.8313,3.8313,3.8313,3.8313,3.8313,3.8313,3.8313,3.8313,3.8313,3.8313,3.8313,3.8313,3.8313,3.8313,3.8313,3.8313,3.8313,3.8313,3.8313,3.7172,3.7539,3.8402,3.9032,3.9486,3.9758,3.9863,3.9863,3.9863,3.9863,3.9863,3.9863,3.9863,3.9863,3.9863,3.9837,3.978,3.9745,3.9771,3.9692,3.9723,3.9644,3.9714,3.9783,3.9573,3.9345,3.9126,3.8985,3.8887,3.8812,3.8732,3.8636,3.8557,3.8521,3.8475,3.8603,3.87,3.8448,3.8313,3.8313,3.8075,3.7716,3.742,3.713,3.6842,3.6595,3.6555,3.6555,3.6555,3.6555,3.6555,3.6555,3.6555,3.6555,3.6555,3.6555,3.6555,3.6555,3.6555,3.6555,3.6555,3.6555,3.6555,3.6555,3.6555,3.6555,3.6555,3.6555,3.6555,3.6555,3.6555,3.6555,3.6555,3.6555,3.6555,3.6555,3.654,3.654,3.657,3.661,3.6708,3.6824,3.6809,3.6704,3.6921,3.7309,3.7572,3.7847,3.8038,3.7999,3.8007,3.8169,3.832,3.8328,3.8316,3.8313,3.8313,3.8313,3.8313,3.8313,3.8313,3.8313,3.8313,3.8313,3.8313,3.8313,3.8313,3.8313,3.8313,3.8313,3.8313,3.8313,3.8313,3.8313,3.8313,3.7286,3.7641,3.8514,3.9134,3.9468,3.9714,3.9863,3.9863,3.9863,3.9863,3.9863,3.9863,3.9863,3.9863,3.9863,3.985,3.985,3.9863,3.9863,3.9863,3.9824,3.9863,3.9868,3.9855,3.9741,3.9613,3.9359,3.9166,3.9012,3.891,3.89,3.8874,3.8716,3.8676,3.8812,3.8889,3.8865,3.8495,3.8379,3.8297,3.8217,3.7726,3.7354,3.7156,3.6881,3.6593,3.6555,3.6555,3.6555,3.6555,3.6555,3.6555,3.6555,3.6555,3.6555,3.6555,3.6555,3.6555,3.6555,3.6555,3.6555,3.6555,3.6555,3.6555,3.6555,3.6555,3.6555,3.6555,3.6555,3.6555,3.6555,3.6555,3.6555,3.6555,3.6555,3.6555,3.6527,3.6618,3.6726,3.6863,3.7183,3.7256,3.7052,3.7002,3.7494,3.7914,3.7956,3.8206,3.8217,3.8216,3.8256,3.8322,3.8335,3.8316,3.8313,3.8313,3.8313,3.8313,3.8313,3.8313,3.8313,3.8313,3.8313,3.8313,3.8313,3.8313,3.8313,3.8313,3.8313,3.8313,3.8313,3.8313,3.8313,3.8313,3.8313,3.7605,3.7918,3.8593,3.9081,3.9394,3.9653,3.9767,3.9863,3.9863,3.9863,3.9863,3.9863,3.9863,3.9863,3.9863,3.9863,3.9863,3.9863,3.9863,3.9863,3.9863,3.9863,3.985,3.9855,3.9837,3.9723,3.9587,3.9394,3.931,3.9222,3.9174,3.9147,3.9042,3.8923,3.9006,3.9287,3.9104,3.864,3.8455,3.8349,3.8366,3.7908,3.7407,3.7249,3.6855,3.6567,3.6555,3.6555,3.6555,3.6555,3.6555,3.6555,3.6555,3.6555,3.6555,3.6555,3.6555,3.6555,3.6555,3.6555,3.6555,3.6555,3.6555,3.6555,3.6555,3.6555,3.6555,3.6555,3.6555,3.6555,3.6555,3.6555,3.6555,3.6555,3.6555,3.6555,3.6555,3.6719,3.6907,3.7288,3.7758,3.7694,3.7404,3.7599,3.8124,3.8323,3.8307,3.8302,3.8312,3.8319,3.8303,3.8316,3.8313,3.8313,3.8313,3.8313,3.8313,3.8313,3.8313,3.8313,3.8313,3.8313,3.8313,3.8313,3.8313,3.8313,3.8313,3.8313,3.8313,3.8313,3.8313,3.8313,3.8313,3.8329,3.8329,3.7908,3.8244,3.8323,3.8693,3.9121,3.9407,3.964,3.9819,3.9863,3.9863,3.9863,3.9863,3.9863,3.9863,3.9863,3.9863,3.9863,3.9863,3.9863,3.9863,3.9863,3.9863,3.9863,3.9863,3.9863,3.9863,3.9811,3.9675,3.9648,3.9508,3.938,3.9416,3.9354,3.9319,3.927,3.9522,3.9376,3.8914,3.8643,3.8523,3.8609,3.8251,3.7681,3.7562,3.7066,3.6582,3.6553,3.6555,3.6555,3.6555,3.6555,3.6555,3.6555,3.6555,3.6555,3.6555,3.6555,3.6555,3.6555,3.6555,3.6555,3.6555,3.6555,3.6555,3.6555,3.6555,3.6555,3.6555,3.6555,3.6555,3.6555,3.6555,3.6555,3.6555,3.6555,3.6555,3.6593,3.6776,3.7106,3.7696,3.8038,3.7962,3.7741,3.7813,3.8299,3.8312,3.8322,3.8309,3.8329,3.8329,3.8329,3.8329,3.8313,3.8313,3.8313,3.8313,3.8313,3.8313,3.8313,3.8313,3.8313,3.8313,3.8313,3.8313,3.8313,3.8313,3.8313,3.8313,3.8313,3.8313,3.8313,3.8313,3.8329,3.8332,3.8335,3.7947,3.83,3.8313,3.8495,3.8887,3.9245,3.9613,3.9837,3.9863,3.9863,3.9863,3.9863,3.9863,3.9863,3.9863,3.9863,3.9863,3.9863,3.9863,3.9863,3.9863,3.9863,3.9863,3.9863,3.9863,3.9863,3.9863,3.9863,3.974,3.9626,3.9604,3.9653,3.9508,3.9495,3.9587,3.9669,3.9567,3.9231,3.8953,3.8914,3.8733,3.8439,3.8161,3.794,3.7211,3.6881,3.6763,3.6608,3.6568,3.6555,3.6555,3.6555,3.6555,3.6555,3.6555,3.6555,3.6555,3.6555,3.6555,3.6555,3.6555,3.6555,3.6555,3.6555,3.6555,3.6555,3.6555,3.6555,3.6555,3.6555,3.6555,3.6555,3.6555,3.6555,3.6555,3.6555,3.6659,3.6789,3.732,3.7952,3.8174,3.8094,3.8157,3.8229,3.8312,3.8332,3.8313,3.8313,3.8313,3.8313,3.8313,3.8313,3.8313,3.8313,3.8313,3.8313,3.8313,3.8313,3.8313,3.8313,3.8313,3.8313,3.8313,3.8313,3.8313,3.8313,3.8313,3.8313,3.8313,3.8313,3.8313,3.8316,3.8319,3.8315,3.8313,3.8056,3.8283,3.8313,3.8419,3.861,3.9025,3.9446,3.9745,3.9806,3.9863,3.9863,3.9863,3.9863,3.9863,3.9863,3.9863,3.9863,3.9863,3.9863,3.9863,3.9863,3.9863,3.9863,3.9863,3.9863,3.9863,3.9863,3.9863,3.978,3.9719,3.9719,3.9824,3.9648,3.9688,3.9736,3.9863,3.9736,3.9561,3.9394,3.9359,3.9205,3.8716,3.8495,3.8112,3.7422,3.6987,3.6829,3.6672,3.6568,3.6555,3.6555,3.6555,3.6555,3.6555,3.6555,3.6555,3.6555,3.6555,3.6555,3.6555,3.6555,3.6555,3.6555,3.6555,3.6555,3.6555,3.6555,3.6555,3.6555,3.6555,3.6555,3.6555,3.6555,3.6555,3.6555,3.6582,3.6619,3.6802,3.7031,3.7644,3.8172,3.8151,3.8247,3.8319,3.8322,3.8316,3.8313,3.8313,3.8313,3.8313,3.8313,3.8313,3.8313,3.8313,3.8313,3.8313,3.8313,3.8313,3.8313,3.8313,3.8313,3.8313,3.8313,3.8313,3.8313,3.8313,3.8313,3.8313,3.8313,3.8313,3.8319,3.8322,3.8315,3.8297,3.8269,3.827,3.8313,3.8313,3.8326,3.8379,3.8653,3.9059,3.9468,3.9745,3.9863,3.9863,3.9863,3.9863,3.9863,3.9863,3.9863,3.9863,3.9863,3.9863,3.9863,3.9863,3.9863,3.9863,3.9863,3.9863,3.9863,3.9863,3.9863,3.9863,3.9784,3.9798,3.9837,3.9767,3.9793,3.9837,3.9872,3.9828,3.9802,3.971,3.9701,3.9534,3.9042,3.8759,3.8346,3.7684,3.7185,3.6921,3.6736,3.6606,3.6555,3.6555,3.6555,3.6555,3.6555,3.6555,3.6555,3.6555,3.6555,3.6555,3.6555,3.6555,3.6555,3.6555,3.6555,3.6555,3.6555,3.6555,3.6555,3.6555,3.6555,3.6555,3.6555,3.6555,3.654,3.654,3.6591,3.6644,3.6767,3.6981,3.7467,3.7993,3.8191,3.8303,3.8313,3.8316,3.8313,3.8313,3.8313,3.8313,3.8313,3.8313,3.8313,3.8313,3.8313,3.8313,3.8313,3.8313,3.8313,3.8313,3.8313,3.8313,3.8313,3.8313,3.8313,3.8313,3.8313,3.8313,3.8313,3.8329,3.8322,3.8331,3.8206,3.7701,3.7813,3.7716,3.8313,3.8313,3.8313,3.8313,3.8353,3.8574,3.8874,3.9222,3.9683,3.9863,3.9863,3.9863,3.9863,3.9863,3.9863,3.9863,3.9863,3.9863,3.9863,3.9863,3.9863,3.9863,3.9863,3.9863,3.9863,3.9863,3.9863,3.9863,3.9863,3.9863,3.9863,3.9863,3.9863,3.9863,3.9863,3.9863,3.9863,3.9863,3.9863,3.9863,3.9666,3.9341,3.8953,3.865,3.8066,3.7338,3.7156,3.6947,3.671,3.658,3.6555,3.6555,3.6555,3.6555,3.6555,3.6555,3.6555,3.6555,3.6555,3.6555,3.6555,3.6555,3.6555,3.6555,3.6555,3.6555,3.6555,3.6555,3.6555,3.6555,3.6555,3.6555,3.654,3.655,3.6546,3.6577,3.6653,3.6736,3.695,3.7723,3.8289,3.8288,3.8335,3.8303,3.8313,3.8313,3.8313,3.8313,3.8313,3.8313,3.8313,3.8313,3.8313,3.8313,3.8313,3.8313,3.8313,3.8313,3.8313,3.8313,3.8313,3.8313,3.8313,3.8313,3.8313,3.8313,3.8313,3.8316,3.8319,3.8312,3.8185,3.7713,3.7209,3.7057,3.6962,3.8313,3.8313,3.8313,3.8313,3.8339,3.8452,3.8719,3.9019,3.938,3.9692,3.9824,3.9863,3.9863,3.9863,3.9863,3.9863,3.9863,3.9863,3.9863,3.9863,3.9863,3.9863,3.9863,3.9863,3.9863,3.9863,3.9863,3.9863,3.9863,3.9863,3.9863,3.9863,3.9863,3.9863,3.9863,3.9863,3.9863,3.9863,3.9863,3.985,3.9811,3.946,3.916,3.9015,3.8317,3.7776,3.7457,3.7196,3.7018,3.6893,3.6797,3.6702,3.6568,3.6555,3.6555,3.6555,3.6555,3.6555,3.6555,3.6555,3.6555,3.6555,3.6555,3.6555,3.6555,3.6555,3.6555,3.6555,3.6555,3.6555,3.6527,3.654,3.6533,3.6557,3.6675,3.669,3.6973,3.7039,3.7151,3.7927,3.8331,3.8312,3.8319,3.8329,3.8313,3.8313,3.8313,3.8313,3.8313,3.8313,3.8313,3.8313,3.8313,3.8313,3.8313,3.8313,3.8313,3.8313,3.8313,3.8313,3.8313,3.8313,3.8313,3.8313,3.8313,3.8313,3.8313,3.8329,3.8335,3.807,3.7599,3.7149,3.6898,3.6696,3.6537,3.8313,3.8313,3.8313,3.8313,3.8313,3.8313,3.8485,3.8742,3.8989,3.9324,3.9784,3.9863,3.9863,3.9863,3.9863,3.9863,3.9863,3.9863,3.9863,3.9863,3.9863,3.9863,3.9863,3.9863,3.9863,3.9863,3.9863,3.9863,3.9863,3.9863,3.9863,3.9863,3.9863,3.9863,3.9863,3.9863,3.9863,3.9863,3.9863,3.9863,3.9784,3.9521,3.9236,3.9002,3.8491,3.8,3.7681,3.7417,3.7382,3.7273,3.7149,3.6833,3.6619,3.6538,3.6555,3.6555,3.6555,3.6555,3.6555,3.6555,3.6555,3.6555,3.655,3.6538,3.654,3.6582,3.665,3.6555,3.6555,3.6555,3.6538,3.6552,3.6538,3.6612,3.6842,3.7057,3.7654,3.7924,3.784,3.8217,3.8315,3.8329,3.8329,3.8313,3.8313,3.8313,3.8313,3.8313,3.8313,3.8313,3.8313,3.8313,3.8313,3.8313,3.8313,3.8313,3.8313,3.8313,3.8313,3.8313,3.8313,3.8313,3.8313,3.8313,3.8316,3.8335,3.8332,3.8303,3.7988,3.7686,3.7159,3.6844,3.6682,3.6544,3.6537,3.8313,3.8313,3.8313,3.8313,3.8313,3.8313,3.8458,3.868,3.8768,3.9094,3.9587,3.9784,3.9863,3.9863,3.9863,3.9863,3.9863,3.9863,3.9863,3.9863,3.9863,3.9863,3.9863,3.9863,3.9863,3.9863,3.9863,3.9863,3.9863,3.9863,3.9863,3.9863,3.9863,3.9863,3.9863,3.9863,3.9863,3.9863,3.9863,3.9863,3.9798,3.9473,3.9117,3.9029,3.86,3.8148,3.7826,3.7697,3.7731,3.7678,3.7379,3.6906,3.6649,3.6546,3.6553,3.6555,3.6555,3.6555,3.6555,3.6555,3.6555,3.6538,3.6559,3.6544,3.6646,3.6895,3.6784,3.665,3.6553,3.6535,3.6546,3.6673,3.6734,3.6942,3.7173,3.752,3.8107,3.8326,3.8342,3.8334,3.8325,3.8329,3.8313,3.8313,3.8313,3.8313,3.8313,3.8313,3.8313,3.8313,3.8313,3.8313,3.8313,3.8313,3.8313,3.8313,3.8313,3.8313,3.8313,3.8313,3.8313,3.8313,3.8313,3.8306,3.8325,3.8328,3.8206,3.8044,3.77,3.7315,3.6983,3.668,3.6573,3.6756,3.6708,3.8313,3.8313,3.8313,3.8313,3.8313,3.8313,3.8405,3.8534,3.864,3.8857,3.92,3.9534,3.9758,3.985,3.9863,3.9863,3.9863,3.9863,3.9863,3.9863,3.9863,3.9863,3.9863,3.9863,3.9863,3.9863,3.9863,3.9863,3.9863,3.9863,3.9863,3.9863,3.9863,3.9863,3.9863,3.9863,3.9863,3.9863,3.9863,3.9863,3.9771,3.9446,3.9187,3.9068,3.864,3.828,3.7987,3.7947,3.8068,3.8059,3.7598,3.7072,3.6649,3.6761,3.6701,3.6582,3.6555,3.6555,3.6555,3.6555,3.6555,3.6537,3.6579,3.6778,3.7362,3.7252,3.7043,3.6763,3.6542,3.6538,3.669,3.6938,3.7154,3.7388,3.766,3.8039,3.8315,3.8318,3.8322,3.8338,3.8332,3.8313,3.8313,3.8313,3.8313,3.8313,3.8313,3.8313,3.8313,3.8313,3.8313,3.8313,3.8313,3.8313,3.8313,3.8313,3.8313,3.8313,3.8313,3.8313,3.8313,3.8329,3.8325,3.8331,3.8323,3.8047,3.7872,3.7755,3.7477,3.7035,3.6719,3.6549,3.6756,3.7011,3.7234,3.8313,3.8313,3.8313,3.8313,3.8313,3.8313,3.8313,3.8366,3.8547,3.868,3.8851,3.9187,3.9552,3.9789,3.9824,3.9863,3.9863,3.9863,3.9863,3.9863,3.9863,3.9863,3.9863,3.9863,3.9863,3.9863,3.9863,3.9863,3.9863,3.9863,3.9863,3.9863,3.9863,3.9863,3.9863,3.9863,3.9863,3.9863,3.9863,3.9863,3.9719,3.9539,3.9279,3.9015,3.8768,3.8547,3.8326,3.8273,3.8275,3.8251,3.7843,3.7341,3.7054,3.704,3.6829,3.667,3.6576,3.6644,3.6684,3.6697,3.6604,3.6559,3.6629,3.6936,3.783,3.7666,3.7156,3.666,3.6548,3.66,3.709,3.7497,3.7934,3.8031,3.8044,3.8323,3.8328,3.8329,3.8329,3.8313,3.8313,3.8313,3.8313,3.8313,3.8313,3.8313,3.8313,3.8313,3.8313,3.8313,3.8313,3.8313,3.8313,3.8313,3.8313,3.8313,3.8313,3.8313,3.8313,3.8313,3.8319,3.8328,3.831,3.8276,3.8044,3.7726,3.7438,3.7256,3.7033,3.6687,3.654,3.6535,3.6714,3.6901,3.7287,3.8313,3.8313,3.8313,3.8313,3.8313,3.8313,3.8313,3.8313,3.8363,3.8508,3.8693,3.8834,3.916,3.9495,3.9776,3.9837,3.985,3.9863,3.9863,3.9863,3.9863,3.9863,3.9863,3.9863,3.9863,3.9863,3.9863,3.9863,3.9863,3.9863,3.9863,3.9863,3.9863,3.9863,3.9863,3.9863,3.9863,3.9863,3.9863,3.9758,3.9561,3.9345,3.9042,3.8795,3.8561,3.8349,3.8326,3.8313,3.8313,3.8229,3.795,3.7824,3.7657,3.7401,3.7062,3.6752,3.6783,3.6906,3.7013,3.7066,3.6903,3.6686,3.6633,3.7175,3.8074,3.8206,3.7715,3.6675,3.6633,3.711,3.7657,3.8041,3.8313,3.8313,3.8315,3.8322,3.8329,3.8329,3.8313,3.8313,3.8313,3.8313,3.8313,3.8313,3.8313,3.8313,3.8313,3.8313,3.8313,3.8313,3.8313,3.8313,3.8313,3.8313,3.8313,3.8313,3.8313,3.8313,3.8313,3.8319,3.8251,3.8262,3.8055,3.7938,3.7778,3.7448,3.7048,3.6772,3.655,3.6537,3.6538,3.6553,3.6576,3.6704,3.702,3.8313,3.8313,3.8313,3.8313,3.8313,3.8313,3.8313,3.8313,3.8313,3.8392,3.8508,3.8627,3.8834,3.913,3.9552,3.9679,3.9719,3.9811,3.9863,3.9863,3.9863,3.9863,3.9863,3.9863,3.9863,3.9863,3.9863,3.9863,3.9863,3.9863,3.9863,3.9863,3.9863,3.9863,3.9863,3.9863,3.9863,3.9863,3.9837,3.9719,3.9446,3.9121,3.8834,3.8663,3.8429,3.8339,3.8313,3.8313,3.8313,3.8244,3.8122,3.8097,3.8084,3.7792,3.7336,3.6971,3.711,3.7375,3.7601,3.7718,3.7619,3.7385,3.7404,3.757,3.8059,3.8253,3.7832,3.6961,3.7122,3.7549,3.8102,3.8305,3.8318,3.8322,3.8319,3.8329,3.8329,3.8313,3.8313,3.8313,3.8313,3.8313,3.8313,3.8313,3.8313,3.8313,3.8313,3.8313,3.8313,3.8313,3.8313,3.8313,3.8313,3.8313,3.8313,3.8332,3.8319,3.8319,3.8319,3.8182,3.8156,3.7824,3.7449,3.7246,3.7269,3.7055,3.6704,3.6546,3.6552,3.6537,3.6535,3.6542,3.6549,3.6662,3.6992,3.8313,3.8313,3.8313,3.8313,3.8313,3.8313,3.8313,3.8313,3.8313,3.8313,3.8366,3.8551,3.8653,3.8808,3.9213,3.935,3.9455,3.9618,3.9692,3.9758,3.9771,3.9798,3.9863,3.9863,3.9863,3.9863,3.9863,3.9863,3.9863,3.9863,3.9863,3.9863,3.9863,3.9863,3.9863,3.9863,3.9863,3.9863,3.9824,3.9723,3.9464,3.8993,3.8702,3.8544,3.8415,3.8313,3.8313,3.8313,3.8313,3.827,3.827,3.8285,3.8276,3.7946,3.77,3.7575,3.7647,3.7914,3.8175,3.819,3.8132,3.8112,3.8147,3.8283,3.831,3.8278,3.8073,3.7481,3.7858,3.8249,3.8244,3.8315,3.8319,3.8313,3.8313,3.8313,3.8313,3.8313,3.8313,3.8313,3.8313,3.8313,3.8313,3.8313,3.8313,3.8313,3.8313,3.8313,3.8313,3.8313,3.8313,3.8313,3.8313,3.8313,3.8313,3.8325,3.8341,3.8328,3.8156,3.7975,3.7686,3.727,3.6871,3.6785,3.6706,3.659,3.6544,3.655,3.6553,3.6553,3.6537,3.6553,3.6607,3.6793,3.7012,3.8313,3.8313,3.8313,3.8313,3.8313,3.8313,3.8313,3.8313,3.8313,3.8313,3.8326,3.8349,3.8495,3.868,3.8838,3.898,3.9143,3.9213,3.938,3.9495,3.9534,3.9666,3.9798,3.9863,3.9824,3.9798,3.9811,3.9863,3.9798,3.9784,3.9837,3.9798,3.9837,3.9863,3.9824,3.9771,3.9863,3.9798,3.9666,3.9657,3.955,3.9083,3.86,3.8363,3.8339,3.8313,3.8313,3.8313,3.8313,3.8313,3.8329,3.8332,3.8293,3.822,3.8165,3.8095,3.8151,3.8194,3.8291,3.8337,3.8313,3.8329,3.8315,3.8325,3.8325,3.8299,3.8223,3.8161,3.8266,3.8312,3.8328,3.8319,3.8329,3.8313,3.8313,3.8313,3.8313,3.8313,3.8313,3.8313,3.8313,3.8313,3.8313,3.8313,3.8313,3.8313,3.8313,3.8313,3.8313,3.8313,3.8313,3.8313,3.8313,3.8313,3.8296,3.832,3.8276,3.8047,3.7689,3.7507,3.712,3.6806,3.6724,3.6653,3.6544,3.6529,3.6535,3.6555,3.6555,3.654,3.6552,3.671,3.7101,3.7319,3.7459,3.8313,3.8313,3.8313,3.8313,3.8313,3.8313,3.8313,3.8313,3.8313,3.8313,3.8313,3.8313,3.8392,3.8455,3.8495,3.8653,3.8887,3.9019,3.916,3.9222,3.9275,3.9367,3.9446,3.9473,3.9534,3.96,3.9508,3.9429,3.9455,3.9468,3.9429,3.9455,3.9455,3.9486,3.9486,3.9512,3.9442,3.9355,3.9267,3.9209,3.9012,3.8921,3.8561,3.8363,3.8313,3.8313,3.8313,3.8313,3.8313,3.8313,3.8313,3.8313,3.83,3.83,3.83,3.83,3.83,3.83,3.8313,3.8313,3.8313,3.8313,3.8329,3.8313,3.8313,3.8313,3.83,3.83,3.8313,3.8313,3.8313,3.8313,3.8313,3.8313,3.8313,3.8313,3.8313,3.8313,3.8313,3.8313,3.8313,3.8313,3.8313,3.8313,3.8313,3.8313,3.8313,3.8313,3.8313,3.8313,3.8313,3.8313,3.8313,3.8322,3.8283,3.823,3.8188,3.7557,3.7081,3.6942,3.6714,3.6671,3.6587,3.6553,3.654,3.6552,3.6555,3.6555,3.6555,3.6555,3.6553,3.6719,3.7375,3.7887,3.8028,3.8313,3.8313,3.8313,3.8313,3.8313,3.8313,3.8313,3.8313,3.8313,3.8313,3.8313,3.8313,3.8313,3.8326,3.8313,3.8402,3.8627,3.8798,3.894,3.8989,3.9002,3.9038,3.9117,3.9156,3.9213,3.9266,3.916,3.9081,3.9108,3.9098,3.9174,3.9108,3.9121,3.9134,3.9164,3.9081,3.91,3.9022,3.8995,3.882,3.8589,3.8521,3.8468,3.8353,3.8313,3.8313,3.8313,3.8313,3.8313,3.8313,3.8313,3.8313,3.8313,3.8313,3.8313,3.8313,3.8313,3.8313,3.8313,3.8313,3.8313,3.8313,3.8313,3.8313,3.8313,3.8313,3.8313,3.8313,3.8313,3.8313,3.8313,3.8313,3.8313,3.8313,3.8313,3.8313,3.8313,3.8313,3.8313,3.8313,3.8313,3.8313,3.8313,3.8313,3.8313,3.8313,3.8313,3.8313,3.8313,3.8313,3.8319,3.8322,3.8276,3.8209,3.8113,3.7979,3.7749,3.6966,3.6764,3.6625,3.6605,3.6563,3.6538,3.654,3.6555,3.654,3.6527,3.6555,3.6527,3.6553,3.6583,3.6605,3.7312,3.8037,3.8265,3.8313,3.8313,3.8313,3.8313,3.8313,3.8313,3.8313,3.8313,3.8313,3.8313,3.8313,3.8313,3.8313,3.8313,3.8313,3.8326,3.8392,3.8485,3.8614,3.8746,3.8759,3.8774,3.8859,3.8932,3.901,3.8945,3.8802,3.8861,3.8963,3.9098,3.8993,3.9042,3.9072,3.8976,3.9029,3.9025,3.8942,3.8829,3.8791,3.8586,3.8371,3.8366,3.8405,3.8313,3.8313,3.8313,3.8313,3.8313,3.8313,3.8313,3.8313,3.8313,3.8313,3.8313,3.8313,3.8316,3.8234,3.8207,3.8194,3.8234,3.826,3.8313,3.8329,3.8329,3.8329,3.8329,3.8286,3.83,3.8313,3.8313,3.8313,3.8313,3.8313,3.8313,3.8313,3.8313,3.8313,3.8313,3.8313,3.8313,3.8313,3.8313,3.8313,3.8313,3.8313,3.8313,3.8313,3.8313,3.8313,3.8303,3.8337,3.8315,3.8015,3.7885,3.7546,3.7353,3.7079,3.6646,3.6619,3.6572,3.6578,3.654,3.654,3.6555,3.6527,3.6553,3.6525,3.655,3.6535,3.6552,3.6658,3.6947,3.7486,3.8081,3.8246,3.8313,3.8313,3.8313,3.8313,3.8313,3.8313,3.8313,3.8313,3.8313,3.8313,3.8313,3.8313,3.8313,3.8313,3.8313,3.8313,3.8313,3.8313,3.8392,3.8472,3.8481,3.8518,3.8607,3.8623,3.8627,3.8567,3.8481,3.8505,3.864,3.8666,3.8706,3.865,3.8636,3.8689,3.862,3.8636,3.8646,3.8564,3.8505,3.8439,3.8307,3.8336,3.8313,3.8313,3.8313,3.8313,3.8313,3.8313,3.8313,3.8332,3.8315,3.831,3.8326,3.8323,3.8331,3.8259,3.8012,3.7766,3.7779,3.7779,3.7903,3.8254,3.831,3.8323,3.8337,3.8322,3.8175,3.7935,3.8089,3.8313,3.8313,3.8313,3.8313,3.8313,3.8313,3.8313,3.8313,3.8313,3.8313,3.8313,3.8313,3.8313,3.8313,3.8313,3.8316,3.8278,3.8278,3.8113,3.8139,3.8148,3.8177,3.8009,3.771,3.7375,3.6997,3.6785,3.6557,3.6553,3.6548,3.6538,3.6555,3.6555,3.6555,3.6555,3.6555,3.6553,3.6544,3.6538,3.6549,3.6653,3.6921,3.7328,3.7708,3.8108,3.8275,3.8313,3.8313,3.8313,3.8313,3.8313,3.8313,3.8313,3.8313,3.8313,3.8313,3.8313,3.8313,3.8313,3.8313,3.8313,3.8313,3.8313,3.8313,3.8313,3.8313,3.8313,3.8313,3.8326,3.8353,3.8326,3.8326,3.8313,3.8326,3.8326,3.8379,3.8326,3.831,3.8392,3.8326,3.8323,3.8392,3.8313,3.8313,3.8326,3.8326,3.8326,3.8313,3.8313,3.8313,3.8313,3.8313,3.8313,3.8313,3.8303,3.8328,3.8302,3.8097,3.7874,3.7934,3.7985,3.7898,3.7541,3.7254,3.7183,3.7178,3.7388,3.7774,3.8033,3.8336,3.8315,3.8094,3.7745,3.7798,3.7971,3.8309,3.8329,3.8313,3.8313,3.8313,3.8313,3.8313,3.8313,3.8313,3.8313,3.8313,3.8313,3.8313,3.8313,3.8332,3.8307,3.8281,3.8147,3.7969,3.7918,3.7896,3.7758,3.7548,3.7251,3.6958,3.6677,3.6634,3.6529,3.6535,3.6538,3.6555,3.6555,3.6555,3.6555,3.6555,3.6555,3.6544,3.6531,3.6581,3.6974,3.6976,3.7109,3.7562,3.7927,3.8118,3.8329,3.8313,3.8313,3.8313,3.8313,3.8313,3.8313,3.8313,3.8313,3.8313,3.8313,3.8313,3.8313,3.8313,3.8313,3.8313,3.8313,3.8313,3.8313,3.8313,3.8313,3.8313,3.8313,3.8313,3.8313,3.8313,3.8313,3.8313,3.8313,3.8313,3.8313,3.8313,3.8313,3.8313,3.8313,3.8313,3.8313,3.8313,3.8313,3.8313,3.8313,3.8313,3.8313,3.8313,3.8313,3.8313,3.8313,3.8313,3.8329,3.8312,3.8323,3.8342,3.7721,3.6918,3.7238,3.7403,3.739,3.7235,3.6976,3.6756,3.6704,3.6753,3.6965,3.7756,3.8282,3.8081,3.756,3.7363,3.7886,3.8211,3.8304,3.8319,3.8313,3.8313,3.8313,3.8313,3.8313,3.8313,3.8313,3.8313,3.8313,3.8329,3.8313,3.8335,3.8337,3.827,3.7927,3.7446,3.7257,3.7196,3.7318,3.7267,3.7115,3.6864,3.6542,3.6553,3.655,3.6552,3.6553,3.6527,3.6555,3.6555,3.6555,3.6555,3.6555,3.6555,3.6546,3.6583,3.6983,3.7476,3.7601,3.7596,3.7922,3.8222,3.8282,3.8329,3.8313,3.8313,3.8313,3.8313,3.8313,3.8313,3.8313,3.8313,3.8313,3.8313,3.8313,3.8313,3.8313,3.8313,3.8313,3.8313,3.8313,3.8313,3.8313,3.8313,3.8313,3.8313,3.8313,3.8313,3.8313,3.8313,3.8313,3.8313,3.8313,3.8313,3.8313,3.8313,3.8313,3.8313,3.8313,3.8313,3.8313,3.8313,3.8313,3.8313,3.8313,3.8313,3.8313,3.8313,3.8313,3.8313,3.8313,3.8313,3.8299,3.8169,3.7633,3.7078,3.6618,3.6761,3.6884,3.6855,3.6827,3.6741,3.657,3.6542,3.655,3.6665,3.6905,3.7256,3.7291,3.757,3.7338,3.7747,3.8094,3.8285,3.8316,3.8313,3.8313,3.8313,3.8313,3.8313,3.8313,3.8316,3.8313,3.8319,3.8315,3.8326,3.8313,3.8322,3.7979,3.7388,3.6824,3.6681,3.6563,3.6713,3.6818,3.6767,3.6587,3.6544,3.655,3.6538,3.654,3.654,3.6555,3.6555,3.6555,3.6555,3.6555,3.6555,3.6555,3.6591,3.6697,3.6962,3.7581,3.8021,3.818,3.8307,3.8288,3.8329,3.8313,3.8313,3.8313,3.8313,3.8313,3.8313,3.8313,3.8313,3.8313,3.8313,3.8313,3.8313,3.8313,3.8313,3.8313,3.8313,3.8313,3.8313,3.8313,3.8313,3.8313,3.8313,3.8313,3.8313,3.8313,3.8313,3.8313,3.8313,3.8313,3.8313,3.8313,3.8313,3.8313,3.8313,3.8313,3.8313,3.8313,3.8313,3.8313,3.8313,3.8313,3.8313,3.8313,3.8313,3.8313,3.8313,3.8313,3.8313,3.8313,3.8226,3.8068,3.7107,3.6537,3.6559,3.6559,3.6608,3.658,3.6553,3.654,3.654,3.6553,3.6548,3.6533,3.6645,3.6599,3.6763,3.743,3.7531,3.7591,3.789,3.8325,3.8316,3.8313,3.8313,3.8329,3.8338,3.8318,3.8339,3.831,3.8193,3.8091,3.8198,3.815,3.8012,3.7825,3.7428,3.6842,3.6596,3.6535,3.6557,3.6619,3.6659,3.6553,3.6527,3.6555,3.6555,3.6555,3.6555,3.6555,3.6555,3.6555,3.6555,3.6555,3.6555,3.6555,3.6555,3.6535,3.6697,3.6843,3.7549,3.8195,3.8289,3.832,3.8325,3.8306,3.8293,3.8313,3.8313,3.8313,3.8313,3.8313,3.8313,3.8313,3.8313,3.8313,3.8313,3.8313,3.8313,3.8313,3.8313,3.8313,3.8313,3.8313,3.8313,3.8313,3.8313,3.8313,3.8313,3.8313,3.8313,3.8313,3.8313,3.8313,3.8313,3.8313,3.8313,3.8313,3.8313,3.8313,3.8313,3.8313,3.8313,3.8313,3.8313,3.8313,3.8313,3.8313,3.8313,3.8313,3.8313,3.8313,3.8313,3.83,3.8273,3.8082,3.7678,3.7008,3.6531,3.6535,3.654,3.6542,3.6544,3.6542,3.6544,3.6529,3.6519,3.6531,3.654,3.6567,3.6744,3.7011,3.6941,3.6994,3.7494,3.8026,3.8286,3.825,3.83,3.8329,3.8332,3.8313,3.8235,3.8299,3.8199,3.7892,3.7591,3.7856,3.8061,3.7456,3.7046,3.6774,3.6555,3.6527,3.6535,3.6555,3.6555,3.6555,3.6555,3.6555,3.6555,3.6555,3.6555,3.6555,3.6555,3.6555,3.6555,3.6555,3.6555,3.6555,3.6555,3.654,3.6544,3.6612,3.6657,3.7089,3.7917,3.8281,3.8299,3.8294,3.8278,3.8291,3.8313,3.8313,3.8313,3.8313,3.8313,3.8313,3.8313,3.8313,3.8313,3.8313,3.8313,3.8313,3.8313,3.8313,3.8313,3.8313,3.8313,3.8313,3.8313,3.8313,3.8313,3.8313,3.8313,3.8313,3.8313,3.8313,3.8313,3.8313,3.8313,3.8313,3.8313,3.8313,3.8313,3.8313,3.8313,3.8313,3.8313,3.8313,3.8313,3.8313,3.8313,3.8313,3.8313,3.8313,3.8313,3.8313,3.827,3.8056,3.7802,3.7444,3.6887,3.6546,3.6538,3.6542,3.6547,3.654,3.653,3.6338,3.6012,3.6303,3.6538,3.6531,3.6543,3.6635,3.6716,3.6684,3.6701,3.7262,3.7884,3.8209,3.8006,3.8151,3.8296,3.8326,3.8266,3.7994,3.7309,3.7199,3.707,3.7018,3.707,3.7033,3.6897,3.6614,3.6557,3.6544,3.6537,3.6555,3.6555,3.6555,3.6555,3.6555,3.6555,3.6555,3.6555,3.6555,3.6555,3.6555,3.6555,3.6555,3.6555,3.6555,3.6555,3.6555,3.6555,3.6533,3.654,3.6569,3.6882,3.7562,3.8326,3.8107,3.7801,3.7909,3.8294,3.8138,3.8125,3.8046,3.8006,3.7993,3.7993,3.8006,3.7993,3.7964,3.7964,3.7993,3.7964,3.7964,3.7993,3.8006,3.8046,3.8125,3.8016,3.8016,3.8125,3.8109,3.8178,3.8286,3.8313,3.8313,3.8313,3.8313,3.8313,3.8313,3.8313,3.8313,3.8313,3.8313,3.8313,3.8313,3.8313,3.8313,3.8313,3.8313,3.8313,3.8313,3.8313,3.8313,3.8313,3.8313,3.8231,3.8109,3.7789,3.7441,3.7123,3.6726,3.6538,3.6553,3.6543,3.6533,3.6555,3.6348,3.5909,3.5502,3.5709,3.5953,3.6045,3.6348,3.6524,3.6543,3.6537,3.6619,3.6855,3.7503,3.7959,3.7792,3.7895,3.7858,3.7731,3.7741,3.7368,3.677,3.659,3.6535,3.6538,3.6537,3.6559,3.6535,3.6557,3.6553,3.6553,3.654,3.6555,3.6555,3.6555,3.6555,3.6555,3.6555,3.6555,3.6555,3.6555,3.6555,3.6555,3.6555,3.6555,3.6555,3.6555,3.6555,3.6555,3.6555,3.6538,3.6548,3.6743,3.7216,3.7796,3.8208,3.7953,3.7398,3.7542,3.8109,3.7704,3.7678,3.7431,3.7394,3.7407,3.7436,3.7354,3.7394,3.7422,3.7433,3.7446,3.738,3.7449,3.738,3.7433,3.7483,3.7628,3.7457,3.7525,3.7773,3.7786,3.7947,3.827,3.8313,3.8313,3.8313,3.8313,3.8313,3.8313,3.8313,3.8313,3.8313,3.8313,3.8313,3.8313,3.8313,3.8313,3.8313,3.8313,3.8313,3.8313,3.8313,3.8313,3.8313,3.8313,3.8151,3.7773,3.7499,3.711,3.6664,3.6506,3.6513,3.6394,3.6437,3.6493,3.6315,3.5847,3.527,3.4915,3.4917,3.5014,3.5105,3.5902,3.6383,3.6407,3.6406,3.6431,3.6553,3.7031,3.7378,3.752,3.7307,3.7065,3.6685,3.6738,3.6765,3.6568,3.6555,3.654,3.6537,3.6537,3.6553,3.654,3.6527,3.6555,3.6555,3.6555,3.6555,3.6555,3.6555,3.6555,3.6555,3.6555,3.6555,3.6555,3.6555,3.6555,3.6555,3.6555,3.6555,3.6555,3.6555,3.6555,3.6555,3.6555,3.6555,3.6537,3.6627,3.7145,3.7516,3.8023,3.8177,3.7934,3.7883,3.8253,3.7272,3.7404,3.7338,3.7328,3.7328,3.7328,3.7328,3.7328,3.7328,3.7328,3.7328,3.7328,3.7328,3.7328,3.7328,3.7288,3.7183,3.7104,3.7272,3.7691,3.7747,3.7905,3.8244,3.8313,3.8313,3.8313,3.8313,3.8313,3.8313,3.8313,3.8313,3.8313,3.8313,3.8313,3.8313,3.8313,3.8313,3.8313,3.8313,3.8313,3.8313,3.8313,3.8313,3.8313,3.8313,3.8109,3.7747,3.7272,3.6906,3.6561,3.6118,3.5733,3.5421,3.5669,3.5754,3.5432,3.5365,3.5204,3.4884,3.4818,3.4828,3.4834,3.5201,3.5525,3.5834,3.5578,3.5587,3.6009,3.6699,3.6944,3.6422,3.588,3.5891,3.6461,3.654,3.6532,3.6548,3.6552,3.6542,3.6529,3.6529,3.6514,3.6555,3.6555,3.6555,3.6555,3.6555,3.6555,3.6555,3.6555,3.6555,3.6555,3.6555,3.6555,3.6555,3.6555,3.6555,3.6555,3.6555,3.6555,3.6555,3.6555,3.6555,3.6555,3.6555,3.6555,3.6531,3.6548,3.6728,3.7013,3.7647,3.8311,3.8318,3.8328,3.8322,3.6695,3.6811,3.6719,3.668,3.6708,3.668,3.668,3.6708,3.6708,3.6708,3.6721,3.6785,3.6824,3.6824,3.6747,3.6587,3.6457,3.6416,3.6666,3.7088,3.722,3.746,3.7779,3.8003,3.8082,3.8109,3.8217,3.8313,3.8313,3.8313,3.8313,3.8313,3.8313,3.8313,3.8313,3.8313,3.8313,3.8313,3.8313,3.8313,3.8313,3.8313,3.8313,3.8313,3.8178,3.7868,3.7444,3.704,3.6506,3.5916,3.5513,3.5141,3.4881,3.5091,3.5137,3.4871,3.5007,3.5063,3.4864,3.4824,3.4809,3.4818,3.4804,3.4965,3.5166,3.5,3.4877,3.5217,3.6068,3.6018,3.5041,3.4765,3.5108,3.5799,3.6288,3.6539,3.6533,3.6531,3.6543,3.651,3.6312,3.6337,3.6446,3.6555,3.6555,3.6555,3.6555,3.6555,3.6555,3.6555,3.6555,3.6555,3.6555,3.6555,3.6555,3.6555,3.6555,3.6555,3.6555,3.6555,3.6555,3.6555,3.6555,3.6555,3.6555,3.6555,3.654,3.6575,3.6963,3.726,3.7752,3.8282,3.8304,3.8312,3.8319,3.5927,3.5901,3.5705,3.5652,3.5599,3.5639,3.5612,3.5705,3.5639,3.5626,3.5705,3.5874,3.5953,3.594,3.5769,3.5585,3.5612,3.5652,3.5823,3.6113,3.642,3.6712,3.6932,3.7457,3.7691,3.7747,3.8043,3.8231,3.8231,3.827,3.8313,3.8313,3.8313,3.8313,3.8313,3.8313,3.8313,3.8313,3.8313,3.8313,3.8313,3.8244,3.8234,3.8165,3.7895,3.7457,3.6958,3.6672,3.6013,3.4871,3.486,3.4813,3.4814,3.4834,3.4851,3.4811,3.4771,3.4758,3.4704,3.4704,3.4731,3.4784,3.4811,3.4826,3.4893,3.4652,3.4478,3.4242,3.4986,3.4865,3.3644,3.4143,3.4722,3.4959,3.5822,3.6288,3.6397,3.6327,3.6491,3.629,3.5926,3.5949,3.6464,3.6544,3.6446,3.6514,3.6555,3.6555,3.6555,3.6555,3.6555,3.6555,3.6555,3.6555,3.6555,3.6555,3.6555,3.6555,3.6555,3.6555,3.6555,3.6555,3.6555,3.6555,3.6555,3.6555,3.6527,3.6718,3.7045,3.7353,3.7814,3.8195,3.8251,3.8282,3.8332,3.5403,3.5429,3.5533,3.5586,3.5586,3.5586,3.5586,3.5586,3.5586,3.5586,3.5599,3.5624,3.5586,3.5442,3.5533,3.5586,3.5586,3.5586,3.5731,3.6008,3.6367,3.6657,3.6932,3.7288,3.7417,3.7486,3.775,3.7895,3.7921,3.8135,3.8313,3.8313,3.8313,3.8313,3.8313,3.8313,3.8313,3.8313,3.8313,3.8313,3.8247,3.7832,3.7607,3.7594,3.7486,3.7183,3.6672,3.6327,3.5739,3.4833,3.4804,3.4822,3.4822,3.4823,3.4825,3.476,3.4361,3.4084,3.4108,3.4094,3.4293,3.4731,3.4826,3.4826,3.468,3.4018,3.3663,3.3821,3.3788,3.3851,3.3545,3.39,3.4282,3.474,3.4995,3.5274,3.5356,3.5641,3.5709,3.5389,3.547,3.5799,3.628,3.6175,3.6052,3.6448,3.6529,3.6555,3.6555,3.6542,3.6542,3.6555,3.6542,3.6542,3.6555,3.6531,3.6555,3.6555,3.6516,3.6502,3.6555,3.6542,3.6542,3.6537,3.6544,3.6529,3.6449,3.6502,3.6724,3.6937,3.7084,3.7318,3.8097,3.8296,3.8316,3.4638,3.4624,3.4769,3.4875,3.4834,3.4848,3.4913,3.4992,3.4992,3.5112,3.5245,3.494,3.4782,3.4651,3.4782,3.4875,3.4875,3.4966,3.5111,3.5282,3.5745,3.6129,3.6405,3.6774,3.7051,3.7169,3.7417,3.7562,3.7589,3.7792,3.7914,3.7884,3.7884,3.7884,3.7884,3.7884,3.7884,3.7884,3.8148,3.8161,3.7903,3.7512,3.7328,3.7314,3.7222,3.6908,3.6354,3.5981,3.5507,3.4902,3.4812,3.4826,3.4826,3.4813,3.4826,3.4757,3.4202,3.3755,3.3517,3.3689,3.4097,3.4718,3.4832,3.4576,3.4103,3.3464,3.3086,3.325,3.3351,3.3256,3.308,3.3072,3.3387,3.3992,3.4547,3.4826,3.4831,3.5111,3.5133,3.4882,3.51,3.5496,3.5916,3.5814,3.5778,3.6062,3.6422,3.6531,3.6553,3.6552,3.6535,3.6489,3.6303,3.6169,3.6157,3.6323,3.6519,3.6519,3.6351,3.6351,3.6436,3.6547,3.656,3.6533,3.6535,3.6479,3.6264,3.6187,3.6527,3.7361,3.7357,3.7407,3.8094,3.8286,3.8031,3.3847,3.3808,3.3847,3.3808,3.3873,3.3847,3.4005,3.4189,3.4176,3.4401,3.4599,3.4058,3.3873,3.3808,3.3847,3.3873,3.3887,3.4071,3.4215,3.4281,3.4809,3.5204,3.5494,3.6063,3.654,3.6802,3.7022,3.7167,3.7288,3.7341,3.7341,3.7328,3.7328,3.7341,3.7341,3.7283,3.727,3.7357,3.7836,3.7851,3.7277,3.7249,3.7249,3.722,3.6972,3.655,3.5901,3.5652,3.5275,3.4773,3.4706,3.4652,3.4607,3.4632,3.4644,3.4603,3.4002,3.3493,3.3037,3.3374,3.3836,3.4417,3.4342,3.3942,3.319,3.2954,3.2729,3.2633,3.3142,3.3063,3.2138,3.2042,3.2288,3.2868,3.3843,3.4686,3.4745,3.484,3.4824,3.4818,3.4749,3.492,3.539,3.555,3.5533,3.5558,3.59,3.6186,3.6207,3.633,3.6535,3.6334,3.5942,3.5569,3.5584,3.6053,3.6258,3.6259,3.586,3.5762,3.6009,3.6229,3.641,3.6195,3.6379,3.6182,3.5852,3.5635,3.6166,3.6939,3.7526,3.8006,3.8105,3.8013,3.7694,3.3808,3.3808,3.3808,3.3808,3.3808,3.3808,3.3873,3.3913,3.39,3.3847,3.3767,3.3834,3.3808,3.3808,3.3808,3.3808,3.3821,3.3887,3.3913,3.3952,3.4281,3.4452,3.4584,3.4968,3.543,3.5863,3.6153,3.6521,3.6985,3.7222,3.7328,3.7328,3.7328,3.7328,3.7328,3.691,3.6939,3.7259,3.7092,3.6867,3.6753,3.6697,3.6697,3.6699,3.635,3.5915,3.5389,3.51,3.4678,3.4097,3.3965,3.3755,3.3466,3.3413,3.3448,3.3407,3.301,3.2651,3.2315,3.2394,3.2349,3.2148,3.2069,3.2368,3.2842,3.2255,3.1783,3.2006,3.2298,3.2243,3.1659,3.1503,3.1532,3.17,3.2717,3.3735,3.4594,3.4822,3.4828,3.477,3.4334,3.4279,3.4879,3.5319,3.5367,3.5067,3.5112,3.5187,3.5308,3.6023,3.6257,3.591,3.5334,3.497,3.5009,3.5436,3.5574,3.5215,3.5079,3.5122,3.5189,3.5233,3.5322,3.5768,3.5813,3.5753,3.566,3.5593,3.5668,3.5835,3.66,3.6989,3.7064,3.7026,3.6822,3.3043,3.3018,3.3043,3.303,3.3004,3.3043,3.3083,3.3176,3.3096,3.2938,3.2819,3.2939,3.3043,3.3043,3.3018,3.3018,3.3056,3.3346,3.3452,3.3504,3.3873,3.4097,3.4215,3.44,3.4797,3.5219,3.5495,3.5798,3.6156,3.6508,3.6706,3.6719,3.6866,3.6932,3.6932,3.6704,3.6675,3.6947,3.6695,3.6469,3.626,3.6169,3.6075,3.6103,3.5785,3.5416,3.5035,3.4585,3.4097,3.3517,3.3217,3.3083,3.3036,3.2501,3.2345,3.2597,3.2332,3.2166,3.2095,3.1852,3.1606,3.1318,3.1311,3.1575,3.2208,3.1654,3.1283,3.1188,3.1504,3.1584,3.1365,3.1318,3.1338,3.1329,3.1857,3.251,3.3141,3.3793,3.4009,3.335,3.3296,3.3807,3.4704,3.5039,3.5013,3.4491,3.4365,3.4515,3.4803,3.5344,3.5617,3.5267,3.4712,3.4385,3.4371,3.4828,3.5056,3.4865,3.4838,3.4811,3.4824,3.4847,3.5034,3.547,3.5589,3.5598,3.5585,3.559,3.561,3.5547,3.6176,3.6448,3.6538,3.6537,3.6332,3.2095,3.2081,3.2081,3.2081,3.2081,3.2081,3.2215,3.2387,3.2071,3.1989,3.2004,3.2043,3.2081,3.2081,3.2081,3.2081,3.2121,3.2622,3.2935,3.2961,3.3385,3.3676,3.3887,3.3926,3.4163,3.4599,3.485,3.5035,3.5179,3.56,3.5809,3.5874,3.6182,3.6369,3.6408,3.642,3.6365,3.637,3.6495,3.6333,3.5848,3.5572,3.5482,3.5441,3.5178,3.4915,3.4599,3.4018,3.3426,3.286,3.2558,3.2519,3.2734,3.18,3.1462,3.1886,3.1701,3.1591,3.1741,3.1337,3.1126,3.1289,3.1335,3.1318,3.1326,3.1321,3.1074,3.0564,3.1023,3.1321,3.1292,3.1196,3.1099,3.1045,3.1194,3.1349,3.1454,3.2676,3.294,3.1393,3.208,3.3233,3.4328,3.4619,3.4425,3.3887,3.3727,3.3988,3.4556,3.468,3.4595,3.4568,3.411,3.3792,3.3923,3.4386,3.4799,3.4812,3.4705,3.4638,3.4745,3.4811,3.4985,3.5495,3.5576,3.5509,3.524,3.5321,3.5468,3.594,3.6034,3.6211,3.6153,3.5949,3.5599,3.2081,3.2081,3.2081,3.2081,3.2081,3.2081,3.2096,3.2134,0.0,0.0,0.0,3.1989,3.2081,3.2081,3.2081,3.2081,3.2095,3.22,3.2228,3.2253,3.2358,3.2399,3.2426,3.2426,3.2885,3.3662,3.3702,3.4124,3.4837,3.4956,3.51,3.5297,3.5376,3.5521,3.5731,3.576,3.5642,3.5443,3.6169,3.6156,3.5338,3.506,3.4915,3.4929,3.4585,3.4176,3.3675,3.3332,3.2706,3.1666,3.1938,3.1986,3.1617,3.1232,3.1115,3.1354,3.0517,3.0052,3.0303,3.0031,3.027,3.1242,3.1313,3.1317,3.1319,3.1319,3.1243,3.1134,3.1227,3.1321,3.1315,3.0833,3.0339,2.9906,3.0732,3.1319,3.1352,3.1972,3.1767,3.0353,3.0955,3.2197,3.3751,3.3984,3.3781,3.3323,3.3192,3.3545,3.44,3.4005,3.3598,3.3911,3.3611,3.3349,3.3768,3.4347,3.4794,3.4716,3.4295,3.4202,3.4624,3.4825,3.5025,3.5398,3.5601,3.5173,3.4382,3.4182,3.4354,3.4958,3.5105,3.5092,3.5024,3.4373,3.3727,3.1709,3.1709,3.1684,3.1592,0.0,3.1643,3.1489,3.1164,3.1115,3.119,3.1324,3.1577,3.166,3.1684,3.1684,3.1684,3.1698,3.1818,3.1884,3.1897,3.2029,3.2081,3.2081,3.2081,3.2319,3.2727,3.286,3.3201,3.3623,3.3952,3.4242,3.4479,3.4664,3.4875,3.5179,3.5188,3.5016,3.4703,3.5334,3.5348,3.4717,3.4467,3.4308,3.4282,3.4005,0.0,0.0,0.0,0.0,0.0,0.0,0.0,0.0,0.0,0.0,3.0376,2.9327,2.8586,2.8375,2.8234,2.8437,2.9023,3.0444,3.1042,3.0432,3.0098,3.0285,3.1184,3.133,3.1198,3.0816,3.0532,3.0371,3.0454,3.0923,3.1318,3.1344,3.154,3.1222,3.025,3.0711,3.1826,3.3221,3.3422,3.3189,3.2673,3.2791,3.3283,3.3739,3.3395,3.3132,3.3367,3.3205,3.3154,3.3441,3.3937,3.424,3.3938,3.365,3.3611,3.3886,3.39,3.4058,3.4585,3.4679,3.4454,3.3606,3.342,3.3514,3.3818,3.3911,3.3899,3.3871,3.3463,3.3035,3.1335,3.1335,3.1335,3.1139,3.0899,3.106,3.0759,3.0135,3.0558,3.0685,3.0571,3.0872,3.0981,3.0981,3.1009,3.1012,3.1073,3.1291,3.1462,3.1552,3.1763,3.1871,3.1899,3.1923,3.195,3.2029,3.2228,3.2347,3.2413,3.2925,3.3319,3.3597,3.3808,3.411,3.4533,0.0,0.0,0.0,3.4307,3.4255,3.3887,3.3636,3.3504,3.3478,3.3267,0.0,3.2791,3.2291,3.1783,3.1357,3.1306,0.0,0.0,0.0,0.0,0.0,0.0,0.0,0.0,0.0,0.0,0.0,2.8372,2.9573,2.9349,2.8807,2.9181,3.0913,3.1095,3.0644,2.9604,2.9485,2.9867,3.0818,3.1147,3.1228,3.1119,3.1135,3.0909,3.04,3.0767,3.1511,3.2545,3.2898,3.2781,3.211,3.256,3.2924,3.2763,3.2707,3.275,3.2864,3.2985,3.302,3.2853,3.3332,3.3554,3.3128,3.2973,3.2908,3.3063,3.3089,3.3245,3.3608,3.3686,3.3517,3.296,3.2843,3.2908,3.3037,3.3063,3.2971,3.276,3.2904,3.3046,3.1335,3.1335,3.1335,3.1139,3.092,3.0603,3.0013,2.932,2.9848,2.9809,2.9383,2.9683,2.9756,2.9769,3.0033,3.0115,3.0142,3.0408,3.0695,3.0991,3.1055,3.119,3.1392,3.1368,3.1513,3.1726,3.179,3.191,3.2098,3.2213,3.2361,3.2637,3.2639,3.2991,3.3557,3.3371,3.324,3.32,3.3255,3.3096,3.2703,3.2413,3.2294,3.2294,3.2279,3.2121,3.1857,3.1778,3.1622,3.1321,3.1312,3.1326,3.1278,2.9465,2.7856,0.0,2.5164,0.0,0.0,0.0,0.0,0.0,0.0,0.0,0.0,2.819,2.8617,3.0337,3.0458,2.9333,2.6689,2.6448,2.732,2.9516,3.0667,3.1073,3.0536,3.0451,3.0427,3.0325,3.0394,3.0697,3.1487,3.2406,3.2601,3.1723,3.2323,3.2599,3.1777,3.1624,3.1769,3.2159,3.2675,3.2859,3.2395,3.2745,3.3099,3.2972,3.2561,3.2419,3.2899,3.2986,3.3022,3.3098,3.3151,3.2936,3.2294,3.222,3.237,3.2862,3.2937,3.2657,3.1938,3.2285,3.2984,3.0943,3.0764,3.0764,3.0534,3.0159,3.0142,2.9736,2.9185,2.9558,2.9505,2.919,2.93,2.9386,2.9554,2.9541,2.9561,2.973,2.967,2.9917,3.035,3.0339,3.0498,3.0788,3.0994,3.115,3.1258,3.1405,3.1458,3.1443,3.1419,3.1607,3.203,3.203,3.2054,3.2012,3.2197,3.2361,3.2511,3.2659,3.2589,3.2267,3.2136,3.2081,3.2081,3.2081,3.1938,3.1686,3.1577,3.1407,3.1307,3.0944,3.0936,3.1218,2.8698,2.6295,0.0,0.0,0.0,0.0,0.0,0.0,0.0,0.0,0.0,0.0,0.0,2.723,2.5904,2.7026,2.6764,2.4155,2.4841,2.5439,2.555,2.7821,2.9643,3.0246,3.0313,2.9515,2.7365,2.8751,3.0246,3.1159,3.178,3.1877,3.1373,3.1732,3.1883,3.1423,3.1325,3.1479,3.2005,3.2613,3.2752,3.177,3.2119,3.2417,3.2119,3.1833,3.1759,3.2032,3.2081,3.2169,3.2442,3.2517,3.2343,3.1808,3.1621,3.1734,3.2005,3.2072,3.1892,3.1415,3.1713,3.2087,3.0402,3.0108,2.9687,2.9328,2.9066,2.9245,2.9188,2.8947,2.9092,2.8964,2.8758,2.8802,2.8779,2.87,2.8489,2.8595,2.8911,2.8934,2.9205,2.9746,2.9868,3.0029,3.0253,3.0534,3.0687,3.0677,3.0954,3.0954,3.0701,3.073,3.0943,3.1262,3.1054,3.0814,3.0584,3.1115,3.146,3.1647,3.2053,3.2162,3.1922,3.1884,3.1908,3.1884,3.1884,3.1792,3.1605,3.1381,3.1211,3.1068,3.0443,3.0302,3.0829,2.752,0.0,0.0,0.0,0.0,0.0,0.0,0.0,0.0,0.0,2.1738,2.7678,0.0,2.4066,0.0,2.3244,2.4644,2.3737,2.3169,0.0,0.0,2.3677,2.6633,2.8687,2.8925,2.7499,2.3895,2.5435,2.7669,3.0086,3.0919,3.1032,3.0222,2.8931,2.8055,2.8094,2.8213,2.9116,3.1187,3.0862,3.0146,2.9673,3.0866,3.1756,3.1341,3.1328,3.1341,3.1316,3.1329,3.1428,3.1787,3.1874,3.1714,3.1391,3.133,2.9908,2.4959,2.385,2.385,2.3961,2.8036,3.134,2.9624,2.9488,2.7804,2.7307,2.756,2.7608,2.7856,2.8212,2.8054,2.7811,2.756,2.7803,2.732,2.6331,2.6284,0.0,2.7086,2.7862,2.8608,2.9224,2.972,2.997,2.996,2.9987,3.0,3.0013,3.0256,3.029,3.0026,3.023,3.0279,3.0076,2.9252,2.9117,2.9673,3.0171,3.0453,3.0491,3.1316,3.1607,3.1366,3.1353,3.1328,3.1353,3.1377,3.1353,3.1326,3.1287,3.1036,3.0421,2.9664,2.9368,2.9532,0.0,0.0,0.0,0.0,0.0,0.0,0.0,0.0,0.0,0.0,0.0,0.0,0.0,0.0,0.0,1.9856,0.0,2.7066,2.0798,0.0,0.0,0.0,2.1368,2.4594,2.4963,2.3818,2.086,0.0,0.0,2.6962,2.9805,3.0254,2.7368,2.2224,1.8751,1.8768,1.9368,2.2624,3.0378,2.636,2.3084,2.4826,2.8405,3.0971,3.1245,3.1319,3.0626,3.1127,3.131,3.1275,3.0787,3.1267,3.1038,3.1198,3.0964,2.537,0.772,0.4116,0.355,0.4625,1.7522,2.9153,2.746,2.583,2.5144,2.4919,2.5097,2.5553,2.6107,2.6689,2.6898,2.6719,2.6345,2.6313,2.5619,2.4529,2.4269,0.0,0.0,0.0,2.6501,2.776,2.8212,2.8665,2.9134,2.9499,2.9624,2.9492,2.9894,2.9753,2.9143,2.9446,2.8586,2.6574,0.0,0.0,2.7217,2.8419,2.9173,2.9548,3.0774,3.1425,3.1318,3.133,3.1232,3.1071,3.1218,3.1242,3.1071,3.0851,3.0748,3.0885,2.8866,2.7037,0.0,0.0,0.0,0.0,0.0,0.0,0.0,0.0,0.0,0.0,0.0,1.3034,1.8722,0.0,0.0,0.0,1.3112,1.3461,1.1206,0.8153,0.0,0.0,0.0,0.0,0.0,0.0,0.0,1.4815,1.3982,1.6693,2.4291,2.8199,2.7862,2.1484,1.6896,1.2412,0.7696,0.0,1.8614,2.9678,2.0447,1.4106,1.9538,2.3965,2.7827,3.0769,2.3114,1.9343,2.888,3.1314,2.9022,2.3602,2.1784,2.1685,2.1379,2.6312,2.7038,1.9576,1.7845,1.3476,0.1949,0.6409,1.2419,2.4662,0.0,0.0,0.0,0.0,2.3114,2.3871,2.4668,2.4973,2.4881,2.4529,2.4349,0.0,0.0,0.0,0.0,0.0,0.0,2.4816,2.6027,2.7143,2.7773,2.8099,2.8573,2.8665,2.8502,2.8625,2.8327,2.762,2.7243,2.5738,2.3215,0.0,0.0,0.0,0.0,2.7824,2.8346,3.0102,3.1085,3.1142,3.1164,3.1073,3.0923,3.1097,3.1086,3.0923,3.03,3.0239,3.069,2.7539,0.0,0.0,0.0,0.0,0.0,0.0,0.0,0.0,0.0,0.0,0.0,0.0,0.0,0.0,0.0,0.0,0.0,0.0,0.0,0.0,0.0,0.2102,0.0,0.0,0.0,0.0,0.0,0.0,0.0,0.0,0.0,2.4076,2.3084,1.9211,0.0,0.0,0.801,0.2402,0.7457,1.5556,2.587,1.4274,0.0,1.4605,1.8211,2.2652,3.0099,1.8163,1.2775,2.8204,3.0798,2.8357,2.1216,1.9539,1.7566,1.3173,1.6751,2.0435,2.1099,2.1078,1.6083,0.0,0.0,0.0,0.0,0.0,0.0,0.0,0.0,0.0,0.0,0.0,2.2018,2.1916,0.0,2.185,0.0,0.0,0.0,0.0,2.0667,2.2802,0.0,0.0,2.6779,2.7686,2.6901,2.6888,2.6901,2.6841,2.6154,2.5639,2.5209,2.308,0.0,0.0,0.0,0.0,0.0,0.0,2.6316,2.6804,2.9127,3.0469,3.0745,3.0864,3.0923,3.0909,3.0923,3.0886,3.0857,2.9762,2.932,2.9502,2.5413,0.0,0.0,0.0,0.0,0.0,0.0,0.0,0.0,0.0,0.0,0.0,0.0,0.0,0.0,0.0,0.0,0.0,0.0,0.0,0.0,0.0,0.0,0.0,0.0,0.0,0.0,0.0,0.0,0.0,0.0,0.0,2.6543,1.2888,0.2184,0.562,0.0,0.0,0.0,0.0,1.3312,1.7419,0.792,0.2823,1.0152,1.143,1.6,2.8958,0.0,0.0,2.7456,2.951,2.9087,2.9062,2.8471,2.347,0.5944,0.2568,0.0,0.0,0.0,0.0,0.0,0.0,0.0,0.0,0.0,0.0,0.0,0.0,0.0,0.0,0.0,0.0,1.9389,0.0,1.8793,0.0,0.0,0.0,0.0,0.0,0.0,0.0,0.0,2.3343,2.4577,2.5528,2.4943,2.4836,0.0,2.4119,2.2292,0.0,0.0,0.0,0.0,0.0,0.0,0.0,0.0,2.5533,2.6802,2.8946,3.0316,3.0812,3.0643,3.0653,3.0896,3.0666,3.0194,2.9407,2.8111,2.6659,0.0,0.0,0.0,0.0,0.0,0.0,0.0,0.0,0.0,0.0,0.0,0.0,0.0,0.0,0.0,0.0,0.0,0.0,0.0,0.0,0.0,0.0,0.0,0.1147,0.0,0.0,0.0,0.0,0.0,0.0,0.0,0.0,0.0,0.987,0.4244,0.0471,0.1812,0.1952,0.1955,0.196,0.0,0.0,0.0,0.0,0.0,0.0,0.0,0.9876,1.7374,1.0536,0.7022,1.5665,1.8611,2.0868,2.4121,0.0,0.0,0.4161,0.0341,0.0,0.0,0.0,0.0,0.0,0.0,0.0,0.0,0.0,0.0,0.0,0.0,0.0,0.0,0.0,0.0,1.6306,1.6081,0.0,0.0,0.0,0.0,0.0,0.0,0.0,0.0,0.0,0.0,0.0,2.3264,2.2562,0.0,0.0,0.0,0.0,0.0,0.0,0.0,0.0,0.0,0.0,0.0,0.0,2.4664,2.6317,2.8603,3.0073,3.0582,3.0421,3.0461,3.0716,3.045,2.973,2.8467,0.0,0.0,0.0,0.0,0.0,0.0,0.0,0.0,0.0,0.0,0.0,0.0,0.0,0.0,0.0,0.0,0.0,0.0,0.0,0.0,0.0,0.0,0.0,0.0,0.0,0.0751,0.0,0.0,0.0,0.0,0.0,0.0,0.0,0.0,0.0,0.0,0.0,0.0,0.0,0.0,0.0,0.0,0.2303,0.3095,0.0,0.0,0.0,0.0,0.0,0.0,0.0,0.0,0.0,0.0,0.0,0.0,0.0,0.0,1.4555,0.2265,0.0,0.0,0.0,0.0,0.0,0.0,0.0,0.0,0.0,0.0,0.0,0.0,0.0,0.0,0.0,0.0,0.0,0.0,1.2571,0.0,0.0,1.1637,0.0,0.0,0.0,0.0,0.0,0.0,0.0,0.0,0.0,0.0,0.0,0.0,0.0,0.0,0.0,0.0,0.0,0.0,0.0,0.0,0.0,0.0,2.3715,2.5315,2.8137,2.9667,2.996,3.0164,3.0285,3.0322,3.0272,2.9585,2.8164,0.0,0.0,0.0,0.0,0.0,0.0,0.0,0.0,0.0,0.0,0.0,0.0,0.0,0.0,0.0,0.0,0.0,0.0,0.0,0.0,0.0,0.0,0.0,0.0,0.0,0.0,0.0,0.0,0.0996,0.0,0.0,0.0,0.0,0.0,0.0,0.0,0.0,0.0,0.0,0.0,0.0,0.0,0.0,0.0,0.0,0.0,0.0,0.0,0.0,0.0,0.0,0.0,0.0,0.0,0.0,0.0,0.0,0.0,0.0,0.0,0.0,0.0,0.0,0.0,0.0,0.0,0.0,0.0,0.0,0.0,0.0,0.0,0.0,0.0,0.0,0.0,0.0,0.0,0.0,0.0,0.0,0.0,0.0,0.0,0.0,0.0,0.0,0.0,0.0,0.0,0.0,0.0,0.0,0.0,0.0,0.0,0.0,0.0,0.0,0.0,0.0,0.0,0.0,0.0,2.361,2.5553,2.7996,2.9584,3.02,2.9944,2.9878,3.0016,2.9404,2.8252,0.0,0.0,0.0,0.0,0.0,0.0,0.0,0.0,0.0,0.0,0.0,0.0,0.0,0.0,0.0,0.0,0.0,0.0,0.0,0.0,0.0,0.0,0.0,0.0,0.0,0.0,0.0,0.0,0.0,0.0915,0.3228,0.0,0.0,0.0,0.0,0.0,0.0,0.0,0.0,0.0,0.0,0.0,0.0,0.0,0.0,0.0,0.0,0.0,0.0,0.0,0.0,0.0,0.0,0.0,0.0,0.0,0.0,0.0,0.0,0.0,0.0,0.0,0.0,0.0,0.0,0.0,0.0,0.0,0.0,0.0,0.0,0.0,0.0,0.0,0.0,0.0,0.0,0.0,0.0,0.0,0.0,0.0,0.0,0.0,0.0,0.0,0.0,0.0,0.0,0.0,0.0,0.0,0.0,0.0,0.0,0.0,0.0,0.0,0.0,0.0,0.0,0.0,0.0,0.0,0.0,2.3108,2.5124,2.7892,2.95,2.9842,2.9759,2.972,2.9763,2.8814,2.7307,0.0,0.0,0.0,0.0,0.0,0.0,0.0,0.0,0.0,0.0,0.0,0.0,0.0,0.0,0.0,0.0,0.0,0.0,0.0,0.0,0.0,0.0,0.0,0.0,0.0,0.0,0.0,0.0,0.0,0.0564,0.1983,0.0,0.0,0.0,0.0,0.0,0.0,0.0,0.0,0.0,0.0,0.0,0.0,0.0,0.0,0.0,0.0,0.0,0.0,0.0,0.0,0.0,0.0,0.0,0.0,0.0,0.0,0.0,0.0,0.0,0.0,0.0,0.0,0.0,0.0,0.0,0.0,0.0,0.0,0.0,0.0,0.0,0.0,0.0,0.0,0.0,0.0,0.0,0.0,0.0,0.0,0.0,0.0,0.0,0.0,0.0,0.0,0.0,0.0,0.0,0.0,0.0,0.0,0.0,0.0,0.0,0.0,0.0,0.0,0.0,0.0,0.0,0.0,0.0,0.0,0.0,2.4244,2.7707,2.9402,2.9194,2.965,2.9759,2.9488,2.8217,2.6473,0.0,0.0,0.0,0.0,0.0,0.0,0.0,0.0,0.0,0.0,0.0,0.0,0.0,0.0,0.0,0.0,0.0,0.0,0.0,0.0,0.0,0.0,0.0,0.0,0.0,0.0,0.0,0.0,0.0,0.0,0.0,0.0,0.0,0.0,0.0,0.0,0.0,0.0,0.0,0.0,0.0,0.0,0.0,0.0,0.0,0.0,0.0,0.0,0.0,0.0,0.0,0.0,0.0,0.0,0.0,0.0,0.0,0.0,0.0,0.0,0.0,0.0,0.0,0.0,0.0,0.0,0.0,0.0,0.0,0.0,0.0,0.0,0.0,0.0,0.0,0.0,0.0,0.0,0.0,0.0,0.0,0.0,0.0,0.0,0.0,0.0,0.0,0.0,0.0,0.0,0.0,0.0,0.0,0.0,0.0,0.0,0.0,0.0,0.0,0.0,0.0,0.0,0.0,0.0,0.0,0.0,2.3298,2.7114,2.9121,2.9145,2.929,2.9202,2.8805,2.6564,0.0,0.0,0.0,0.0,0.0,0.0,0.0,0.0,0.0,0.0,0.0,0.0,0.0,0.0,0.0,0.0,0.0,0.0,0.0,0.0,0.0,0.0,0.0,0.0,0.0,0.0,0.0,0.0,0.0,0.0,0.0,0.0,0.0,0.0,0.0,0.0,0.0,0.0,0.0,0.0,0.0,0.0,0.0,0.0,0.0,0.0,0.0,0.0,0.0,0.0,0.0,0.0,0.0,0.0,0.0,0.0,0.0,0.0,0.0,0.0,0.0,0.0,0.0,0.0,0.0,0.0,0.0,0.0,0.0,0.0,0.0,0.0,0.0,0.0,0.0,0.0,0.0,0.0,0.0,0.0,0.0,0.0,0.0,0.0,0.0,0.0,0.0,0.0,0.0,0.0,0.0,0.0,0.0,0.0,0.0,0.0,0.0,0.0,0.0,0.0,0.0,0.0,0.0,0.0,0.0,0.0,1.881,2.2485,2.6441,2.8663,2.904,2.9089,2.8899,2.8507,2.5575,2.2997,0.0,0.0,0.0,0.0,0.0,0.0,0.0,0.0,0.0,0.0,0.0,0.0,0.0,0.0,0.0,0.0,0.0,0.0,0.0,0.0,0.0,0.0,0.0,0.0,0.0,0.0,0.0,0.0,0.0,0.0,0.0,0.0,0.0,0.0,0.0,0.0,0.0,0.0,0.0,0.0,0.0,0.0,0.0,0.0,0.0,0.0,0.0,0.0,0.0,0.0,0.0,0.0,0.0,0.0,0.0,0.0,0.0,0.0,0.0,0.0,0.0,0.0,0.0,0.0,0.0,0.0,0.0,0.0,0.0,0.0,0.0,0.0,0.0,0.0,0.0,0.0,0.0,0.0,0.0,0.0,0.0,0.0,0.0,0.0,0.0,0.0,0.0,0.0,0.0,0.0,0.0,0.0,0.0,0.0,0.0,0.0,0.0,0.0,0.0,0.0,0.0,0.0,0.0,0.0,0.0,0.0,2.1224,2.5698,2.8285,2.8891,2.8913,2.8692,2.8225,2.5046,2.2089,0.0,0.0,0.0,0.0,0.0,0.0,0.0,0.0,0.0,0.0,0.0,0.0,0.0,0.0,0.0,0.0,0.0,0.0,0.0,0.0,0.0,0.0,0.0,0.0,0.0,0.0,0.0,0.0,0.0,0.0,0.0,0.0,0.0,0.0,0.0,0.0,0.0,0.0,0.0,0.0,0.0,0.0,0.0,0.0,0.0,0.0,0.0,0.0,0.0,0.0,0.0,0.0,0.0,0.0,0.0,0.0,0.0,0.0,0.0,0.0,0.0,0.0,0.0,0.0,0.0,0.0,0.0,0.0,0.0,0.0,0.0,0.0,0.0,0.0,0.0,0.0,0.0,0.0,0.0,0.0,0.0,0.0,0.0,0.0,0.0,0.0,0.0,0.0,0.0,0.0,0.0,0.0,0.0,0.0,0.0,0.0,0.0,0.0,0.0,0.0,0.0,0.0,0.0,0.0,0.0,0.0,1.7495,2.5172,2.9017,2.8683,2.8638,2.8249,2.7426,2.4578,2.1811,0.0,0.0,0.0,0.0,0.0,0.0,0.0,0.0,0.0,0.0,0.0,0.0,0.0,0.0,0.0,0.0,0.0,0.0,0.0,0.0,0.0,0.0,0.0,0.0,0.0,0.0,0.0,0.0,0.0,0.0,0.0,0.0,0.0,0.0,0.0,0.0,0.0,0.0,0.0,0.0,0.0,0.0,0.0,0.0,0.0,0.0,0.0,0.0,0.0,0.0,0.0,0.0,0.0,0.0,0.0,0.0,0.0,0.0,0.0,0.0,0.0,0.0,0.0,0.0,0.0,0.0,0.0,0.0,0.0,0.0,0.0,0.0,0.0,0.0,0.0,0.0,0.0,0.0,0.0,0.0,0.0,0.0,0.0,0.0,0.0,0.0,0.0,0.0,0.0,0.0,0.0,0.0,0.0,0.0,0.0,0.0,0.0,0.0,0.0,0.0,0.0,0.0,0.0,0.0,0.0,0.0,1.55,2.4132,2.7079,2.3903,2.6124,2.5129,2.0596,2.1504,2.1131,0.0,0.0,0.0,0.0,0.0,0.0,0.0,0.0,0.0,0.0,0.0,0.0,0.0,0.0,0.0,0.0,0.0,0.0,0.0,0.0,0.0,0.0,0.0,0.0,0.0,0.0,0.0,0.0,0.0,0.0,0.0,0.0,0.0,0.0,0.0,0.0,0.0,0.0,0.0,0.0,0.0,0.0,0.0,0.0,0.0,0.0,0.0,0.0,0.0,0.0,0.0,0.0,0.0,0.0,0.0,0.0,0.0,0.0,0.0,0.0,0.0,0.0,0.0,0.0,0.0,0.0,0.0,0.0,0.0,0.0,0.0,0.0,0.0,0.0,0.0,0.0,0.0,0.0,0.0,0.0,0.0,0.0,0.0,0.0,0.0,0.0,0.0,0.0,0.0,0.0,0.0,0.0,0.0,0.0,0.0,0.0,0.0,0.0,0.0,0.0,0.0,0.0,0.0,0.0,0.0,0.0,1.2753,2.2508,2.3796,1.6493,2.2588,2.2566,1.5618,1.8114,1.8835,1.6752,0.0,0.0,0.0,0.0,0.0,0.0,0.0,0.0,0.0,0.0,0.0,0.0,0.0,0.0,0.0,0.0,0.0,0.0,0.0,0.0,0.0,0.0,0.0,0.0,0.0,0.0,0.0,0.0,0.0,0.0,0.0,0.0,0.0,0.0,0.0,0.0,0.0,0.0,0.0,0.0,0.0,0.0,0.0,0.0,0.0,0.0,0.0,0.0,0.0,0.0,0.0,0.0,0.0,0.0,0.0,0.0,0.0,0.0,0.0,0.0,0.0,0.0,0.0,0.0,0.0,0.0,0.0,0.0,0.0,0.0,0.0,0.0,0.0,0.0,0.0,0.0,0.0,0.0,0.0,0.0,0.0,0.0,0.0,0.0,0.0,0.0,0.0,0.0,0.0,0.0,0.0,0.0,0.0,0.0,0.0,0.0,0.0,0.0,0.0,0.0,0.0,0.0,0.0,0.0,0.0,0.0,1.9667,1.9863,0.7613,1.9276,2.5442,2.4012,1.7284,1.1759,0.786,0.0,0.0,0.0,0.0,0.0,0.0,0.0,0.0,0.0,0.0,0.0,0.0,0.0,0.0,0.0,0.0,0.0,0.0,0.0,0.0,0.0,0.0,0.0,0.0,0.0,0.0,0.0,0.0,0.0,0.0,0.0,0.0,0.0,0.0,0.0,0.0,0.0,0.0,0.0,0.0,0.0,0.0,0.0,0.0,0.0,0.0,0.0,0.0,0.0,0.0,0.0,0.0,0.0,0.0,0.0,0.0,0.0,0.0,0.0,0.0,0.0,0.0,0.0,0.0,0.0,0.0,0.0,0.0,0.0,0.0,0.0,0.0,0.0,0.0,0.0,0.0,0.0,0.0,0.0,0.0,0.0,0.0,0.0,0.0,0.0,0.0,0.0,0.0,0.0,0.0,0.0,0.0,0.0,0.0,0.0,0.0,0.0,0.0,0.0,0.0,0.0,0.0,0.0,0.0,0.0,0.0,0.0,1.2717,0.9373,1.9541,2.0985,1.2644,0.9521,0.6869,0.0,0.0,0.0,0.0,0.0,0.0,0.0,0.0,0.0,0.0,0.0,0.0,0.0,0.0,0.0,0.0,0.0,0.0,0.0,0.0,0.0,0.0,0.0,0.0,0.0,0.0,0.0,0.0,0.0,0.0,0.0,0.0,0.0,0.0,0.0,0.0,0.0,0.0,0.0,0.0,0.0,0.0,0.0,0.0,0.0,0.0,0.0,0.0,0.0,0.0,0.0,0.0,0.0,0.0,0.0,0.0,0.0,0.0,0.0,0.0,0.0,0.0,0.0,0.0,0.0,0.0,0.0,0.0,0.0,0.0,0.0,0.0,0.0,0.0,0.0,0.0,0.0,0.0,0.0,0.0,0.0,0.0,0.0,0.0,0.0,0.0,0.0,0.0,0.0,0.0,0.0,0.0,0.0,0.0,0.0,0.0,0.0,0.0,0.0,0.0,0.0,0.0,0.0,0.0,0.0,0.0,0.0,0.0,0.5605,1.0237,1.6066,1.3034,0.034,0.2182,0.3294,0.0,0.0,0.0,0.0,0.0,0.0,0.0,0.0,0.0,0.0,0.0,0.0,0.0,0.0,0.0,0.0,0.0,0.0,0.0,0.0,0.0,0.0,0.0,0.0,0.0,0.0,0.0,0.0,0.0,0.0,0.0,0.0,0.0,0.0,0.0,0.0,0.0,0.0,0.0,0.0,0.0,0.0,0.0,0.0,0.0,0.0,0.0,0.0,0.0,0.0,0.0,0.0,0.0,0.0,0.0,0.0,0.0,0.0,0.0,0.0,0.0,0.0,0.0,0.0,0.0,0.0,0.0,0.0,0.0,0.0,0.0,0.0,0.0,0.0,0.0,0.0,0.0,0.0,0.0,0.0,0.0,0.0,0.0,0.0,0.0,0.0,0.0,0.0,0.0,0.0,0.0,0.0,0.0,0.0,0.0,0.0,0.0,0.0,0.0,0.0,0.0,0.0,0.0,0.0,0.0,0.0,0.0,0.0,0.0,0.0,0.214,0.0,0.0111,0.0268,0.1266,0.0,0.0,0.0,0.0,0.0,0.0,0.0,0.0,0.0,0.0,0.0,0.0,0.0,0.0,0.0,0.0,0.0,0.0,0.0,0.0,0.0,0.0,0.0,0.0,0.0,0.0,0.0,0.0,0.0,0.0,0.0,0.0,0.0,0.0,0.0,0.0,0.0,0.0,0.0,0.0,0.0,0.0,0.0,0.0,0.0,0.0,0.0,0.0,0.0,0.0,0.0,0.0,0.0,0.0,0.0,0.0,0.0,0.0,0.0,0.0,0.0,0.0,0.0,0.0,0.0,0.0,0.0,0.0,0.0,0.0,0.0,0.0,0.0,0.0,0.0,0.0,0.0,0.0,0.0,0.0,0.0,0.0,0.0,0.0,0.0,0.0,0.0,0.0,0.0,0.0,0.0,0.0,0.0,0.0,0.0,0.0,0.0,0.0,0.0,0.0,0.0,0.0,0.0,0.0,0.0,0.0,0.0,0.0,0.0,0.0,0.0,0.0,0.0,0.0,0.0426,0.0,0.0,0.0,0.0,0.0,0.0,0.0,0.0,0.0,0.0,0.0,0.0,0.0,0.0,0.0,0.0,0.0,0.0,0.0,0.0,0.0,0.0,0.0,0.0,0.0,0.0,0.0,0.0,0.0,0.0,0.0,0.0,0.0,0.0,0.0,0.0,0.0,0.0,0.0,0.0,0.0,0.0,0.0,0.0,0.0,0.0,0.0,0.0,0.0,0.0,0.0,0.0,0.0,0.0,0.0,0.0,0.0,0.0,0.0,0.0,0.0,0.0,0.0,0.0,0.0,0.0,0.0,0.0,0.0,0.0,0.0,0.0,0.0,0.0,0.0,0.0,0.0,0.0,0.0,0.0,0.0,0.0,0.0,0.0,0.0,0.0,0.0,0.0,0.0,0.0,0.0,0.0,0.0,0.0,0.0,0.0,0.0,0.0,0.0,0.0,0.0,0.0,0.0,0.0,0.0,0.0,0.0,0.0,0.0,0.0,0.0,0.0,0.0,0.0,0.0,0.0,0.0,0.0,0.0,0.0,0.0,0.0,0.0,0.0,0.0,0.0,0.0,0.0,0.0,0.0,0.0,0.0,0.0,0.0,0.0,0.0,0.0,0.0,0.0,0.0,0.0,0.0,0.0,0.0,0.0,0.0,0.0,0.0,0.0,0.0,0.0,0.0,0.0,0.0,0.0,0.0,0.0,0.0,0.0,0.0,0.0,0.0,0.0,0.0,0.0,0.0,0.0,0.0,0.0,0.0,0.0,0.0,0.0,0.0,0.0,0.0,0.0,0.0,0.0,0.0,0.0,0.0,0.0,0.0,0.0,0.0,0.0,0.0,0.0,0.0,0.0,0.0,0.0,0.0,0.0,0.0,0.0,0.0,0.0,0.0,0.0,0.0,0.0,0.0,0.0,0.0,0.0,0.0,0.0,0.0,0.0,0.0,0.0,0.0,0.0,0.0,0.0,0.0,0.0,0.0,0.0,0.0,0.0,0.0,0.0,0.0,0.0,0.0,0.0,0.0,0.0,0.0,0.0,0.0,0.0,0.0,0.0,0.0,0.0,0.0,0.0,0.0,0.0,0.0,0.0,0.0,0.0,0.0,0.0,0.0,0.0,0.0,0.0,0.0,0.0,0.0,0.0,0.0,0.0,0.0,0.0,0.0,0.0,0.0,0.0,0.0,0.0,0.0,0.0,0.0,0.0,0.0,0.0,0.0,0.0,0.0,0.0,0.0,0.0,0.0,0.0,0.0,0.0,0.0,0.0,0.0,0.0,0.0,0.0,0.0,0.0,0.0,0.0,0.0,0.0,0.0,0.0,0.0,0.0,0.0,0.0,0.0,0.0,0.0,0.0,0.0,0.0,0.0,0.0,0.0,0.0,0.0,0.0,0.0,0.0,0.0,0.0,0.0,0.0,0.0,0.0,0.0,0.0,0.0,0.0,0.0,0.0,0.0,0.0,0.0,0.0,0.0,0.0,0.0,0.0,0.0,0.0,0.0,0.0,0.0,0.0,0.0,0.0,0.0,0.0,0.0,0.0,0.0,0.0,0.0,0.0,0.0,0.0,0.0,0.0,0.0,0.0,0.0,0.0,0.0,0.0,0.0,0.0,0.0,0.0,0.0,0.0,0.0,0.0,0.0,0.0,0.0,0.0,0.0,0.0,0.0,0.0,0.0,0.0,0.0,0.0,0.0,0.0,0.0,0.0,0.0,0.0,0.0,0.0,0.0,0.0,0.0,0.0,0.0,0.0,0.0,0.0,0.0,0.0,0.0,0.0,0.0,0.0,0.0,0.0,0.0,0.0,0.0,0.0,0.0,0.0,0.0,0.0,0.0,0.0,0.0,0.0,0.0,0.0,0.0,0.0,0.0,0.0,0.0,0.0,0.0,0.0,0.0,0.0,0.0,0.0,0.0,0.0,0.0,0.0,0.0,0.0,0.0,0.0,0.0,0.0,0.0,0.0,0.0,0.0,0.0,0.0,0.0,0.0,0.0,0.0,0.0,0.0,0.0,0.0,0.0,0.0,0.0,0.0,0.0,0.0,0.0,0.0,0.0,0.0,0.0,0.0,0.0,0.0,0.0,0.0,0.0,0.0,0.0,0.0,0.0,0.0,0.0,0.0,0.0,0.0,0.0,0.0,0.0,0.0,0.0,0.0,0.0,0.0,0.0,0.0,0.0,0.0,0.0,0.0,0.0,0.0,0.0,0.0,0.0,0.0,0.0,0.0,0.0,0.0,0.0,0.0,0.0,0.0,0.0,0.0,0.0,0.0,0.0,0.0,0.0,0.0,0.0,0.0,0.0,0.0,0.0,0.0,0.0,0.0,0.0,0.0,0.0,0.0,0.0,0.0,0.0,0.0,0.0,0.0,0.0,0.0,0.0,0.0,0.0,0.0,0.0,0.0,0.0,0.0,0.0,0.0,0.0,0.0,0.0,0.0,0.0,0.0,0.0,0.0,0.0,0.0,0.0,0.0,0.0,0.0,0.0,0.0,0.0,0.0,0.0,0.0,0.0,0.0,0.0,0.0,0.0,0.0,0.0,0.0,0.0,0.0,0.0,0.0,0.0,0.0,0.0,0.0,0.0,0.0,0.0,0.0,0.0,0.0,0.0,0.0,0.0,0.0,0.0,0.0,0.0,0.0,0.0,0.0,0.0,0.0,0.0,0.0,0.0,0.0,0.0,0.0,0.0,0.0,0.0,0.0,0.0,0.0,0.0,0.0,0.0,0.0,0.0,0.0,0.0,0.0,0.0,0.0,0.0,0.0,0.0,0.0,0.0,0.0,0.0,0.0,0.0,0.0,0.0,0.0,0.0,0.0,0.0,0.0,0.0,0.0,0.0,0.0,0.0,0.0,0.0,0.0,0.0,0.0,0.0,0.0,0.0,0.0,0.0,0.0,0.0,0.0,0.0,0.0,0.0,0.0,0.0,0.0,0.0,0.0,0.0,0.0,0.0,0.0,0.0,0.0,0.0,0.0,0.0,0.0,0.0,0.0,0.0,0.0,0.0,0.0,0.0,0.0,0.0,0.0,0.0,0.0,0.0,0.0,0.0,0.0,0.0,0.0,0.0,0.0,0.0,0.0,0.0,0.0,0.0,0.0,0.0,0.0,0.0,0.0,0.0,0.0,0.0,0.0,0.0,0.0,0.0,0.0,0.0,0.0,0.0,0.0,0.0,0.0,0.0,0.0,0.0,0.0,0.0,0.0,0.0,0.0,0.0,0.0,0.0,0.0,0.0,0.0,0.0,0.0,0.0,0.0,0.0,0.0,0.0,0.0,0.0,0.0,0.0,0.0,0.0,0.0,0.0,0.0,0.0,0.0,0.0,0.0,0.0,0.0,0.0,0.0,0.0,0.0,0.0,0.0,0.0,0.0,0.0,0.0,0.0,0.0,0.0,0.0,0.0,0.0,0.0,0.0,0.0,0.0,0.0,0.0,0.0,0.0,0.0,0.0,0.0,0.0,0.0,0.0,0.0,0.0,0.0,0.0,0.0,0.0,0.0,0.0,0.0,0.0,0.0,0.0,0.0,0.0,0.0,0.0,0.0,0.0,0.0,0.0,0.0,0.0,0.0,0.0,0.0,0.0,0.0,0.0,0.0,0.0,0.0,0.0,0.0,0.0,0.0,0.0,0.0,0.0,0.0,0.0,0.0,0.0,0.0,0.0,0.0,0.0,0.0,0.0,0.0,0.0,0.0,0.0,0.0,0.0,0.0,0.0,0.0,0.0,0.0,0.0,0.0,0.0,0.0,0.0,0.0,0.0,0.0,0.0,0.0,0.0,0.0,0.0,0.0,0.0,0.0,0.0,0.0,0.0,0.0,0.0,0.0,0.0,0.0,0.0,0.0,0.0,0.0,0.0,0.0,0.0,0.0,0.0,0.0,0.0,0.0,0.0,0.0,0.0,0.0,0.0,0.0,0.0,0.0,0.0,0.0,0.0,0.0,0.0,0.0,0.0,0.0,0.0,0.0,0.0,0.0,0.0,0.0,0.0,0.0,0.0,0.0,0.0,0.0,0.0,0.0,0.0,0.0,0.0,0.0,0.0,0.0,0.0,0.0,0.0,0.0,0.0,0.0,0.0,0.0,0.0,0.0,0.0,0.0,0.0,0.0,0.0,0.0,0.0,0.0,0.0,0.0,0.0,0.0,0.0,0.0,0.0,0.0,0.0,0.0,0.0,0.0,0.0,0.0,0.0,0.0,0.0,0.0,0.0,0.0,0.0,0.0,0.0,0.0,0.0,0.0,0.0,0.0,0.0,0.0,0.0,0.0,0.0,0.0,0.0,0.0,0.0,0.0,0.0,0.0,0.0,0.0,0.0,0.0,0.0,0.0,0.0,0.0,0.0,0.0,0.0,0.0,0.0,0.0,0.0,0.0,0.0,0.0,0.0,0.0,0.0,0.0,0.0,0.0,0.0,0.0,0.0,0.0,0.0,0.0,0.0,0.0,0.0,0.0,0.0,0.0,0.0,0.0,0.0,0.0,0.0,0.0,0.0,0.0,0.0,0.0,0.0,0.0,0.0,0.0,0.0,0.0,0.0,0.0,0.0,0.0,0.0,0.0,0.0,0.0,0.0,0.0,0.0,0.0,0.0,0.0,0.0,0.0,0.0,0.0,0.0,0.0,0.0,0.0,0.0,0.0,0.0,0.0,0.0,0.0,0.0,0.0,0.0,0.0,0.0,0.0,0.0,0.0,0.0,0.0,0.0,0.0,0.0,0.0,0.0,0.0,0.0,0.0,0.0,0.0,0.0,0.0,0.0,0.0,0.0,0.0,0.0,0.0,0.0,0.0,0.0,0.0,0.0,0.0,0.0,0.0,0.0,0.0,0.0,0.0,0.0,0.0,0.0,0.0,0.0,0.0,0.0,0.0,0.0,0.0,0.0,0.0,0.0,0.0,0.0,0.0,0.0,0.0,0.0,0.0,0.0,0.0,0.0,0.0,0.0,0.0,0.0,0.0,0.0,0.0,0.0,0.0,0.0,0.0,0.0,0.0,0.0,0.0,0.0,0.0,0.0,0.0,0.0,0.0,0.0,0.0,0.0,0.0,0.0,0.0,0.0,0.0,0.0,0.0,0.0,0.0,0.0,0.0,0.0,0.0,0.0,0.0,0.0,0.0,0.0,0.0,0.0,0.0,0.0,0.0,0.0,0.0,0.0,0.0,0.0,0.0,0.0,0.0,0.0,0.0,0.0,0.0,0.0,0.0,0.0,0.0,0.0,0.0,0.0,0.0,0.0,0.0,0.0,0.0,0.0,0.0,0.0,0.0,0.0,0.0,0.0,0.0,0.0,0.0,0.0,0.0,0.0,0.0,0.0,0.0,0.0,0.0,0.0,0.0,0.0,0.0,0.0,0.0,0.0,0.0,0.0,0.0,0.0,0.0,0.0,0.0,0.0,0.0,0.0,0.0,0.0,0.0,0.0,0.0,0.0,0.0,0.0,0.0,0.0,0.0,0.0,0.0,0.0,0.0,0.0,0.0,0.0,0.0,0.0,0.0,0.0,0.0,0.0,0.0,0.0,0.0,0.0,0.0,0.0,0.0,0.0,0.0,0.0,0.0,0.0,0.0,0.0,0.0,0.0,0.0,0.0,0.0,0.0,0.0,0.0,0.0,0.0,0.0,0.0,0.0,0.0,0.0,0.0,0.0,0.0,0.0,0.0,0.0,0.0,0.0,0.0,0.0,0.0,0.0,0.0,0.0,0.0,0.0,0.0,0.0,0.0,0.0,0.0,0.0,0.0,0.0,0.0,0.0,0.0,0.0,0.0,0.0,0.0,0.0,0.0,0.0,0.0,0.0,0.0,0.0,0.0,0.0,0.0,0.0,0.0,0.0,0.0,0.0,0.0,0.0,0.0,0.0,0.0,0.0,0.0,0.0,0.0,0.0,0.0,0.0,0.0,0.0,0.0,0.0,0.0,0.0,0.0,0.0,0.0,0.0,0.0,0.0,0.0,0.0,0.0,0.0,0.0,0.0,0.0,0.0,0.0,0.0,0.0,0.0,0.0,0.0,0.0,0.0,0.0,0.0,0.0,0.0,0.0,0.0,0.0,0.0,0.0,0.0,0.0,0.0,0.0,0.0,0.0,0.0,0.0,0.0,0.0,0.0,0.0,0.0,0.0,0.0,0.0,0.0,0.0,0.0,0.0,0.0,0.0,0.0,0.0,0.0,0.0,0.0,0.0,0.0,0.0,0.0,0.0,0.0,0.0,0.0,0.0,0.0,0.0,0.0,0.0,0.0,0.0,0.0,0.0,0.0,0.0,0.0,0.0,0.0,0.0,0.0,0.0,0.0,0.0,0.0,0.0,0.0,0.0,0.0,0.0,0.0,0.0,0.0,0.0,0.0,0.0,0.0,0.0,0.0,0.0,0.0,0.0,0.0,0.0,0.0,0.0,0.0,0.0,0.0,0.0,0.0,0.0,0.0,0.0,0.0,0.0,0.0,0.0,0.0,0.0,0.0,0.0,0.0,0.0,0.0,0.0,0.0,0.0,0.0,0.0,0.0,0.0,0.0,0.0,0.0,0.0,0.0,0.0,0.0,0.0,0.0,0.0,0.0,0.0,0.0,0.0,0.0,0.0,0.0,0.0,0.0,0.0,0.0,0.0,0.0,0.0,0.0,0.0,0.0,0.0,0.0,0.0,0.0,0.0,0.0,0.0,0.0,0.0,0.0,0.0,0.0,0.0,0.0,0.0,0.0,0.0,0.0,0.0,0.0,0.0,0.0,0.0,0.0,0.0,0.0,0.0,0.0,0.0,0.0,0.0,0.0,0.0,0.0,0.0,0.0,0.0,0.0,0.0,0.0,0.0,0.0,0.0,0.0,0.0,0.0,0.0,0.0,0.0,0.0,0.0,0.0,0.0,0.0,0.0,0.0,0.0,0.0,0.0,0.0,0.0,0.0,0.0,0.0,0.0,0.0,0.0,0.0,0.0,0.0,0.0,0.0,0.0,0.0,0.0,0.0,0.0,0.0,0.0,0.0,0.0,0.0,0.0,0.0,0.0,0.0,0.0,0.0,0.0,0.0,0.0,0.0,0.0,0.0,0.0,0.0,0.0,0.0,0.0,0.0,0.0,0.0,0.0,0.0,0.0,0.0,0.0,0.0,0.0,0.0,0.0,0.0,0.0,0.0,0.0,0.0,0.0,0.0,0.0,0.0,0.0,0.0,0.0,0.0,0.0,0.0,0.0,0.0,0.0,0.0,0.0,0.0,0.0,0.0,0.0,0.0,0.0,0.0,0.0,0.0,0.0,0.0,0.0,0.0,0.0,0.0,0.0,0.0,0.0,0.0,0.0,0.0,0.0,0.0,0.0,0.0,0.0,0.0,0.0,0.0,0.0,0.0,0.0,0.0,0.0,0.0,0.0,0.0,0.0,0.0,0.0,0.0,0.0,0.0,0.0,0.0,0.0,0.0,0.0,0.0,0.0,0.0,0.0,0.0,0.0,0.0,0.0,0.0,0.0,0.0,0.0,0.0,0.0,0.0,0.0,0.0,0.0,0.0,0.0,0.0,0.0,0.0,0.0,0.0,0.0,0.0,0.0,0.0,0.0,0.0,0.0,0.0,0.0,0.0,0.0,0.0,0.0,0.0,0.0,0.0,0.0,0.0,0.0,0.0,0.0,0.0,0.0,0.0,0.0,0.0,0.0,0.0,0.0,0.0,0.0,0.0,0.0,0.0,0.0,0.0,0.0,0.0,0.0,0.0,0.0,0.0,0.0,0.0,0.0,0.0,0.0,0.0,0.0,0.0,0.0,0.0,0.0,0.0,0.0,0.0,0.0,0.0,0.0,0.0,0.0,0.0,0.0,0.0,0.0,0.0,0.0,0.0,0.0,0.0,0.0,0.0,0.0,0.0,0.0,0.0,0.0,0.0,0.0,0.0,0.0,0.0,0.0,0.0,0.0,0.0,0.0,0.0,0.0,0.0,0.0,0.0,0.0,0.0,0.0,0.0,0.0,0.0,0.0,0.0,0.0,0.0,0.0,0.0,0.0,0.0,0.0,0.0,0.0,0.0,0.0,0.0,0.0,0.0,0.0,0.0,0.0,0.0,0.0,0.0,0.0,0.0,0.0,0.0,0.0,0.0,0.0,0.0,0.0,0.0,0.0,0.0,0.0,0.0,0.0,0.0,0.0,0.0,0.0,0.0,0.0,0.0,0.0,0.0,0.0,0.0,0.0,0.0,0.0,0.0,0.0,0.0,0.0,0.0,0.0,0.0,0.0,0.0,0.0,0.0,0.0,0.0,0.0,0.0,0.0,0.0,0.0,0.0,0.0,0.0,0.0,0.0,0.0,0.0,0.0,0.0,0.0,0.0,0.0,0.0,0.0,0.0,0.0,0.0,0.0,0.0,0.0,0.0,0.0,0.0,0.0,0.0,0.0,0.0,0.0,0.0,0.0,0.0,0.0,0.0,0.0,0.0,0.0,0.0,0.0,0.0,0.0,0.0,0.0,0.0,0.0,0.0,0.0,0.0,0.0,0.0,0.0,0.0,0.0,0.0,0.0,0.0,0.0,0.0,0.0,0.0,0.0,0.0,0.0,0.0,0.0,0.0,0.0,0.0,0.0,0.0,0.0,0.0,0.0,0.0,0.0,0.0,0.0,0.0,0.0,0.0,0.0,0.0,0.0,0.0,0.0,0.0,0.0,0.0,0.0,0.0,0.0,0.0,0.0,0.0,0.0,0.0,0.0,0.0,0.0,0.0,0.0,0.0,0.0,0.0,0.0,0.0,0.0,0.0,0.0,0.0,0.0,0.0,0.0,0.0,0.0,0.0,0.0,0.0,0.0,0.0,0.0,0.0,0.0,0.0,0.0,0.0,0.0,0.0,0.0,0.0,0.0,0.0,0.0,0.0,0.0,0.0,0.0,0.0,0.0,0.0,0.0,0.0,0.0,0.0,0.0,0.0,0.0,0.0,0.0,0.0,0.0,0.0,0.0,0.0,0.0,0.0,0.0,0.0,0.0,0.0,0.0,0.0,0.0,0.0,0.0,0.0,0.0,0.0,0.0,0.0,0.0,0.0,0.0,0.0,0.0,0.0,0.0,0.0,0.0,0.0,0.0,0.0,0.0,0.0,0.0,0.0,0.0,0.0,0.0,0.0,0.0,0.0,0.0,0.0,0.0,0.0,0.0,0.0,0.0,0.0,0.0,0.0,0.0,0.0,0.0,0.0,0.0,0.0,0.0,0.0,0.0,0.0,0.0,0.0,0.0,0.0,0.0,0.0,0.0,0.0,0.0,0.0,0.0,0.0,0.0,0.0,0.0,0.0,0.0,0.0,0.0,0.0,0.0,0.0,0.0,0.0,0.0,0.0,0.0,0.0,0.0,0.0,0.0,0.0,0.0,0.0,0.0,0.0,0.0,0.0,0.0,0.0,0.0,0.0,0.0,0.0,0.0,0.0,0.0,0.0,0.0,0.0,0.0,0.0,0.0,0.0,0.0,0.0,0.0,0.0,0.0,0.0,0.0,0.0,0.0,0.0,0.0,0.0,0.0,0.0,0.0,0.0,0.0,0.0,0.0,0.0,0.0,0.0,0.0,0.0,0.0,0.0,0.0,0.0,0.0,0.0,0.0,0.0,0.0,0.0,0.0,0.0,0.0,0.0,0.0,0.0,0.0,0.0,0.0,0.0,0.0,0.0,0.0,0.0,0.0,0.0,0.0,0.0,0.0,0.0,0.0,0.0,0.0,0.0,0.0,0.0,0.0,0.0,0.0,0.0,0.0,0.0,0.0,0.0,0.0,0.0,0.0,0.0,0.0,0.0,0.0,0.0,0.0,0.0,0.0,0.0,0.0,0.0,0.0,0.0,0.0,0.0,0.0,0.0,0.0,0.0,0.0,0.0,0.0,0.0,0.0,0.0,0.0,0.0,0.0,0.0,0.0,0.0,0.0,0.0,0.0,0.0,0.0,0.0,0.0,0.0,0.0,0.0,0.0,0.0,0.0,0.0,0.0,0.0,0.0,0.0,0.0,0.0,0.0,0.0,0.0,0.0,0.0,0.0,0.0,0.0,0.0,0.0,0.0,0.0,0.0,0.0,0.0,0.0,0.0,0.0,0.0,0.0,0.0,0.0,0.0,0.0,0.0,0.0,0.0,0.0,0.0,0.0,0.0,0.0,0.0,0.0,0.0,0.0,0.0,0.0,0.0,0.0,0.0,0.0,0.0,0.0,0.0,0.0,0.0,0.0,0.0,0.0,0.0,0.0,0.0,0.0,0.0,0.0,0.0,0.0,0.0,0.0,0.0,0.0,0.0,0.0,0.0,0.0,0.0,0.0,0.0,0.0,0.0,0.0,0.0,0.0,0.0,0.0,0.0,0.0,0.0,0.0,0.0,0.0,0.0,0.0,0.0,0.0,0.0,0.0,0.0,0.0,0.0,0.0,0.0,0.0,0.0,0.0,0.0,0.0,0.0,0.0,0.0,0.0,0.0,0.0,0.0,0.0,0.0,0.0,0.0,0.0,0.0,0.0,0.0,0.0,0.0,0.0,0.0,0.0,0.0,0.0,0.0,0.0,0.0,0.0,0.0,0.0,0.0,0.0,0.0,0.0,0.0,0.0,0.0,0.0,0.0,0.0,0.0,0.0,0.0,0.0,0.0,0.0,0.0,0.0,0.0,0.0,0.0,0.0,0.0,0.0,0.0,0.0,0.0,0.0,0.0,0.0,0.0,0.0,0.0,0.0,0.0,0.0,0.0,0.0,0.0,0.0,0.0,0.0,0.0,0.0,0.0,0.0,0.0,0.0,0.0,0.0,0.0,0.0,0.0,0.0,0.0,0.0,0.0,0.0,0.0,0.0,0.0,0.0,0.0,0.0,0.0,0.0,0.0,0.0,0.0,0.0,0.0,0.0,0.0,0.0,0.0,0.0,0.0,0.0,0.0,0.0,0.0,0.0,0.0,0.0,0.0,0.0,0.0,0.0,0.0,0.0,0.0,0.0,0.0,0.0,0.0,0.0,0.0,0.0,0.0,0.0,0.0,0.0,0.0,0.0,0.0,0.0,0.0,0.0,0.0,0.0,0.0,0.0,0.0,0.0,0.0,0.0,0.0,0.0,0.0,0.0,0.0,0.0,0.0,0.0,0.0,0.0,0.0,0.0,0.0,0.0,0.0,0.0,0.0,0.0,0.0,0.0,0.0,0.0,0.0,0.0,0.0,0.0,0.0,0.0,0.0,0.0,0.0,0.0,0.0,0.0,0.0,0.0,0.0,0.0,0.0,0.0,0.0,0.0,0.0,0.0,0.0,0.0,0.0,0.0,0.0,0.0,0.0,0.0,0.0,0.0,0.0,0.0,0.0,0.0,0.0,0.0,0.0,0.0,0.0,0.0,0.0,0.0,0.0,0.0,0.0,0.0,0.0,0.0,0.0,0.0,0.0,0.0,0.0,0.0,0.0,0.0,0.0,0.0,0.0,0.0,0.0,0.0,0.0,0.0,0.0,0.0,0.0,0.0,0.0,0.0,0.0,0.0,0.0,0.0,0.0]}]]]